[[{"header":{"parameterUnit":"m.s-1","parameterCategory":1,"la1":30.6,"la2":29.2853,"lo1":-89.7004,"lo2":-87.6739,"dy":0.0162,"dx":0.0183,"nx":112,"ny":82,"refTime":"2026-04-13T00:00:00:Z","depth":0,"parameterNumber":2,"parameterNumberName":"U-component_of_WINDS"},"data":[0.0,0.0,0.0,0.0,0.0,0.0,0.0,0.0,0.0,0.0,0.0,0.0,0.0,0.0,0.0,0.0,0.0,0.0,0.0,0.0,0.0,0.0,0.0,0.0,0.0,0.0,0.0,0.0,0.0,0.0,0.0,0.0,0.0,0.0,0.0,0.0,0.0,0.0,0.0,0.0,0.0,0.0,0.0,0.0,0.0,0.0,0.0,0.0,0.0,0.0,0.0,0.0,0.0,0.0,0.0,0.0,0.0,0.0,0.0,0.0,0.0,0.0,0.0,0.0,0.0,0.0,0.0,0.0,0.0,0.0,0.0,0.0,0.0,0.0,0.0,0.0,0.0,0.0,0.0,0.0,0.0,0.0,0.0,0.0,0.0,0.0,0.0,0.0,0.0,0.0,-2.2077,-2.5692,-2.9038,-3.0846,-3.0423,-2.7615,-2.539,-2.4168,0.0,0.0,0.0,0.0,0.0,0.0,0.0,0.0,0.0,0.0,0.0,0.0,0.0,0.0,0.0,0.0,0.0,0.0,0.0,0.0,0.0,0.0,0.0,0.0,0.0,0.0,0.0,0.0,0.0,0.0,0.0,0.0,0.0,0.0,0.0,0.0,0.0,0.0,0.0,0.0,0.0,0.0,0.0,0.0,0.0,0.0,0.0,0.0,0.0,0.0,0.0,0.0,0.0,0.0,0.0,0.0,0.0,0.0,0.0,0.0,0.0,0.0,0.0,0.0,0.0,0.0,0.0,0.0,0.0,0.0,0.0,0.0,0.0,0.0,0.0,0.0,0.0,0.0,0.0,0.0,0.0,0.0,0.0,0.0,0.0,0.0,0.0,0.0,0.0,0.0,0.0,0.0,0.0,0.0,0.0,0.0,0.0,0.0,0.0,0.0,0.0,0.0,0.0,0.0,-2.4274,-2.9115,-3.2006,-3.2737,-3.0577,-2.9236,-2.7241,-2.4283,0.0,0.0,0.0,0.0,0.0,0.0,0.0,0.0,0.0,0.0,0.0,0.0,0.0,0.0,0.0,0.0,0.0,0.0,0.0,0.0,0.0,0.0,0.0,0.0,0.0,0.0,0.0,0.0,0.0,0.0,0.0,0.0,0.0,0.0,0.0,0.0,0.0,0.0,0.0,0.0,0.0,0.0,0.0,0.0,0.0,0.0,0.0,0.0,0.0,0.0,0.0,0.0,0.0,0.0,0.0,0.0,0.0,0.0,0.0,0.0,0.0,0.0,0.0,0.0,0.0,0.0,0.0,0.0,0.0,0.0,0.0,0.0,0.0,0.0,0.0,0.0,0.0,0.0,0.0,0.0,0.0,0.0,0.0,0.0,0.0,0.0,0.0,0.0,0.0,0.0,0.0,0.0,0.0,0.0,0.0,0.0,0.0,0.0,0.0,0.0,0.0,0.0,0.0,-2.3663,-2.7626,-3.1352,-3.3237,-3.3545,-3.1891,-3.0121,-2.7664,-2.4322,-2.0885,0.0,0.0,0.0,0.0,0.0,0.0,0.0,0.0,0.0,0.0,0.0,0.0,0.0,0.0,0.0,0.0,0.0,0.0,0.0,0.0,0.0,0.0,0.0,0.0,0.0,0.0,0.0,0.0,0.0,0.0,0.0,0.0,0.0,0.0,0.0,0.0,0.0,0.0,0.0,0.0,0.0,0.0,0.0,0.0,0.0,0.0,0.0,0.0,0.0,0.0,0.0,0.0,0.0,0.0,0.0,0.0,0.0,0.0,0.0,0.0,0.0,0.0,0.0,0.0,0.0,0.0,0.0,0.0,0.0,0.0,0.0,0.0,0.0,0.0,0.0,0.0,0.0,0.0,0.0,0.0,0.0,0.0,0.0,0.0,0.0,0.0,0.0,0.0,0.0,0.0,0.0,0.0,0.0,0.0,0.0,0.0,0.0,0.0,0.0,0.0,0.0,0.0,-2.7318,-3.0314,-3.266,-3.4045,-3.4276,-3.3006,-3.0737,-2.7895,-2.4322,-2.0504,0.0,0.0,0.0,0.0,0.0,0.0,0.0,0.0,0.0,0.0,0.0,0.0,0.0,0.0,0.0,0.0,0.0,0.0,0.0,0.0,0.0,0.0,0.0,0.0,0.0,0.0,0.0,0.0,0.0,0.0,0.0,0.0,0.0,0.0,0.0,0.0,0.0,0.0,0.0,0.0,0.0,0.0,0.0,0.0,0.0,0.0,0.0,0.0,0.0,0.0,0.0,0.0,0.0,0.0,0.0,0.0,0.0,0.0,0.0,0.0,0.0,0.0,0.0,0.0,0.0,0.0,0.0,0.0,0.0,0.0,0.0,0.0,0.0,0.0,0.0,0.0,0.0,0.0,0.0,0.0,0.0,0.0,0.0,0.0,0.0,0.0,0.0,0.0,0.0,0.0,0.0,0.0,0.0,0.0,0.0,0.0,0.0,0.0,0.0,0.0,0.0,0.0,-2.8192,-3.0962,-3.2699,-3.5084,-3.5545,-3.3122,-3.1308,-2.8544,-2.436,-1.9431,0.0,0.0,0.0,0.0,0.0,0.0,0.0,0.0,0.0,0.0,0.0,0.0,0.0,0.0,0.0,0.0,0.0,0.0,0.0,0.0,0.0,0.0,0.0,0.0,0.0,0.0,0.0,0.0,0.0,0.0,0.0,0.0,0.0,0.0,0.0,0.0,0.0,0.0,0.0,0.0,0.0,0.0,0.0,0.0,0.0,0.0,0.0,0.0,0.0,0.0,0.0,0.0,0.0,0.0,0.0,0.0,0.0,0.0,0.0,0.0,0.0,0.0,0.0,0.0,0.0,0.0,0.0,0.0,0.0,0.0,0.0,0.0,0.0,0.0,0.0,0.0,0.0,0.0,0.0,0.0,0.0,0.0,0.0,0.0,0.0,0.0,0.0,0.0,0.0,0.0,0.0,0.0,0.0,0.0,0.0,0.0,0.0,0.0,0.0,0.0,0.0,0.0,-2.8308,-3.1038,0.0,-3.4731,-3.5115,-3.3083,-3.1346,-2.8621,-2.436,0.0,0.0,0.0,0.0,0.0,0.0,0.0,0.0,0.0,0.0,0.0,0.0,0.0,0.0,0.0,0.0,0.0,0.0,0.0,0.0,0.0,0.0,0.0,0.0,0.0,0.0,0.0,0.0,0.0,0.0,0.0,0.0,0.0,0.0,0.0,0.0,0.0,0.0,0.0,0.0,0.0,0.0,0.0,0.0,0.0,0.0,0.0,0.0,0.0,0.0,0.0,0.0,0.0,0.0,0.0,0.0,0.0,0.0,0.0,0.0,0.0,0.0,0.0,0.0,0.0,0.0,0.0,0.0,0.0,0.0,0.0,0.0,0.0,0.0,0.0,0.0,0.0,0.0,0.0,0.0,0.0,0.0,0.0,0.0,0.0,0.0,0.0,0.0,0.0,0.0,0.0,0.0,0.0,0.0,0.0,0.0,0.0,0.0,0.0,0.0,0.0,0.0,-2.4654,-2.8308,-3.1038,0.0,-3.4692,-3.5077,-3.3083,-3.1346,-2.8621,-2.436,0.0,0.0,0.0,0.0,0.0,0.0,0.0,0.0,0.0,0.0,0.0,0.0,0.0,0.0,0.0,0.0,0.0,0.0,0.0,0.0,0.0,0.0,0.0,0.0,0.0,0.0,0.0,0.0,0.0,0.0,0.0,0.0,0.0,0.0,0.0,0.0,0.0,0.0,0.0,0.0,0.0,0.0,0.0,0.0,0.0,0.0,0.0,0.0,0.0,0.0,0.0,0.0,0.0,0.0,0.0,0.0,0.0,0.0,0.0,0.0,0.0,0.0,0.0,0.0,0.0,0.0,0.0,0.0,0.0,0.0,0.0,0.0,0.0,0.0,0.0,0.0,0.0,0.0,0.0,0.0,0.0,0.0,0.0,0.0,0.0,0.0,0.0,0.0,0.0,0.0,0.0,0.0,0.0,0.0,0.0,0.0,0.0,0.0,0.0,0.0,0.0,0.0,-2.4654,-2.8308,-3.1038,-3.2737,-3.5161,-3.5654,-3.3122,-3.1346,-2.8621,0.0,0.0,0.0,0.0,0.0,0.0,0.0,0.0,0.0,0.0,0.0,0.0,0.0,0.0,0.0,0.0,0.0,0.0,0.0,0.0,0.0,0.0,0.0,0.0,0.0,0.0,0.0,0.0,0.0,0.0,0.0,0.0,0.0,0.0,0.0,0.0,0.0,0.0,0.0,0.0,0.0,0.0,0.0,0.0,0.0,0.0,0.0,0.0,0.0,0.0,0.0,0.0,0.0,0.0,0.0,0.0,0.0,0.0,0.0,0.0,0.0,0.0,0.0,0.0,0.0,0.0,0.0,0.0,0.0,0.0,0.0,0.0,0.0,0.0,0.0,0.0,0.0,0.0,0.0,0.0,0.0,0.0,0.0,0.0,0.0,0.0,0.0,0.0,0.0,0.0,0.0,0.0,0.0,0.0,0.0,0.0,0.0,0.0,0.0,0.0,0.0,0.0,0.0,-2.4654,-2.8308,-3.1038,-3.2737,-3.4654,-3.5038,-3.3083,-3.1346,-2.8846,-2.5197,0.0,0.0,0.0,0.0,0.0,0.0,0.0,0.0,0.0,0.0,0.0,0.0,0.0,0.0,0.0,0.0,0.0,0.0,0.0,0.0,0.0,0.0,0.0,0.0,0.0,0.0,0.0,0.0,0.0,0.0,0.0,0.0,0.0,0.0,0.0,0.0,0.0,0.0,0.0,0.0,0.0,0.0,0.0,0.0,0.0,0.0,0.0,0.0,0.0,0.0,0.0,0.0,0.0,0.0,0.0,0.0,0.0,0.0,0.0,0.0,0.0,0.0,0.0,0.0,0.0,0.0,0.0,0.0,0.0,0.0,0.0,0.0,0.0,0.0,0.0,0.0,0.0,0.0,0.0,0.0,0.0,0.0,0.0,0.0,0.0,0.0,0.0,0.0,0.0,0.0,0.0,0.0,0.0,0.0,0.0,0.0,0.0,0.0,0.0,0.0,0.0,0.0,-2.4692,-2.8577,-3.1308,-3.2314,-3.3968,-3.4276,-3.2583,-3.0852,-2.8577,-2.55,0.0,0.0,0.0,0.0,0.0,0.0,0.0,0.0,0.0,0.0,0.0,0.0,0.0,0.0,0.0,0.0,0.0,0.0,0.0,0.0,0.0,0.0,0.0,0.0,0.0,0.0,0.0,0.0,0.0,0.0,0.0,0.0,0.0,0.0,0.0,0.0,0.0,0.0,0.0,0.0,0.0,0.0,0.0,0.0,0.0,0.0,0.0,0.0,0.0,0.0,0.0,0.0,0.0,0.0,0.0,0.0,0.0,0.0,0.0,0.0,0.0,0.0,0.0,0.0,0.0,0.0,0.0,0.0,0.0,0.0,0.0,0.0,0.0,0.0,0.0,0.0,0.0,0.0,0.0,0.0,0.0,0.0,0.0,0.0,0.0,0.0,0.0,0.0,0.0,0.0,0.0,0.0,0.0,0.0,0.0,0.0,0.0,0.0,0.0,0.0,0.0,0.0,-2.4769,-2.9038,-3.1698,-3.1698,-3.3199,-3.3513,-3.1852,-3.0083,-2.8005,-2.5462,0.0,0.0,0.0,0.0,0.0,0.0,0.0,0.0,0.0,0.0,0.0,0.0,0.0,0.0,0.0,0.0,0.0,0.0,0.0,0.0,0.0,0.0,0.0,0.0,0.0,0.0,0.0,0.0,0.0,0.0,0.0,0.0,0.0,0.0,0.0,0.0,0.0,0.0,0.0,0.0,0.0,0.0,0.0,0.0,0.0,0.0,0.0,0.0,0.0,0.0,0.0,0.0,0.0,0.0,0.0,0.0,0.0,0.0,0.0,0.0,-2.3076,-2.1636,0.0,0.0,0.0,0.0,0.0,0.0,0.0,0.0,0.0,0.0,0.0,0.0,0.0,0.0,0.0,0.0,0.0,0.0,0.0,0.0,0.0,0.0,0.0,0.0,0.0,0.0,0.0,0.0,0.0,0.0,0.0,0.0,0.0,0.0,0.0,0.0,0.0,0.0,0.0,0.0,-2.4846,-2.9038,-3.1698,-3.1698,-3.3199,-3.3513,-3.1852,-3.0083,-2.8005,-2.5462,-2.1162,0.0,0.0,0.0,0.0,0.0,0.0,0.0,0.0,0.0,0.0,0.0,0.0,0.0,0.0,0.0,0.0,0.0,0.0,0.0,0.0,0.0,0.0,0.0,0.0,0.0,0.0,0.0,0.0,0.0,0.0,0.0,0.0,0.0,0.0,0.0,0.0,0.0,0.0,0.0,0.0,0.0,0.0,0.0,0.0,0.0,0.0,0.0,0.0,0.0,0.0,0.0,0.0,0.0,0.0,0.0,0.0,0.0,0.0,0.0,-2.829,-2.6054,0.0,0.0,0.0,0.0,0.0,0.0,0.0,0.0,0.0,0.0,0.0,0.0,0.0,0.0,0.0,0.0,0.0,0.0,0.0,0.0,0.0,0.0,0.0,0.0,0.0,0.0,0.0,0.0,0.0,0.0,0.0,0.0,0.0,0.0,0.0,0.0,0.0,0.0,0.0,0.0,-2.4923,-2.9038,-3.1545,-3.1115,-3.2237,-3.2468,-3.1192,-2.9506,-2.7775,-2.6038,-2.1966,0.0,0.0,0.0,0.0,0.0,0.0,0.0,0.0,0.0,0.0,0.0,0.0,0.0,0.0,0.0,0.0,0.0,0.0,0.0,0.0,0.0,0.0,0.0,0.0,0.0,0.0,0.0,0.0,0.0,0.0,0.0,0.0,0.0,0.0,0.0,0.0,0.0,0.0,0.0,0.0,0.0,0.0,0.0,0.0,0.0,0.0,0.0,0.0,0.0,0.0,0.0,0.0,0.0,-3.5963,-3.7123,-3.7304,-3.8685,-3.9377,-3.9296,-3.5003,-3.226,-3.0709,-3.0475,0.0,0.0,0.0,0.0,0.0,0.0,0.0,0.0,0.0,0.0,0.0,0.0,0.0,0.0,0.0,0.0,0.0,0.0,0.0,0.0,0.0,0.0,-2.8852,-2.9159,-2.9627,-2.9088,-2.5736,0.0,0.0,0.0,0.0,0.0,0.0,0.0,0.0,0.0,0.0,0.0,-2.5231,-2.9269,-3.1583,-3.0731,-3.1545,-3.1737,-3.0692,-2.9236,-2.7852,-2.6659,-2.3043,-2.0427,0.0,0.0,0.0,0.0,0.0,0.0,0.0,0.0,0.0,0.0,0.0,0.0,0.0,0.0,0.0,0.0,0.0,0.0,0.0,0.0,0.0,0.0,0.0,0.0,0.0,0.0,0.0,0.0,0.0,0.0,0.0,0.0,-2.1051,-2.1364,0.0,0.0,0.0,0.0,0.0,0.0,0.0,0.0,0.0,0.0,0.0,0.0,0.0,-3.3225,-3.4955,-3.7577,-3.9218,-3.9915,-4.1031,-4.1907,-4.2585,-4.2812,-4.3292,-4.3915,-4.3245,0.0,-3.5985,-3.4464,0.0,0.0,0.0,0.0,0.0,0.0,0.0,0.0,0.0,0.0,0.0,0.0,0.0,0.0,0.0,0.0,0.0,0.0,0.0,0.0,0.0,0.0,-3.2622,-3.4154,-3.4007,-3.3583,-3.3769,-3.0814,-2.7626,-2.6082,-2.4962,-2.3538,0.0,0.0,0.0,0.0,0.0,0.0,-2.6197,-3.0121,-3.2429,-3.1621,-3.2929,-3.3237,-3.166,-3.0615,-2.9077,-2.6736,-2.4702,-2.2547,-2.0235,-1.8969,0.0,0.0,0.0,0.0,0.0,0.0,0.0,0.0,0.0,0.0,0.0,0.0,0.0,0.0,0.0,0.0,0.0,0.0,0.0,0.0,0.0,0.0,0.0,0.0,0.0,0.0,0.0,0.0,0.0,-2.1002,-2.2865,-2.3928,-2.4314,-2.4512,0.0,0.0,0.0,0.0,0.0,0.0,0.0,0.0,0.0,-3.4355,-3.7013,-3.901,-4.0306,-4.3398,-4.5116,-4.5459,-4.7231,-4.8257,-4.8613,-4.9019,-4.9416,-4.9766,-4.9766,-4.7912,-4.4585,-4.0545,-3.7566,-3.5294,0.0,0.0,0.0,0.0,-3.2077,-3.2891,-3.4199,-3.4038,-3.3154,-3.2423,0.0,0.0,0.0,0.0,0.0,0.0,0.0,-2.9462,-3.1891,-3.3776,-3.5353,-3.6622,-3.6622,-3.643,-3.6815,-3.5045,-3.2737,-3.0544,-2.9077,-2.7346,-2.4812,-2.2586,0.0,0.0,0.0,-2.5543,-2.7736,-3.0467,-3.2275,-3.2352,-3.3045,-3.316,-3.2429,-3.1154,-2.9923,-2.8808,-2.6236,-2.4274,-2.3154,-2.0927,-1.8734,0.0,0.0,0.0,0.0,0.0,0.0,0.0,0.0,0.0,0.0,0.0,0.0,0.0,0.0,0.0,0.0,0.0,0.0,0.0,0.0,0.0,0.0,0.0,0.0,0.0,0.0,0.0,0.0,-2.3606,-2.5267,-2.6805,-2.7149,-2.7387,0.0,0.0,0.0,0.0,0.0,0.0,-3.4334,-3.6202,-3.7836,-3.9163,-4.1857,-4.3852,-4.499,-4.8005,-4.9645,-4.9832,-5.1874,-5.2857,-5.2898,-5.341,-5.3641,-5.3636,-5.363,-5.288,-5.1281,-4.6255,-4.2615,-4.0063,-3.8073,-3.6599,-3.5726,-3.672,-3.7385,-3.7962,-3.9431,-3.8969,-3.7731,-3.75,-3.5115,-3.2308,-3.2077,0.0,0.0,0.0,0.0,-3.3699,-3.5398,-3.6892,-3.8231,-3.9084,-3.9315,-3.9238,-3.9008,-3.8277,-3.6853,-3.4083,-3.2192,-3.0308,-2.7962,-2.562,0.0,0.0,0.0,-2.7121,-2.9473,-3.1275,-3.2583,-3.316,-3.343,-3.3391,-3.2929,-3.1775,-3.0769,-3.0115,-2.75,-2.5769,-2.5308,-2.25,-2.0119,-1.8392,0.0,0.0,0.0,0.0,0.0,0.0,0.0,0.0,0.0,0.0,0.0,0.0,0.0,0.0,0.0,0.0,0.0,0.0,0.0,0.0,0.0,0.0,0.0,0.0,0.0,0.0,0.0,0.0,0.0,-3.0446,-3.1258,0.0,0.0,0.0,0.0,-3.5351,-3.5703,-3.7226,-4.0546,-4.0815,-4.1981,-4.4517,-4.5521,-4.6809,-4.8538,-5.0342,-5.1709,-5.2521,-5.3396,-5.3838,-5.3841,-5.3808,-5.3758,-5.3691,-5.3701,-5.3631,-5.3249,-5.0453,-4.7805,-4.526,-4.2703,-4.2073,-4.2601,-4.1771,-4.2508,-4.397,-4.4902,-4.4633,-4.3739,-4.297,-4.0392,-3.7469,-3.6615,-3.5808,0.0,0.0,-3.6969,-3.8084,-3.9746,-4.0854,-4.1769,-4.2624,-4.2854,-4.2624,-4.1777,-4.0931,-3.9323,-3.6,-3.3968,-3.2237,-3.05,0.0,-2.7934,-2.8742,-2.8896,-2.955,-3.1352,-3.3045,-3.409,-3.4129,-3.4891,-3.4692,-3.3045,-3.2814,-3.1737,-2.9319,-2.828,-2.7044,-2.5385,-2.362,-2.1889,-2.0192,-1.7657,0.0,0.0,0.0,0.0,0.0,0.0,0.0,0.0,0.0,0.0,0.0,0.0,0.0,0.0,0.0,0.0,0.0,0.0,0.0,0.0,0.0,0.0,0.0,0.0,0.0,0.0,0.0,0.0,-3.3922,-3.5791,0.0,-3.7492,-3.7538,-3.8476,-4.0781,-4.1484,-4.2812,-4.5195,-4.6366,-4.7614,-4.9052,-5.0397,-5.1399,-5.2069,-5.3205,-5.3947,-5.4333,-5.5106,-5.5477,-5.5443,-5.5371,-5.5308,-5.5255,-5.513,-5.4785,-5.418,-5.3194,-5.1014,-4.8062,-4.6025,-4.5063,-4.4823,-4.5026,-4.547,-4.6086,-4.6932,-4.6663,-4.5663,-4.3739,-4.1893,-4.0277,-3.9392,-3.8931,-3.8777,-3.9046,-3.9777,-4.0585,-4.12,-4.197,-4.2701,-4.3047,-4.3085,-4.2854,-4.2,-4.07,-3.9361,-3.8161,-3.7007,-3.5815,-3.4654,-3.3538,-3.2891,-3.3199,-3.2737,-3.2814,-3.4,-3.4654,-3.5045,-3.5045,-3.5308,-3.5,-3.3853,-3.2737,-3.1506,-3.0044,-2.8121,-2.6774,-2.6154,-2.4005,-2.2274,-2.1077,-1.8581,-1.658,0.0,0.0,0.0,0.0,0.0,0.0,0.0,0.0,0.0,0.0,0.0,0.0,0.0,0.0,0.0,0.0,0.0,0.0,0.0,0.0,0.0,0.0,0.0,0.0,0.0,0.0,-3.5365,-3.7406,-3.9666,-4.131,-4.1947,-4.2304,-4.3203,-4.4883,-4.5547,-4.6641,-4.8398,-4.957,-5.0585,-5.1358,-5.2698,-5.3579,-5.3935,-5.4713,-5.5301,-5.566,-5.6209,-5.6394,-5.6368,-5.6312,-5.6256,-5.6197,-5.6057,-5.5653,-5.51,-5.4727,-5.327,-5.1169,-4.968,-4.8754,-4.8277,-4.8519,-4.8577,-4.8577,-4.8548,-4.8202,-4.7432,-4.5432,-4.4393,-4.3816,-4.3239,-4.3047,-4.3008,-4.2739,-4.3085,-4.3462,-4.3162,-4.3508,-4.3932,-4.3932,-4.3932,-4.3624,-4.2508,-4.1123,-3.9969,-3.94,-3.8354,-3.7469,-3.7199,-3.6462,-3.6,-3.6308,-3.5584,-3.5353,-3.6231,-3.6077,-3.5885,-3.5885,-3.5654,-3.5038,-3.3853,-3.2506,-3.1198,-3.0044,-2.7852,-2.6621,-2.6621,-2.4432,-2.2816,-2.1966,-1.9431,-1.716,-1.5192,0.0,0.0,0.0,0.0,0.0,0.0,0.0,0.0,0.0,0.0,0.0,0.0,0.0,0.0,0.0,0.0,0.0,0.0,0.0,0.0,0.0,0.0,0.0,-3.078,-3.4679,-3.8308,-4.0894,-4.2842,-4.4601,-4.6248,-4.5664,-4.5898,-4.7578,-4.7656,-4.8398,-5.0117,-5.0195,-5.0585,-5.1359,-5.2232,-5.3116,-5.4066,-5.4916,-5.5782,-5.6699,-5.6621,-5.6579,-5.6567,-5.6503,-5.651,-5.6468,-5.6314,-5.6239,-5.616,-5.5157,-5.476,-5.4628,-5.361,-5.3213,-5.3097,-5.2241,-5.1933,-5.1664,-5.0019,-4.9442,-4.925,-4.8432,-4.8125,-4.8086,-4.8086,-4.8048,-4.7894,-4.7086,-4.6846,-4.6624,-4.5825,-4.5594,-4.5556,-4.5594,-4.5594,-4.5133,-4.347,-4.2431,-4.1316,-3.9662,-3.7969,-3.7038,-3.7892,-3.7353,-3.7123,-3.7969,-3.7353,0.0,-3.793,-3.7315,-3.6769,-3.6692,-3.6,-3.4808,-3.3045,-3.216,-3.0968,-2.9165,-2.7505,-2.6582,-2.6544,-2.4971,-2.3667,-2.2778,-2.0281,-1.7776,-1.5269,0.0,0.0,0.0,0.0,0.0,0.0,0.0,0.0,0.0,0.0,0.0,0.0,0.0,0.0,0.0,0.0,0.0,0.0,0.0,0.0,0.0,-3.1133,-3.3125,-3.3594,-3.789,-4.1718,-4.3671,-4.7109,-4.9257,-4.914,-4.9453,-4.9844,-5.0312,-4.9219,-4.9023,-5.0156,-5.0195,-5.0585,-5.1358,-5.3364,-5.4867,-5.5811,-5.7175,-5.8046,-5.8419,-5.8432,-5.8475,-5.8474,-5.8432,-5.8386,-5.833,-5.7587,-5.7268,-5.7142,-5.6164,-5.5811,-5.5637,-5.4033,-5.3439,-5.34,-5.3168,-5.2657,-5.1953,-5.0876,-5.0032,-4.9418,-4.919,-4.8653,-4.8009,-4.7432,-4.7231,-4.7048,-4.6201,-4.5509,-4.5124,-4.5518,-4.5133,-4.4816,-4.5441,-4.5594,-4.5133,-4.347,-4.2431,-4.147,-4.04,-3.9323,-3.8661,-3.8892,-3.9246,-3.9554,-3.9785,-3.9631,0.0,-3.8977,-3.8738,-3.8084,-3.6846,-3.65,-3.5423,-3.3083,-3.216,-3.0698,-2.8396,-2.7198,-2.6308,-2.5692,-2.4663,-2.3394,-2.1889,-1.9969,-1.8357,0.0,0.0,0.0,0.0,0.0,0.0,0.0,0.0,0.0,0.0,0.0,0.0,0.0,0.0,0.0,0.0,0.0,0.0,0.0,0.0,0.0,0.0,-3.4961,-3.7383,-3.8828,-4.1601,-4.4141,-4.5898,-4.9219,-5.1211,-5.0742,-5.1445,-5.1797,-5.1445,-5.0508,-5.0156,-5.0664,-5.0703,-5.1093,-5.1909,-5.4039,-5.5589,-5.6532,-5.817,-5.9037,-5.913,-5.9179,-5.9219,-5.9219,-5.9219,-5.8984,-5.8588,-5.7983,-5.749,-5.7076,-5.6515,-5.6294,-5.6169,0.0,0.0,0.0,0.0,-5.3546,-5.2647,-5.1777,-5.1091,-5.051,-5.0165,-4.9661,-4.9048,-4.8202,-4.7702,-4.7163,-4.5941,-4.4979,-4.4355,-4.4509,-4.4432,-4.4432,-4.4932,-4.5325,-4.5248,-4.3893,-4.2931,-4.2085,-4.12,-4.0662,0.0,-3.9861,-4.0208,-4.0516,-4.0516,-4.0516,-4.0323,-3.9861,-3.9515,-3.8892,-3.7892,-3.7161,-3.5962,-3.416,-3.2583,0.0,0.0,0.0,-2.6736,-2.5885,-2.5043,0.0,0.0,0.0,0.0,0.0,0.0,0.0,0.0,-1.8269,-1.8734,0.0,0.0,0.0,0.0,0.0,0.0,0.0,0.0,0.0,0.0,0.0,0.0,0.0,0.0,0.0,0.0,-3.8125,-4.1445,-4.4687,-4.5391,-4.6172,-4.7695,-5.0078,-5.1523,-5.1406,-5.2109,-5.2226,-5.1445,-5.1328,-5.1289,-5.1406,-5.1484,0.0,0.0,0.0,-5.5964,-5.6869,-5.8543,-5.9405,-5.949,-5.9492,-5.9492,-5.9492,-5.9492,-5.9023,-5.8162,-5.8037,-5.7441,-5.6651,-5.6472,-5.6422,-5.6416,-5.6251,-5.6212,-5.6135,-5.5244,-5.4431,-5.3648,-5.2653,0.0,0.0,-5.1099,-5.0782,-5.0548,-4.9576,-4.872,-4.7758,-4.6103,-4.4979,-4.4162,-4.3547,-4.3855,-4.4316,-4.4432,-4.5056,-4.5364,-4.447,-4.3739,-4.297,-4.2115,-4.1962,-4.1662,-4.0785,-4.0554,-4.0516,-4.0516,-4.0439,-4.04,-4.0477,-3.99,-3.94,-3.9323,0.0,0.0,-3.5577,-3.3423,-3.1692,-3.0615,-2.8967,-2.7659,-2.6774,-2.5923,-2.512,-2.4399,-2.3548,-2.3124,-2.324,-2.4086,-2.501,-2.5808,-2.2615,-2.2004,0.0,0.0,0.0,0.0,0.0,0.0,0.0,0.0,0.0,0.0,0.0,0.0,0.0,0.0,0.0,-3.8281,-4.1172,-4.3672,-4.5742,-4.7851,-4.9336,-4.9648,-5.1328,-5.2187,-5.1484,-5.1562,-5.1562,-5.1406,-5.0781,-5.0703,-5.1367,-5.207,-5.2851,-5.3711,-5.6093,-5.7812,-5.8671,-6.0351,-6.121,-6.1211,-6.1211,0.0,-6.1211,-6.1211,-6.0742,-5.9883,-5.9218,-5.8436,-5.7577,-5.6873,-5.656,-5.6558,-5.6422,-5.6344,-5.6266,-5.5454,-5.5028,-5.4671,-5.303,-5.2422,-5.2185,-5.1257,-5.092,-5.0579,-4.9001,-4.839,0.0,-4.6163,-4.5004,-4.4432,-4.4979,-4.4701,-4.447,-4.5171,-4.5479,-4.5364,-4.447,-4.4162,-4.3816,-4.3008,-4.2854,-4.2585,-4.17,-4.0969,-4.0516,-4.0516,-3.9938,-3.9785,-4.0439,-4.0362,-4.0015,-3.9361,-3.9015,-3.7892,-3.5692,-3.5038,-3.3808,-3.1583,-2.9813,-2.8511,-2.7659,-2.6813,-2.6274,-2.612,-2.5269,-2.5154,-2.589,-2.6741,-2.7928,-2.9385,-2.7351,-2.6933,0.0,0.0,0.0,0.0,0.0,0.0,0.0,0.0,0.0,0.0,0.0,-3.0898,-3.3047,0.0,-3.7656,-4.0664,-4.332,-4.5625,-4.7344,-4.9805,-5.1133,-5.0312,-5.168,-5.2344,-5.1484,-5.1797,-5.1875,-5.1445,-5.1445,-5.1641,-5.2031,-5.3281,-5.4414,-5.5273,-5.7422,-5.8945,-5.9805,-6.1055,-6.1719,-6.1719,-6.1719,-6.1484,-6.1055,-6.1055,-6.0351,-5.914,-5.8711,-5.8047,-5.7226,-5.6797,-5.6601,-5.6601,-5.6512,-5.6504,-5.6465,-5.6037,-5.5881,-5.5645,-5.3867,-5.3166,-5.2883,-5.1546,-5.1036,-5.0752,-4.9433,-4.8706,-4.8044,-4.6715,-4.5671,-4.494,-4.494,-4.494,-4.494,-4.494,-4.5287,-4.5479,-4.5056,-4.494,-4.4816,-4.4432,-4.4355,-4.4085,-4.3201,-4.2354,-4.1516,-4.0631,-3.9823,-3.9438,-3.9861,-3.99,-3.9746,-3.9361,-3.9284,-3.8777,-3.7507,-3.6231,-3.4423,-3.1852,-3.0891,-2.9813,-2.8549,-2.8082,-2.7659,-2.7274,-2.6813,-2.7236,-2.85,-2.8929,-3.0237,-3.2275,-3.1429,-3.105,0.0,0.0,0.0,0.0,0.0,0.0,0.0,0.0,-2.8086,-3.125,-3.2734,-3.418,-3.6562,-3.8281,-4.0117,-4.2539,-4.4961,-4.7109,-4.8672,-5.0937,-5.1953,-5.0586,-5.1758,-5.2344,-5.1484,-5.2031,-5.2226,-5.168,-5.2461,-5.3086,-5.3437,-5.5117,-5.6445,-5.7305,-5.8867,-6.0,-6.0664,-6.1367,-6.1719,-6.1719,-6.1719,-6.125,-6.039,-6.039,-5.9492,-5.789,-5.7734,-5.7265,-5.6601,-5.6601,-5.6601,-5.6601,-5.6601,-5.6601,-5.6601,-5.6601,-5.6484,-5.6133,-5.4567,-5.3811,-5.3318,-5.1768,-5.1175,-5.0996,-5.0096,-4.9243,-4.8412,-4.753,-4.6723,-4.5954,-4.5068,-4.5376,-4.5684,-4.4782,-4.512,-4.562,-4.5612,-4.5603,-4.5594,-4.5594,-4.5594,-4.5325,-4.4432,-4.3778,-4.2739,-4.1016,-3.9938,-3.9284,-3.9284,-3.9169,-3.913,-3.9284,-3.9284,-3.9284,-3.9284,-3.7123,-3.4808,-3.2583,-3.2122,-3.1237,-2.9665,-2.9434,-2.9044,-2.839,-2.839,-2.9198,-3.0885,-3.0885,-3.2122,-3.443,-3.443,-3.4083,-2.3398,-2.457,-2.6484,-2.7383,-2.8828,-3.0273,0.0,0.0,-3.3086,-3.5039,-3.6758,-3.8437,-4.0273,-4.1367,-4.2578,-4.4414,-4.625,-4.7773,-4.875,-5.043,-5.1484,-5.1289,-5.2109,-5.2344,-5.1484,-5.1484,-5.1836,-5.25,-5.3359,-5.4531,-5.6094,-5.7812,-5.914,-5.9961,-6.0898,-6.1445,-6.1562,-6.164,-6.1719,-6.1719,-6.1719,-6.125,-6.039,-6.039,-5.9492,-5.7851,-5.707,-5.668,-5.6601,-5.6601,-5.6601,-5.6601,-5.6601,-5.6601,-5.6601,-5.6601,-5.6094,-5.5312,-5.4335,-5.3469,-5.2676,-5.1687,-5.1313,-5.1122,-5.0233,-4.9824,-4.9437,-4.8565,-4.8198,-4.7874,-4.7016,-4.6861,-4.6699,-4.585,-4.5658,-4.5703,-4.5701,-4.562,-4.5594,-4.5594,-4.5594,-4.5325,-4.4432,-4.4239,-4.3585,-4.1931,-4.0315,-3.9284,-3.9284,-3.8623,-3.843,-3.9207,-3.9284,-3.9284,-3.9284,-3.7623,-3.6154,-3.5154,-3.3622,-3.2352,-3.1468,-3.0654,-3.0192,-3.0115,-3.0115,-3.0962,-3.2622,-3.2622,-3.3545,-3.5346,-3.5346,-3.5308,-2.5898,-2.6914,-2.8828,0.0,-3.2226,-3.4219,-3.5625,-3.6953,-3.8437,-4.0117,-4.1445,-4.2695,-4.3945,-4.4453,-4.5078,0.0,-4.7969,-4.9258,-4.9609,-5.1523,-5.2344,-5.0898,-5.1445,-5.1797,-5.1445,-5.0976,-5.125,-5.2617,-5.3984,-5.5312,-5.6523,-5.8711,-6.0039,-6.039,-6.125,-6.1719,-6.1719,-6.1719,-6.1719,-6.168,-6.1172,-6.0508,-5.9687,-5.918,-5.8281,-5.7109,-5.6758,-5.6601,-5.6601,-5.6601,-5.6601,-5.6601,-5.6601,-5.6601,-5.6601,-5.6601,-5.6055,-5.5195,-5.4297,-5.3436,-5.2575,-5.1674,-5.1398,-5.1274,-5.0945,-5.0717,-5.0552,-5.0162,-5.0013,-4.9631,-4.8272,-4.7922,-4.7561,-4.6189,-4.5809,-4.5733,-4.5712,-4.5662,-4.5594,-4.5594,-4.5594,-4.5479,-4.5133,-4.5056,-4.447,-4.2816,-4.07,-3.913,-3.8623,-3.7777,-3.7777,-3.9169,-3.9284,-3.9284,-3.9284,-3.8161,-3.6892,-3.5577,-3.4353,-3.3276,-3.2429,-3.2045,-3.1852,-3.1852,-3.1852,-3.2468,-3.3667,-3.3667,-3.4276,-3.55,-3.55,-3.55,-2.8281,-2.9492,0.0,-3.3164,-3.5351,-3.7539,-3.9258,-4.0625,-4.1992,-4.3711,-4.4375,-4.4961,-4.6094,-4.6094,-4.6328,-4.7422,-4.9062,-5.0195,-5.0195,-5.2187,-5.2851,-5.0781,-5.0625,-5.0781,-5.1055,-5.0742,-5.1211,-5.293,-5.4883,-5.6406,-5.7265,-5.9492,-6.0742,-6.0742,-6.1367,-6.1719,-6.1719,-6.1719,-6.1719,-6.168,-6.082,-5.9961,-5.914,-5.8047,-5.7187,-5.6601,-5.6601,-5.6601,-5.6601,-5.6601,-5.6601,-5.6601,-5.6601,-5.6601,-5.6601,-5.6601,-5.6055,-5.5195,-5.457,-5.3633,-5.2617,-5.1953,-5.1601,-5.1406,-5.1402,-5.131,-5.1247,-5.1263,-5.1218,-5.0824,-4.9305,-4.8721,-4.8163,-4.6674,-4.6042,-4.5829,-4.574,-4.5657,-4.5594,-4.5594,-4.5594,-4.5594,-4.5594,-4.5594,-4.5017,-4.3355,-4.1316,-3.9508,-3.8161,-3.7238,-3.7276,-3.8777,-3.9169,-3.94,-3.9631,-3.8854,-3.7853,-3.6615,-3.5507,-3.4622,-3.3968,-3.3737,-3.3622,-3.3622,-3.3622,-3.4045,-3.4891,-3.4891,-3.5353,-3.6192,-3.6192,-3.6192,0.0,0.0,-3.4961,-3.6719,-3.8476,-4.0234,-4.1914,-4.2344,-4.2851,-4.4609,-4.4297,-4.4258,-4.5976,-4.5625,-4.5586,-4.7305,-4.9062,-5.0195,-5.0195,-5.168,-5.2383,-5.1484,-4.9961,-4.9297,0.0,-5.0937,-5.2109,-5.3828,-5.6367,-5.8203,-5.9062,-6.0742,-6.164,-6.164,-6.168,-6.1719,-6.1719,-6.1719,-6.1719,-6.168,-6.082,-5.9961,-5.914,-5.7422,-5.664,-5.6601,-5.6601,-5.6601,-5.6601,-5.6601,-5.6601,-5.6601,-5.6601,-5.6601,-5.6601,-5.6601,-5.6055,-5.5312,-5.5273,-5.4141,-5.2695,-5.2656,-5.2109,-5.1406,-5.1405,-5.1399,-5.1387,-5.1377,-5.1355,-5.1099,-5.0202,-4.9343,-4.8473,-4.7568,-4.6625,-4.5891,-4.5827,-4.568,-4.5594,-4.5594,-4.5594,-4.5594,-4.5594,-4.5594,-4.5017,-4.3355,-4.2316,-4.0816,-3.8315,-3.7238,-3.7038,-3.793,-3.8815,-3.9631,-4.04,-3.9708,-3.9246,-3.9207,-3.7584,-3.6615,-3.6577,-3.5846,-3.5423,-3.5423,-3.5423,-3.5808,-3.6615,-3.6615,-3.7084,-3.793,-3.793,-3.793,-3.2812,0.0,-3.7695,-3.9453,-4.1601,-4.3437,-4.3984,-4.5469,-4.6562,-4.5976,-4.5625,-4.5586,-4.6172,-4.6055,-4.6445,-4.8164,-5.0351,-5.1875,-5.1875,-5.2851,-5.3008,-5.1562,-5.043,0.0,0.0,0.0,0.0,-5.2109,-5.4141,-5.5937,-5.7383,-5.9101,-6.0039,-6.0039,-6.0039,-6.0312,-6.082,-6.0859,-6.1133,-6.168,-6.082,-5.9961,-5.918,-5.8594,-5.8008,-5.7461,-5.7461,-5.7148,-5.6601,-5.6601,-5.6601,-5.6601,-5.6601,-5.6601,-5.6601,-5.6601,-5.6406,-5.6094,-5.5508,-5.4141,-5.2695,-5.2695,-5.2109,-5.1406,-5.1406,-5.1405,-5.1404,-5.1403,-5.1362,-5.1164,-5.0344,-4.9485,-4.8581,-4.7691,-4.6676,-4.5896,-4.5866,-4.5719,-4.5594,-4.5594,-4.5594,-4.5594,-4.5594,-4.5594,-4.4825,-4.2585,-4.0546,-3.8777,-3.7315,-3.6885,-3.7038,-3.7892,-3.8777,-3.9631,-4.0439,-3.9746,-3.9284,-3.9284,-3.82,-3.7546,-3.7546,-3.7315,-3.7161,-3.7161,-3.7161,-3.7276,-3.7546,-3.7546,-3.77,-3.8007,-3.8007,-3.8007,-3.5469,-3.7969,-4.0312,-4.1758,-4.3555,-4.5078,-4.5391,-4.6523,-4.7109,-4.5664,-4.4648,-4.4101,-4.4414,-4.4492,-4.5234,-4.7578,-5.0351,-5.2344,-5.2656,-5.3711,-5.3945,-5.25,-5.1601,-5.0742,0.0,0.0,0.0,-5.125,-5.3281,-5.5078,-5.6523,-5.8242,-5.9219,-5.9219,-5.9219,-5.9609,-6.039,-6.039,-6.0664,-6.1211,-6.0664,-5.9961,-5.9219,-5.9219,-5.8711,-5.789,-5.789,-5.7422,-5.6601,-5.6601,-5.6601,-5.6601,-5.6601,-5.6601,-5.6601,-5.6601,-5.6601,-5.6523,-5.5976,-5.4844,-5.3633,-5.3633,-5.2812,-5.1875,-5.1875,-5.1641,-5.1406,-5.1406,-5.1406,-5.1289,-5.0742,-5.0,-4.9218,-4.8577,-4.7387,-4.639,-4.6413,-4.6007,-4.5687,-4.5687,-4.5687,-4.5687,-4.5687,-4.5417,-4.4569,-4.2634,-4.0405,-3.8425,-3.6899,-3.6962,-3.7392,-3.793,-3.8777,-3.9631,-4.0439,-4.0015,-3.9746,-3.9746,-3.92,-3.8892,-3.8892,-3.8892,-3.8892,-3.8892,-3.8892,-3.8892,-3.8892,-3.8892,-3.8892,-3.8892,-3.8892,-3.8892,-3.8437,-4.0781,-4.293,-4.3711,-4.4531,-4.5391,-4.6094,-4.5586,-4.4726,-4.3711,-4.1484,-3.9961,-4.0859,0.0,-4.2187,-4.5664,-4.9141,-5.1719,-5.2656,-5.4219,-5.5,0.0,0.0,0.0,0.0,0.0,0.0,-5.1406,0.0,-5.5586,-5.6484,-5.8125,-5.9101,-5.914,-5.914,-5.9531,-6.039,-6.043,-6.0469,-6.0469,-6.0469,-6.0078,-5.9336,-5.9336,-5.8828,-5.7969,-5.7969,-5.7461,-5.6601,-5.6601,-5.6601,-5.6601,-5.6601,-5.6601,-5.6601,-5.6601,-5.6601,-5.6601,-5.6601,-5.6015,-5.5312,-5.5312,-5.4101,-5.2695,-5.2695,-5.2109,-5.1406,-5.1406,-5.1406,-5.1406,-5.1406,-5.0781,-5.0195,-5.0105,-4.866,-4.7303,-4.731,-4.6523,-4.5821,-4.5821,-4.5821,-4.5821,-4.5821,-4.5169,-4.4357,-4.3492,-4.1957,-3.9902,-3.7196,-3.756,-3.8099,-3.8099,-3.883,-3.9677,-4.0454,-4.0531,-4.0531,-4.0531,-4.0523,-4.0523,-4.0523,-4.0516,-4.0516,-4.0516,-4.0516,-4.0516,-4.0516,-4.0516,-4.0516,-4.0516,-4.0516,-4.0516,-4.2891,-4.5273,-4.7148,-4.6719,-4.7266,-4.7461,-4.5703,-4.5156,-4.4219,-4.1445,-3.8789,-3.7266,-3.8125,-3.8828,0.0,-4.4687,-4.875,0.0,-5.3437,-5.4609,0.0,-5.5,0.0,-5.332,-5.2461,-5.2187,0.0,0.0,-5.3008,-5.4023,-5.5547,-5.668,-5.7578,-5.8203,-5.8242,-5.8945,-6.039,-6.1055,-6.1367,-6.1367,-6.1367,-6.125,-6.1055,-6.1055,-6.0273,-5.8867,-5.8867,-5.8008,-5.6601,-5.6601,-5.6601,-5.6601,-5.6601,-5.6601,-5.6601,-5.6601,-5.6601,-5.6601,-5.6601,-5.6015,-5.5312,-5.5312,-5.4101,-5.2695,-5.2695,-5.2109,-5.1406,-5.1406,-5.1406,-5.1406,-5.1406,-5.0781,-5.0195,-5.0111,-4.8683,-4.7357,-4.7359,-4.6589,-4.5862,-4.5862,-4.5862,-4.5862,-4.5862,-4.5706,-4.5284,-4.4472,-4.3967,-4.2485,-3.9206,-3.8987,-3.9103,-3.9103,-3.9837,-4.041,-4.0642,-4.0642,-4.0642,-4.0642,-4.0654,-4.0626,-4.0566,-4.0569,-4.0539,-4.0516,-4.0516,-4.0516,-4.0516,-4.0516,-4.0516,-4.0516,-4.0516,-4.0516,-4.5195,-4.7187,-4.8672,-4.7812,-4.7695,-4.7187,-4.4922,-4.3555,-4.1992,-3.9297,-3.6406,0.0,-3.543,-3.6601,0.0,0.0,0.0,0.0,-5.2617,-5.3594,-5.4297,0.0,-5.4297,0.0,-5.332,-5.3633,-5.3828,0.0,-5.3476,-5.3867,-5.5234,-5.6133,-5.6992,-5.7851,-5.789,-5.8711,-6.039,-6.125,-6.1719,-6.1719,-6.1719,-6.1719,-6.1719,-6.1719,-6.0781,-5.9219,-5.9219,-5.8203,-5.6601,-5.6601,-5.6601,-5.6601,-5.6601,-5.6601,-5.6601,-5.6601,-5.6601,-5.6601,-5.6601,-5.6289,-5.5859,-5.5859,-5.4961,-5.3828,-5.3828,-5.2969,-5.1953,-5.1953,-5.1719,-5.1406,-5.1406,-5.1055,-5.0703,-5.0662,-4.9323,-4.8014,-4.7996,-4.6986,-4.6013,-4.6013,-4.6013,-4.6013,-4.6013,-4.6013,-4.5627,-4.4419,-4.4224,-4.3229,-4.0507,-4.0422,-4.0514,-4.017,-4.047,-4.0736,-4.0736,-4.0736,-4.0736,-4.0736,-4.0738,-4.0724,-4.0662,-4.0647,-4.0583,-4.0516,-4.0516,-4.0516,-4.0516,-4.0516,-4.0516,-4.0516,-4.0516,-4.0516,-4.6445,-4.7891,-4.8984,-4.8008,-4.7031,-4.5781,-4.3828,-4.1289,-3.8867,-3.6992,0.0,-3.1953,-3.2891,-3.4492,-3.6836,-4.043,0.0,-4.9297,-5.0859,-5.1992,-5.2969,-5.375,-5.3945,-5.4062,-5.4141,-5.4961,-5.5469,-5.5469,-5.4765,-5.4687,-5.543,-5.6172,-5.7031,-5.8047,-5.8281,-5.9101,-6.0547,-6.1328,-6.1719,-6.1719,-6.1719,-6.1719,-6.1719,-6.1719,-6.0781,-5.9219,-5.9219,-5.8203,-5.6601,-5.6601,-5.6601,-5.6601,-5.6601,-5.6601,-5.6601,-5.6601,-5.6601,-5.6601,-5.6601,-5.6601,-5.6601,-5.6601,-5.6015,-5.5312,-5.5312,-5.4062,-5.2695,-5.2695,-5.207,-5.1406,-5.1406,-5.1406,-5.1406,-5.1405,-5.0073,-4.8815,-4.8807,-4.7426,-4.6204,-4.6204,-4.6204,-4.6204,-4.6204,-4.6204,-4.5657,-4.4016,-4.3782,-4.3197,-4.1558,-4.1704,-4.17,-4.1002,-4.0878,-4.0836,-4.0836,-4.0836,-4.0836,-4.0836,-4.0835,-4.0815,-4.0726,-4.07,-4.0661,-4.0546,-4.0546,-4.0546,-4.0546,-4.0546,-4.0546,-4.0546,-4.0539,-4.0539,-4.8398,-4.9687,-5.0586,-4.9062,-4.7461,-4.5469,-4.2344,-3.9062,0.0,0.0,-3.0898,-2.9453,-3.1055,-3.2695,-3.5234,-3.9453,0.0,0.0,0.0,0.0,-5.2773,0.0,0.0,0.0,0.0,-5.5859,0.0,0.0,-5.6211,-5.6211,-5.6367,-5.6523,-5.7344,-5.8906,-6.0312,-6.1172,-6.1484,-6.1601,-6.1719,-6.1719,-6.1719,-6.1719,-6.1719,-6.1719,-6.0781,-5.9219,-5.9219,0.0,-5.6601,-5.6601,-5.6601,-5.6601,-5.6601,-5.6601,-5.6601,-5.6601,-5.6601,-5.6601,-5.6601,-5.6601,-5.6601,-5.6601,-5.6015,-5.5312,-5.5312,-5.4062,-5.2695,-5.2695,-5.207,-5.1406,-5.1406,-5.1406,-5.1406,-5.1406,-5.0117,-4.8867,-4.8866,-4.7499,-4.6287,-4.6287,-4.6287,-4.6287,-4.6287,-4.6287,-4.5936,-4.492,-4.4764,-4.4373,-4.3358,-4.204,-4.1139,-4.0983,-4.0983,-4.0981,-4.0981,-4.0981,-4.0981,-4.0981,-4.0955,-4.0949,-4.0887,-4.0829,-4.0754,-4.0662,-4.0662,-4.0662,-4.0662,-4.0662,-4.0662,-4.0662,-4.0668,-4.064,-4.8906,-5.0117,-5.0898,-4.875,-4.6914,-4.4609,-4.0742,0.0,0.0,0.0,-2.9453,-2.8008,-2.9297,0.0,0.0,0.0,0.0,0.0,0.0,0.0,0.0,0.0,0.0,0.0,0.0,0.0,-5.6601,-5.6601,-5.6601,-5.6601,-5.6601,-5.7031,-5.7656,-5.8515,-6.0156,-6.1015,-6.1015,-6.1484,-6.1719,-6.1719,-6.1719,-6.1719,-6.1719,-6.1719,-6.0781,-5.9219,-5.9219,-5.8203,-5.6601,-5.6601,-5.6601,-5.6601,-5.6601,-5.6601,-5.6601,-5.6601,-5.6601,-5.6601,-5.6601,-5.6601,-5.6601,-5.6601,-5.6328,-5.5976,-5.5976,-5.4765,-5.3398,-5.3398,-5.2422,-5.1406,-5.1406,-5.1406,-5.1406,-5.1406,-5.0469,-4.9336,-4.8437,-4.7578,-4.6836,-4.6406,-4.6289,-4.6289,-4.6289,-4.6289,-4.6016,-4.5117,-4.5,-4.4531,-4.3203,-4.2261,-4.1901,-4.2369,-4.1627,-4.1276,-4.1706,-4.1354,-4.1119,-4.1119,-4.1067,-4.1003,-4.0961,-4.0921,-4.087,-4.0757,-4.0757,-4.0757,-4.0757,-4.0757,-4.0757,-4.0757,-4.0749,-4.0736,-4.8906,-5.0117,-5.0781,-4.8242,-4.6016,-4.332,-3.9023,-3.5195,0.0,0.0,-2.8281,-2.6992,-2.7851,0.0,-3.1172,0.0,0.0,0.0,0.0,0.0,0.0,0.0,0.0,0.0,0.0,0.0,0.0,-5.6601,-5.6601,-5.6601,-5.6601,-5.7422,-5.789,-5.789,-5.9531,-6.039,-6.039,-6.125,-6.1719,-6.1719,-6.1719,-6.1719,-6.168,-6.1523,-6.0625,-5.918,-5.8984,-5.8047,-5.6601,-5.6601,-5.6601,-5.6601,-5.6601,-5.6601,-5.6601,-5.6601,-5.6601,-5.6601,-5.6601,-5.6601,-5.6601,-5.6601,-5.6601,-5.6601,-5.6601,-5.539,-5.3984,-5.3984,-5.2734,-5.1406,-5.1406,-5.1406,-5.1367,-5.1172,-5.0664,-4.9726,-4.7969,-4.7617,-4.7344,-4.6484,-4.6289,-4.6289,-4.6289,-4.6289,-4.6016,-4.5117,-4.5,-4.4375,-4.2617,-4.2383,-4.2734,-4.3594,-4.2187,-4.1523,-4.2344,-4.1641,-4.1211,-4.1211,-4.1131,-4.1083,-4.1023,-4.1003,-4.0972,-4.0843,-4.0843,-4.0843,-4.0843,-4.0843,-4.0843,-4.0843,-4.0839,-4.082,-4.8906,-5.0117,-5.0781,-4.8242,-4.5117,-4.1523,-3.7226,0.0,0.0,-2.7734,-2.6523,-2.6094,-2.6953,-2.7891,-2.9375,-3.1992,0.0,-3.9297,0.0,0.0,0.0,0.0,0.0,0.0,0.0,0.0,-5.6601,-5.6601,-5.6601,-5.6601,-5.6601,-5.7422,-5.789,-5.789,-5.9531,-6.039,-6.039,-6.125,-6.1719,-6.1719,-6.1719,-6.1719,-6.168,-6.0898,-6.0039,-5.914,-5.8359,-5.7461,0.0,-5.6601,-5.6601,-5.6601,-5.6601,-5.6601,-5.6601,-5.6601,-5.6601,-5.6601,-5.6601,-5.6601,-5.6601,-5.6601,-5.6601,-5.6601,-5.6601,-5.539,-5.3984,-5.3984,-5.2734,-5.1406,-5.1406,-5.1406,-5.1211,-5.0469,-5.0234,-4.9726,-4.7969,-4.7617,-4.7344,-4.6484,-4.6289,-4.6289,-4.6289,-4.6289,-4.6016,-4.5117,-4.5,-4.4375,-4.2617,-4.2383,-4.2734,-4.3594,-4.2187,-4.1523,-4.2344,-4.1641,-4.1211,-4.1211,-4.1132,-4.1089,-4.1077,-4.107,-4.1056,-4.0989,-4.0989,-4.0989,-4.0989,-4.0989,-4.0989,-4.0989,-4.0997,-4.0953,-4.7187,-4.8594,-4.9258,-4.6679,-4.3827,-4.0506,-3.6208,0.0,-2.9056,-2.7338,-2.6322,-2.5815,-2.6168,-2.6912,-2.8202,-3.0312,-3.3789,-3.6914,-3.8867,0.0,0.0,0.0,0.0,0.0,0.0,0.0,-5.5469,-5.6523,-5.6601,-5.6601,-5.6601,-5.6914,-5.7109,-5.7109,-5.8789,-5.9687,-5.9687,-6.1015,-6.1719,-6.1719,-6.1719,-6.1445,-6.0898,-6.0547,-5.9687,-5.8398,-5.8047,-5.7422,0.0,-5.6601,-5.6601,-5.6601,-5.6601,-5.6601,-5.6601,-5.6601,-5.6601,-5.6601,-5.6601,-5.6601,-5.6601,-5.6601,-5.6601,-5.6601,-5.6601,-5.539,-5.3984,-5.3984,-5.2734,-5.1406,-5.1406,-5.1406,-5.1328,-5.1016,-5.0937,-5.0586,-4.9414,-4.9141,-4.875,-4.7344,-4.707,-4.6914,-4.6406,-4.6289,-4.6172,-4.582,-4.5781,-4.5351,-4.4101,-4.3945,-4.3906,-4.3711,-4.2617,-4.2461,-4.3867,-4.3203,-4.2695,-4.2695,-4.2695,-4.2656,-4.2654,-4.2653,-4.2651,-4.2647,-4.2647,-4.2647,-4.2647,-4.2647,-4.2647,-4.2647,-4.2635,-4.2572,-4.5583,-4.7382,-4.8203,-4.5311,-4.2457,-3.9212,0.0,-3.1187,-2.8289,-2.6844,-2.6062,-2.5634,-2.5681,-2.616,-2.7064,-2.8591,-3.1289,-3.4101,-3.6719,0.0,0.0,0.0,0.0,-4.8203,0.0,-5.3086,-5.5,-5.6484,-5.6601,-5.6601,-5.6601,-5.6601,-5.6601,-5.6601,-5.8047,-5.8945,-5.9219,-6.0625,-6.1445,-6.1719,-6.1445,-6.0976,-6.039,-5.9883,-5.9023,-5.789,-5.7617,-5.7187,0.0,-5.6601,-5.6601,-5.6601,-5.6601,-5.6601,-5.6601,-5.6601,-5.6601,-5.6601,-5.6601,-5.6601,-5.6601,-5.6601,-5.6601,-5.6601,-5.6601,-5.539,-5.3984,-5.3984,-5.2734,-5.1406,-5.1406,-5.1406,-5.1406,-5.1406,-5.1406,-5.1172,-5.0351,-5.0195,-4.9687,-4.793,-4.7617,-4.7305,-4.6445,-4.6289,-4.6289,-4.6289,-4.6289,-4.5976,-4.5117,-4.5,-4.4687,-4.3789,-4.3164,-4.3281,-4.4492,-4.4062,-4.3711,-4.3711,-4.3711,-4.3711,-4.3711,-4.3711,-4.3711,-4.3711,-4.3711,-4.3711,-4.3711,-4.3711,-4.3711,-4.3711,-4.3709,-4.3658,-4.4526,-4.6913,-4.8086,-4.4568,-4.1085,-3.7403,0.0,-2.9349,-2.659,-2.5688,-2.5493,-2.5539,-2.5598,-2.5626,-2.5917,-2.6865,-2.8514,-3.0547,-3.3086,-3.6445,0.0,0.0,0.0,0.0,-4.9961,-5.3281,-5.5664,-5.6523,-5.6601,0.0,-5.6601,-5.6601,-5.6601,-5.6601,-5.7461,-5.832,-5.918,-6.0,-6.0859,-6.168,-6.082,-6.039,-6.0351,-5.8672,-5.793,-5.7851,-5.6992,-5.6601,0.0,-5.6601,-5.6601,-5.6601,-5.6601,-5.6601,-5.6601,-5.6601,-5.6601,-5.6601,-5.6601,-5.6601,-5.6601,-5.6601,-5.6601,-5.6601,-5.6601,-5.539,-5.3984,-5.3984,-5.2734,-5.1406,-5.1406,-5.1406,-5.1406,-5.1406,-5.1406,-5.1172,-5.0351,-5.0195,-4.9687,-4.793,-4.7617,-4.7305,-4.6445,-4.6289,-4.6289,-4.6289,-4.6289,-4.5976,-4.5117,-4.5,-4.4687,-4.3789,-4.3672,-4.3672,-4.3711,-4.3711,-4.3711,-4.3711,-4.3711,-4.3711,-4.3711,-4.3711,-4.3711,-4.3711,-4.3711,-4.3711,-4.3711,-4.3711,-4.3711,-4.3711,-4.371,-4.3659,-4.0081,-4.2012,-4.3035,-4.0714,-3.7966,-3.5019,-3.1818,-2.8893,-2.6563,-2.5667,-2.5508,-2.5517,-2.5546,-2.5583,-2.5889,-2.6771,-2.843,0.0,0.0,0.0,0.0,0.0,0.0,0.0,0.0,0.0,-5.5039,-5.6484,-5.6601,-5.6601,-5.6601,-5.6601,-5.6601,-5.6601,-5.7461,-5.8047,-5.832,-5.914,-5.9726,-6.0,-5.9726,-5.9258,-5.8672,-5.8125,-5.7578,-5.6992,-5.6719,-5.6601,-5.6601,-5.6601,-5.6601,-5.6601,-5.6601,-5.6601,-5.6601,-5.6601,-5.6601,-5.6601,-5.6601,-5.6601,-5.6601,-5.6601,-5.6601,-5.6601,-5.6601,-5.539,-5.375,-5.2578,-5.1836,-5.1406,-5.1406,-5.1406,-5.1406,-5.1406,-5.1406,-5.1328,-5.1094,-5.1016,-5.0508,-4.8828,-4.8476,-4.8008,-4.6562,-4.6289,-4.6289,-4.6289,-4.6289,-4.6211,-4.5937,-4.5898,-4.5312,-4.3867,-4.4766,-4.5234,-4.4648,-4.4609,-4.4844,-4.543,-4.5469,-4.5469,-4.5469,-4.5469,-4.5469,-4.5469,-4.5469,-4.5469,-4.5469,-4.5469,-4.5469,-4.5469,-4.5469,-4.5465,0.0,-3.7758,-3.867,-3.6923,-3.479,-3.2496,-3.0214,-2.79,-2.6072,-2.5522,-2.5406,-2.5418,-2.5459,-2.5508,-2.5712,-2.6303,-2.7632,-2.9799,0.0,0.0,0.0,0.0,0.0,0.0,0.0,-5.3789,-5.5078,-5.6484,-5.6601,-5.6601,-5.6601,-5.6601,-5.6601,-5.6601,-5.7148,-5.7578,-5.789,-5.8437,-5.8867,-5.9219,-5.8867,-5.8437,-5.789,-5.7578,-5.7109,-5.6601,-5.6601,-5.6601,0.0,-5.6601,-5.6601,-5.6601,-5.6601,-5.6601,-5.6601,-5.6601,-5.6601,-5.6601,-5.6601,-5.6601,-5.6601,-5.6601,-5.6601,-5.6484,-5.582,-5.4844,-5.3633,-5.1875,-5.1406,-5.1406,-5.1406,-5.1406,-5.1406,-5.1406,-5.1406,-5.1406,-5.1406,-5.1406,-5.0898,-4.9219,-4.8906,-4.8359,-4.6601,-4.6289,-4.6289,-4.6289,-4.6289,-4.6289,-4.6289,-4.6289,-4.5742,-4.4336,-4.5156,-4.5469,-4.457,-4.5117,-4.5703,-4.6289,-4.6289,-4.6289,-4.6289,-4.6289,-4.6289,-4.6289,-4.6289,-4.6289,-4.6289,-4.6289,-4.6289,-4.6289,-4.6289,-4.6288,0.0,-3.3921,-3.4956,-3.3316,-3.1679,-2.9955,-2.8285,-2.6535,0.0,-2.5308,-2.5308,-2.5322,-2.5378,-2.5398,-2.5459,-2.5646,-2.6467,-2.8301,0.0,0.0,0.0,0.0,-5.0,0.0,-5.2773,-5.4336,-5.5664,-5.6523,-5.6601,-5.6601,-5.6601,-5.6601,-5.6601,-5.6601,-5.6601,-5.6992,-5.7812,-5.7812,-5.8203,-5.9023,-5.8203,-5.7812,-5.7773,-5.6953,-5.6601,-5.6601,-5.6601,-5.6601,-5.6601,-5.6601,-5.6601,-5.6601,-5.6601,-5.6601,-5.6601,-5.6601,-5.6601,-5.6601,-5.6601,-5.6601,-5.6601,-5.6601,-5.6601,-5.6289,-5.4531,-5.3984,-5.3633,-5.1875,-5.1406,-5.1406,-5.1406,-5.1406,-5.1406,-5.1406,-5.1406,-5.1406,-5.1406,-5.1406,-5.0937,-4.9297,-4.8984,-4.8437,-4.668,-4.6406,-4.6367,-4.6328,-4.6289,-4.6289,-4.6289,-4.6289,-4.5976,-4.5078,-4.5078,-4.4726,-4.3867,-4.5273,-4.6211,-4.6211,-4.6289,-4.6289,-4.6289,-4.6289,-4.6289,-4.6289,-4.6289,-4.6289,-4.6289,-4.6289,-4.6289,-4.6289,-4.6289,-4.6289,-2.5721,0.0,-3.0778,-3.0339,-2.9411,-2.8324,0.0,-2.6078,-2.5308,-2.5308,0.0,-2.5317,-2.5398,-2.5404,-2.5658,-2.6395,-2.7851,-3.0357,0.0,0.0,0.0,-5.0073,-5.1638,-5.3007,-5.4531,-5.5078,-5.5664,-5.6523,-5.6601,-5.6601,-5.6601,-5.6601,-5.6601,-5.6601,-5.6601,-5.6719,-5.6914,-5.6914,-5.6992,-5.7226,-5.6992,-5.6914,-5.6914,-5.668,-5.6601,-5.6601,-5.6601,-5.6601,-5.6601,-5.6601,-5.6601,-5.6601,-5.6601,-5.6601,-5.6601,-5.6601,-5.6601,-5.6601,-5.6601,-5.6601,-5.6601,-5.6601,-5.6601,-5.6289,-5.4531,-5.3984,-5.3633,-5.1875,-5.1406,-5.1406,-5.1406,-5.1406,-5.1406,-5.1406,-5.1406,-5.1406,-5.1406,-5.1406,-5.1094,-5.0078,-4.9883,-4.9336,-4.7578,-4.7305,-4.707,-4.6406,-4.6289,-4.6289,-4.6289,-4.6289,-4.5976,-4.5078,-4.5586,-4.5625,-4.4766,-4.5078,-4.5312,-4.5312,-4.5937,-4.6289,-4.6289,-4.6289,-4.6289,-4.6289,-4.6289,-4.6289,-4.6289,-4.6289,-4.6289,-4.6289,-4.6289,-4.6289,-2.3163,-2.5207,-2.7039,-2.7391,-2.7098,-2.6612,-2.6116,0.0,0.0,0.0,0.0,-2.5313,-2.5332,-2.5663,-2.6258,-2.7203,-2.918,0.0,0.0,0.0,0.0,-5.1618,-5.3035,-5.4215,0.0,-5.5664,-5.6094,-5.6562,-5.6601,-5.6601,-5.6601,-5.6601,-5.6601,-5.6601,-5.6601,-5.6601,-5.6601,-5.6601,-5.6601,-5.6601,-5.6601,-5.6601,-5.6601,-5.6601,-5.6601,-5.6601,-5.6601,-5.6601,-5.6601,-5.6601,-5.6601,-5.6601,-5.6601,-5.6601,-5.6601,-5.6601,-5.6601,-5.6601,-5.6601,-5.6601,-5.6601,-5.6601,-5.6601,-5.6289,-5.4531,-5.3984,-5.3633,-5.1875,-5.1406,-5.1406,-5.1406,-5.1406,-5.1406,-5.1406,-5.1406,-5.1406,-5.1406,-5.1406,-5.1172,-5.0351,-5.0195,-4.9648,-4.7891,-4.7617,-4.7305,-4.6445,-4.6289,-4.6289,-4.6289,-4.6289,-4.6133,-4.5664,-4.6016,-4.5937,-4.5078,-4.5351,-4.5586,-4.5586,-4.6055,-4.6289,-4.6289,-4.6289,-4.6289,-4.6289,-4.6289,-4.6289,-4.6289,-4.6289,-4.6289,-4.6289,-4.6289,-4.6289,-2.235,-2.3432,-2.4317,-2.5269,-2.5615,-2.5692,-2.5692,0.0,0.0,0.0,0.0,0.0,0.0,-2.6308,0.0,0.0,0.0,0.0,0.0,0.0,-5.0015,-5.2244,-5.4105,0.0,-5.5272,-5.6054,-5.6562,-5.6562,-5.6562,-5.6562,-5.6562,-5.6562,-5.6562,-5.6562,-5.6562,-5.6562,-5.6562,-5.6601,-5.6601,-5.6601,-5.6601,-5.6601,-5.6601,-5.6601,-5.6601,-5.6601,-5.6601,0.0,-5.6601,-5.6601,-5.6601,-5.6601,-5.6601,-5.6601,-5.6601,-5.6601,-5.6601,-5.6601,-5.6601,-5.6601,-5.6601,-5.6601,-5.6601,-5.6289,-5.4531,-5.3984,-5.3633,-5.1875,-5.1406,-5.1406,-5.1406,-5.1406,-5.1406,-5.1406,-5.1406,-5.1406,-5.1406,-5.1406,-5.1211,-5.0508,-5.0391,-4.9883,-4.8281,-4.8008,-4.7695,-4.6836,-4.6719,-4.6641,-4.6523,-4.6484,-4.6445,-4.6328,-4.6289,-4.6016,-4.5273,-4.5898,-4.6289,-4.6289,-4.6289,-4.6289,-4.6289,-4.6289,-4.6289,-4.6289,-4.6289,-4.6289,-4.6289,-4.6289,-4.6289,-4.6289,-4.6289,-4.6289,-2.235,-2.3432,-2.4471,-2.6005,-2.6967,-2.7505,-2.7505,0.0,0.0,0.0,0.0,0.0,0.0,-2.7621,-2.8466,0.0,0.0,-4.1803,0.0,0.0,-5.1248,-5.2364,0.0,-5.5132,-5.5208,-5.5991,-5.6538,-5.6538,-5.6538,-5.6538,-5.6538,-5.6538,-5.6538,-5.6538,-5.6538,-5.6538,-5.6538,-5.656,-5.6601,-5.6601,-5.6601,-5.6601,-5.6601,-5.6601,-5.6601,-5.6601,0.0,-5.6601,-5.6601,-5.6601,-5.6601,-5.6601,-5.6601,-5.6601,-5.6601,-5.6601,-5.6601,-5.6601,-5.6601,-5.6601,-5.6601,-5.6601,-5.6601,-5.6289,-5.4531,-5.3984,-5.3633,-5.1875,-5.1406,-5.1406,-5.1406,-5.1406,-5.1406,-5.1406,-5.1406,-5.1406,-5.1406,-5.1406,-5.1367,-5.125,-5.1211,-5.0898,-4.9961,-4.9805,-4.9492,-4.8633,-4.8516,-4.8242,-4.75,-4.7383,-4.7109,-4.6367,-4.6289,-4.625,-4.6094,-4.6211,-4.6289,-4.6289,-4.6289,-4.6289,-4.6289,-4.6289,-4.6289,-4.6289,-4.6289,-4.6289,-4.6289,-4.6289,-4.6289,-4.6289,-4.6289,-4.6289,-2.235,-2.3432,-2.463,-2.6774,-2.7934,-2.8665,-2.9159,-2.9236,0.0,0.0,0.0,0.0,0.0,0.0,-3.1405,-3.5892,0.0,-4.4372,-4.6878,-4.9064,-5.0706,0.0,0.0,-5.3618,-5.3642,-5.4429,-5.4936,-5.4936,-5.4936,-5.4936,-5.4936,-5.4936,-5.4936,-5.4936,-5.4936,-5.4936,-5.4936,-5.5438,-5.5977,-5.6551,-5.6551,-5.6551,-5.6551,-5.6551,-5.6551,-5.6553,0.0,-5.6558,-5.6599,-5.66,-5.6601,-5.6601,-5.6601,-5.6601,-5.6601,-5.6601,-5.6601,-5.6601,-5.6601,-5.6601,-5.6601,-5.6601,-5.6601,-5.6367,-5.5078,-5.4687,-5.4336,-5.2578,-5.1758,-5.1406,-5.1406,-5.1406,-5.1406,-5.1406,-5.1406,-5.1406,-5.1406,-5.1406,-5.1406,-5.1406,-5.1406,-5.1133,-5.0351,-5.0195,-4.9883,-4.9023,-4.8906,-4.8594,-4.7695,-4.7617,-4.7266,-4.6406,-4.6289,-4.6289,-4.6289,-4.6289,-4.6289,-4.6289,-4.6289,-4.6289,-4.6289,-4.6289,-4.6289,-4.6289,-4.6289,-4.6289,-4.6289,-4.6289,-4.6289,-4.6289,-4.6289,-4.6289,-2.2158,-2.3278,-2.4668,-2.701,-2.8506,-2.9698,-3.0731,-3.1154,0.0,0.0,0.0,0.0,0.0,-3.2628,0.0,-4.0429,-4.3485,-4.5955,-4.8268,-4.9366,-5.0186,-5.0782,-5.1707,-5.2292,-5.2297,-5.3091,-5.3602,-5.3602,-5.3602,-5.3602,-5.3602,-5.3602,-5.3602,-5.3602,-5.3602,-5.3602,-5.3602,-5.4447,-5.5302,-5.6149,-5.6344,-5.6422,-5.6422,-5.6422,-5.6422,-5.6422,-5.6441,-5.6495,-5.6548,-5.6555,-5.66,-5.6601,-5.6601,-5.6601,-5.6601,-5.6601,-5.6601,-5.6601,-5.6601,-5.6601,-5.6601,-5.6601,-5.6601,-5.6445,-5.5547,-5.5312,-5.4922,-5.3203,-5.2226,-5.1641,-5.1445,-5.1406,-5.1406,-5.1406,-5.1406,-5.1406,-5.1406,-5.1406,-5.1406,-5.1406,-5.1406,-5.1211,-5.0586,-5.0469,-5.0234,-4.9609,-4.9492,-4.918,-4.832,-4.8203,-4.7891,-4.6992,-4.6914,-4.6836,-4.6601,-4.6406,-4.6289,-4.6289,-4.6289,-4.6289,-4.6289,-4.6289,-4.6289,-4.6289,-4.6289,-4.6289,-4.6289,-4.6289,-4.6289,-4.6289,-4.6289,-4.6289,-2.1543,-2.2816,-2.4509,-2.6274,-2.85,-3.0731,-3.2352,-3.3353,0.0,-3.4962,0.0,0.0,0.0,-3.7112,-3.9711,-4.2574,-4.5171,-4.7433,-4.9164,0.0,-5.0731,-5.0803,-5.1641,-5.2244,-5.2278,-5.3106,-5.3578,-5.3578,-5.3578,-5.3578,-5.3578,-5.3578,-5.3578,-5.3578,-5.3578,-5.3578,-5.3578,-5.4386,-5.488,-5.5011,-5.5823,-5.6212,-5.6212,-5.6212,-5.6212,-5.6212,-5.6303,-5.6354,-5.6436,-5.6497,-5.6556,-5.6601,-5.6601,-5.6601,-5.6601,-5.6601,-5.6601,-5.6601,-5.6601,-5.6601,-5.6601,-5.6601,-5.6601,-5.6445,-5.5547,-5.5312,-5.4922,-5.3203,-5.2656,-5.2422,-5.1601,-5.1406,-5.1406,-5.1406,-5.1406,-5.1406,-5.1406,-5.1406,-5.1406,-5.1406,-5.1406,-5.1367,-5.1328,-5.1328,-5.1289,-5.1211,-5.1211,-5.0937,-5.0117,-5.0,-4.9687,-4.8828,-4.8711,-4.8398,-4.7578,-4.6758,-4.6289,-4.6289,-4.6289,-4.6289,-4.6289,-4.6289,-4.6289,-4.6289,-4.6289,-4.6289,-4.6289,-4.6289,-4.6289,-4.6289,-4.6289,-4.6289,-2.297,-2.3586,-2.463,-2.6851,-2.8929,0.0,0.0,-3.5199,-3.6815,-3.7661,-3.8015,0.0,0.0,0.0,-4.1501,-4.3543,-4.6031,-4.8295,-5.0008,-5.0547,-5.073,-5.0749,-5.1046,-5.1266,-5.1301,-5.1619,-5.1812,-5.1812,-5.1812,-5.1812,-5.1812,-5.1812,-5.1812,-5.1812,-5.1812,-5.1812,-5.1812,-5.2575,-5.2996,-5.3064,-5.5155,-5.6149,-5.6149,-5.6149,-5.6149,-5.6155,-5.6224,-5.6295,-5.6328,-5.6407,-5.6484,-5.6549,-5.6549,-5.6551,-5.6555,-5.6597,-5.6599,-5.6601,-5.6601,-5.6601,-5.66,-5.6599,-5.6598,-5.6559,-5.6207,-5.6091,-5.5742,-5.3984,-5.3516,-5.3164,-5.1758,-5.1406,-5.1406,-5.1406,-5.1406,-5.1406,-5.1406,-5.1406,-5.1406,-5.1406,-5.1406,-5.1406,-5.1406,-5.1406,-5.1406,-5.1406,-5.1406,-5.1094,-5.0312,-5.0195,-4.9883,-4.8984,-4.8906,-4.8789,-4.8437,-4.8125,-4.7695,-4.7148,-4.6601,-4.6289,-4.6289,-4.6289,-4.6289,-4.6289,-4.6289,-4.6289,-4.6289,-4.6289,-4.6289,-4.6289,-4.6289,-4.6289,-2.3586,-2.3898,-2.4668,-2.6933,0.0,0.0,-3.4276,-3.6969,-3.9123,-4.0239,-4.1131,-4.1208,-3.9508,0.0,0.0,0.0,-4.6624,-4.8702,-5.0442,-5.0712,-5.0712,-5.0712,-5.0712,-5.0712,-5.0712,-5.0712,-5.0712,-5.0712,-5.0712,-5.0712,-5.0712,-5.0712,-5.0712,-5.0712,-5.0712,-5.0712,-5.0712,-5.151,-5.1885,-5.1923,-5.4116,-5.5169,-5.5169,-5.5169,-5.5169,-5.5178,-5.5265,-5.5326,-5.5386,-5.5444,-5.5701,-5.5981,-5.5981,-5.6188,-5.6441,-5.6499,-5.655,-5.6558,-5.6601,-5.6601,-5.6597,-5.6548,-5.6543,-5.6504,-5.6231,-5.6121,-5.5815,-5.4062,-5.3594,-5.3242,-5.1797,-5.1406,-5.1406,-5.1406,-5.1406,-5.1406,-5.1406,-5.1406,-5.1406,-5.1406,-5.1406,-5.1406,-5.1406,-5.1406,-5.1406,-5.1406,-5.1406,-5.1211,-5.0664,-5.0586,-5.0351,-4.9766,-4.9453,-4.9297,-4.9297,-4.9062,-4.8633,-4.8047,-4.7187,-4.6601,-4.6328,-4.6289,-4.6289,-4.6289,-4.6289,-4.6289,-4.6289,-4.6289,-4.6289,-4.6328,-4.6562,-4.6562,-2.3047,-2.3471,-2.4509,0.0,0.0,0.0,-3.5769,-3.87,-4.1016,-4.2816,-4.3778,-4.3816,-4.2154,-4.3201,0.0,-4.5479,-4.7009,-4.8702,-5.0481,-5.0712,-5.0712,-5.0712,-5.0712,-5.0712,-5.0712,-5.0712,-5.0712,-5.0712,-5.0712,-5.0712,-5.0712,-5.0712,-5.0712,-5.0712,-5.0712,-5.0712,-5.0712,-5.151,-5.1885,-5.1885,-5.2779,-5.3164,-5.3203,-5.3203,-5.3203,-5.3203,-5.3282,-5.3331,-5.3429,-5.3469,-5.4062,-5.4874,-5.4913,-5.5453,-5.6316,-5.6371,-5.6445,-5.6507,-5.6561,-5.66,-5.6589,-5.6441,-5.6428,-5.6311,-5.5371,-5.5157,-5.4867,-5.3163,-5.2695,-5.25,-5.1641,-5.1406,-5.1406,-5.1406,-5.1406,-5.1406,-5.1406,-5.1406,-5.1406,-5.1406,-5.1406,-5.1406,-5.1406,-5.1406,-5.1406,-5.1406,-5.1406,-5.1406,-5.1406,-5.1406,-5.1406,-5.1406,-5.0703,-5.0195,-5.0195,-4.9414,-4.8906,-4.8906,-4.8086,-4.7226,-4.6367,-4.6289,-4.6289,-4.6289,-4.6289,-4.6289,-4.6289,-4.6289,-4.6289,-4.6328,-4.7187,-4.7148,-2.4466,-2.5197,0.0,-2.8692,0.0,0.0,0.0,-4.0508,0.0,0.0,-4.6778,-4.5778,-4.4662,-4.5393,0.0,-4.6471,-4.7932,-4.9394,-5.0558,-5.0712,-5.0712,-5.0712,-5.0712,-5.0712,-5.0712,-5.0712,-5.0712,-5.0712,-5.0712,-5.0712,-5.0712,-5.0712,-5.0712,-5.0712,-5.0712,-5.0712,-5.0712,-5.0933,-5.1048,-5.1048,-5.1318,-5.2049,-5.3203,-5.3203,-5.3203,-5.3203,-5.3282,-5.3338,-5.342,-5.3536,-5.3715,-5.4052,-5.4628,-5.5016,-5.5397,-5.6095,-5.6383,-5.6458,-5.6497,-5.6489,-5.6452,-5.6371,-5.6342,-5.6178,-5.5295,-5.5096,-5.478,-5.3141,-5.2684,-5.2493,-5.1636,-5.1404,-5.1406,-5.1406,-5.1406,-5.1406,-5.1406,-5.1406,-5.1406,-5.1406,-5.1406,-5.1406,-5.1406,-5.1406,-5.1406,-5.1406,-5.1406,-5.1406,-5.1406,-5.1406,-5.1406,-5.1406,-5.1172,-5.1055,-5.1055,-5.082,-5.043,-4.9844,-4.957,-4.875,-4.7266,-4.6641,-4.6289,-4.6289,-4.6289,-4.6289,-4.6289,-4.6289,-4.6601,-4.7226,-4.7461,-4.7773,-2.5077,-2.6192,0.0,-3.0692,-3.3583,-3.693,-4.17,0.0,0.0,0.0,-4.8586,-4.7548,-4.6355,-4.6817,0.0,-4.7394,-4.8509,-4.9702,-5.0596,-5.0712,-5.0712,-5.0712,-5.0712,-5.0712,-5.0712,-5.0712,-5.0712,-5.0712,-5.0712,-5.0712,-5.0712,-5.0712,-5.0712,-5.0712,-5.0712,-5.0712,-5.0712,-5.0712,-5.0712,-5.0712,-5.0712,-5.1241,-5.2202,-5.2202,-5.2202,-5.2202,-5.2242,-5.229,-5.2326,-5.2412,-5.2638,-5.2987,-5.3481,-5.3878,-5.4357,-5.4938,-5.5208,-5.5263,-5.533,-5.5315,-5.5259,-5.5191,-5.5151,-5.5022,-5.4107,-5.3919,-5.3706,-5.2444,-5.2086,-5.1989,-5.146,-5.1356,-5.1402,-5.1406,-5.1406,-5.1406,-5.1406,-5.1406,-5.1406,-5.1406,-5.1406,-5.1406,-5.1406,-5.1406,-5.1406,-5.1406,-5.1406,-5.1406,-5.1406,-5.1406,-5.1406,-5.1406,-5.1406,-5.1406,-5.1406,-5.1406,-5.1172,-5.0703,-5.0391,-4.9726,-4.8672,-4.7812,-4.7344,-4.7344,-4.7344,-4.7344,-4.7344,-4.7344,-4.7617,-4.8125,-4.8476,-4.8711,-2.5077,0.0,0.0,-3.2199,-3.5776,0.0,-4.6624,-4.7548,-4.7509,-4.9163,0.0,-4.9048,-4.7548,-4.7855,-4.8355,-4.8355,-4.9009,-4.9779,-5.0596,-5.0712,-5.0712,-5.0712,-5.0712,-5.0712,-5.0712,-5.0712,-5.0712,-5.0712,-5.0712,-5.0712,-5.0712,-5.0712,-5.0712,-5.0712,-5.0712,-5.0712,-5.0712,-5.0712,-5.0712,-5.0712,-5.0712,-5.0712,-5.0712,-5.0712,-5.0712,-5.0712,-5.0712,-5.0712,-5.0712,-5.0712,-5.1125,-5.1808,-5.1885,-5.2416,-5.3184,-5.3367,-5.3427,-5.3502,-5.3597,-5.3586,-5.3553,-5.3451,-5.3445,-5.3329,-5.2384,-5.2172,-5.2136,-5.1325,-5.1152,-5.1207,-5.1183,-5.1293,-5.1393,-5.1405,-5.1406,-5.1406,-5.1406,-5.1406,-5.1406,-5.1406,-5.1406,-5.1406,-5.1406,-5.1406,-5.1406,-5.1406,-5.1406,-5.1406,-5.1406,-5.1406,-5.1406,-5.1406,-5.1406,-5.1406,-5.1406,-5.1406,-5.1406,-5.1406,-5.0703,-5.0312,-5.0312,-4.9414,-4.8906,-4.8906,-4.8906,-4.8906,-4.8906,-4.8906,-4.8945,-4.9023,-4.9844,-4.9805,-2.4885,-2.7538,0.0,0.0,-3.7969,-4.3085,-4.7163,-4.7971,-4.8317,-5.0048,-5.0442,-5.0327,-4.9933,-5.001,-5.0125,-5.0125,-5.0289,-5.0481,-5.0673,-5.0712,-5.0712,-5.0712,-5.0712,-5.0712,-5.0712,-5.0712,-5.0712,-5.0712,-5.0712,-5.0712,-5.0712,-5.0712,-5.0712,-5.0712,-5.0712,-5.0712,-5.0712,-5.0712,-5.0712,-5.0712,-5.0712,-5.0712,-5.0712,-5.0712,-5.0712,-5.0712,-5.0712,-5.0712,-5.0712,-5.0712,-5.0789,-5.101,-5.1654,-5.205,-5.2357,-5.3121,-5.3428,-5.3491,-5.3585,-5.3557,-5.3522,-5.342,-5.3409,-5.3267,-5.2365,-5.2144,-5.2051,-5.1237,-5.1074,-5.1141,-5.1183,-5.1278,-5.1323,-5.1397,-5.1405,-5.1406,-5.1406,-5.1406,-5.1406,-5.1406,-5.1406,-5.1406,-5.1406,-5.1406,-5.1406,-5.1406,-5.1406,-5.1406,-5.1406,-5.1406,-5.1406,-5.1406,-5.1406,-5.1406,-5.1406,-5.1406,-5.1406,-5.1406,-5.125,-5.1133,-5.1133,-4.9687,-4.8906,-4.8906,-4.8906,-4.8906,-4.8906,-4.8906,-4.9258,-4.9922,-5.0117,-5.043,0.0,0.0,0.0,0.0,0.0,0.0,-4.7932,-4.8702,-4.9086,-5.0442,-5.0712,-5.0712,-5.0712,-5.0712,-5.0712,-5.0712,-5.0712,-5.0712,-5.0712,-5.0712,-5.0712,-5.0712,-5.0712,-5.0712,-5.0712,-5.0712,-5.0519,-5.0087,-5.0481,-5.0519,-5.0087,-5.0481,-5.0712,-5.0712,-5.0712,-5.0712,-5.0712,-5.0712,-5.0712,-5.0712,-5.0712,-5.0712,-5.0712,-5.0712,-5.0712,-5.0712,-5.0712,-5.0712,-5.0712,-5.0712,-5.0712,-5.075,-5.1164,-5.1337,-5.1443,-5.1933,-5.2124,-5.215,-5.2202,-5.2194,-5.2141,-5.2115,-5.2126,-5.203,-5.1586,-5.1459,-5.1378,-5.0957,-5.0914,-5.0963,-5.1029,-5.1128,-5.1218,-5.1293,-5.136,-5.1406,-5.1406,-5.1406,-5.1406,-5.1406,-5.1406,-5.1406,-5.1406,-5.1406,-5.1406,-5.1406,-5.1406,-5.1406,-5.1406,-5.1406,-5.1406,-5.1406,-5.1406,-5.1406,-5.1406,-5.1406,-5.1406,-5.1406,-5.1406,-5.1406,-5.1406,-5.0547,-5.0117,-5.0117,-5.0117,-5.0117,-5.0117,-5.0117,-5.0312,-5.0781,-5.0781,-5.1016,0.0,0.0,0.0,0.0,0.0,0.0,-4.8202,-4.8971,-4.924,-5.0289,-5.0596,-5.0712,-5.0712,-5.0712,-5.0712,-5.0712,-5.0712,-5.0712,-5.0712,-5.0712,-5.0712,-5.0712,-5.0712,-5.0712,-5.0712,-5.0558,-5.0173,-4.9433,-4.9933,-4.9933,-4.9202,-4.9856,-5.025,-5.025,-5.025,-5.025,-5.025,-5.025,-5.025,-5.025,-5.0404,-5.0558,-5.0712,-5.0712,-5.0712,-5.0712,-5.0712,-5.0712,-5.0712,-5.0712,-5.0712,-5.0712,-5.0712,-5.0712,-5.0712,-5.0712,-5.0712,-5.0712,-5.0712,-5.0712,-5.0712,-5.0712,-5.0712,-5.0712,-5.0712,-5.0712,-5.0712,-5.0712,-5.074,-5.0799,-5.0875,-5.0979,-5.1113,-5.1167,-5.1302,-5.1402,-5.1406,-5.1406,-5.1406,-5.1406,-5.1406,-5.1406,-5.1406,-5.1406,-5.1406,-5.1406,-5.1406,-5.1406,-5.1406,-5.1406,-5.1406,-5.1406,-5.1406,-5.1406,-5.1406,-5.1406,-5.1406,-5.1406,-5.1406,-5.1406,-5.1406,-5.1406,-5.1406,-5.1406,-5.1406,-5.1406,-5.1406,-5.1406,-5.1406,-5.1406,-5.1406,-5.1406,0.0,0.0,0.0,0.0,0.0,0.0,0.0,0.0,-4.7702,0.0,-5.0164,-5.0712,-5.0712,-5.0712,-5.0712,-5.0712,-5.0712,-5.0712,-5.0712,-5.0712,-5.0712,-5.0712,-5.0712,-5.0712,-5.0712,-5.001,-4.951,-4.9394,-4.8817,-4.8394,-4.8279,-4.8394,-4.8432,-4.8432,-4.8432,-4.8432,-4.8432,-4.8432,-4.8432,-4.8471,-4.9202,-4.9971,-5.0712,-5.0712,-5.0712,-5.0712,-5.0712,-5.0712,-5.0712,-5.0712,-5.0712,-5.0712,-5.0712,-5.0712,-5.0712,-5.0712,-5.0712,-5.0712,-5.0712,-5.0712,-5.0712,-5.0712,-5.0712,-5.0712,-5.0712,-5.0712,-5.0712,-5.0712,-5.0712,-5.0738,-5.0795,-5.0913,-5.1049,-5.1161,-5.1275,-5.133,-5.1405,-5.1406,-5.1406,-5.1406,-5.1406,-5.1406,-5.1406,-5.1406,-5.1406,-5.1406,-5.1406,-5.1406,-5.1406,-5.1406,-5.1406,-5.1406,-5.1406,-5.1406,-5.1406,-5.1406,-5.1406,-5.1406,-5.1406,-5.1406,-5.1406,-5.1406,-5.1406,-5.1406,-5.1406,-5.1406,-5.1406,-5.1406,-5.1406,-5.1406,-5.1406,-5.1406,-2.6962,0.0,0.0,0.0,0.0,0.0,0.0,0.0,-4.7394,-4.9048,-4.9702,-5.0125,-5.0596,-5.0712,-5.0712,-5.0712,-5.0712,-5.0712,-5.0712,-5.0712,-5.0519,-5.001,-4.9971,-4.9779,-4.9279,-4.8894,-4.8471,-4.8048,-4.8048,-4.7894,-4.7471,-4.7855,-4.8086,-4.8086,-4.8086,-4.8086,-4.8086,-4.8086,-4.8355,-4.8817,-4.9202,-4.9856,-5.0712,-5.0712,-5.0712,-5.0712,-5.0712,-5.0712,-5.0712,-5.0712,-5.0712,-5.0712,-5.0712,-5.0712,-5.0712,-5.0712,-5.0712,-5.0712,-5.0712,-5.0712,-5.0712,-5.0712,-5.0712,-5.0712,-5.0712,-5.0712,-5.0712,-5.0712,-5.0683,-5.0712,-5.0758,-5.0816,-5.089,-5.0998,-5.1113,-5.1214,-5.1263,-5.1362,-5.1406,-5.1406,-5.1406,-5.1406,-5.1406,-5.1406,-5.1406,-5.1406,-5.1406,-5.1406,-5.1406,-5.1406,-5.1601,-5.207,-5.2148,-5.2344,-5.2812,-5.2422,-5.2148,-5.2148,-5.168,-5.1406,-5.1406,-5.1406,-5.1406,-5.1406,-5.1406,-5.1406,-5.1406,-5.1406,-5.1406,-5.1406,-5.1406,-5.1406,0.0,0.0,0.0,0.0,0.0,0.0,0.0,0.0,-4.6394,0.0,-4.8625,-4.9048,-4.9894,-5.0404,-5.0712,-5.0712,-5.0712,-5.0712,-5.0712,-5.0519,-5.0125,-4.9471,-4.9202,-4.8817,-4.8163,-4.7932,-4.7548,-4.6962,-4.724,-4.7201,-4.6586,-4.7124,-4.7471,-4.7471,-4.7471,-4.7471,-4.7471,-4.7471,-4.7894,-4.8779,-4.8779,-4.9317,-5.0366,-5.0366,-5.0481,-5.0712,-5.0712,-5.0712,-5.0712,-5.0712,-5.0712,-5.0712,-5.0712,-5.0712,-5.0712,-5.0712,-5.0712,-5.0712,-5.0712,-5.0712,-5.0712,-5.0712,-5.0712,-5.0712,-5.0712,-5.0712,-5.0712,-5.0712,-5.0866,-5.101,-5.101,-5.1231,-5.1447,-5.1525,-5.1625,-5.1618,-5.1308,-5.1317,-5.1406,-5.1406,-5.1406,-5.1406,-5.1406,-5.1406,-5.1406,-5.1406,-5.1406,-5.1406,-5.1406,-5.1406,-5.1719,-5.2617,-5.2695,-5.3047,-5.3945,-5.3203,-5.2695,-5.2695,-5.1875,-5.1406,-5.1406,-5.1406,-5.1406,-5.1406,-5.1406,-5.1406,-5.1406,-5.1406,-5.1406,-5.1406,-5.1406,-5.1406,0.0,0.0,0.0,0.0,0.0,0.0,0.0,0.0,0.0,-4.5441,-4.6432,-4.7278,-4.8086,-4.9586,-5.0712,-5.0712,-5.0712,-5.0712,-5.0712,-4.9971,-4.9433,-4.9394,-4.8663,-4.8163,-4.8086,-4.7432,-4.6962,-4.6885,-4.6163,-4.571,-4.5671,-4.571,-4.5748,-4.5748,-4.5748,-4.5748,-4.5748,-4.5748,-4.6163,-4.7038,-4.7038,-4.7894,-4.9471,-4.9471,-4.9933,-5.0712,-5.0712,-5.0712,-5.0712,-5.0712,-5.0712,-5.0712,-5.0712,-5.0712,-5.0712,-5.0712,-5.0712,-5.0712,-5.0712,-5.0712,-5.0712,-5.0712,-5.0712,-5.0712,-5.0712,-5.0712,-5.0712,-5.0712,-5.1241,-5.1846,-5.1846,-5.2512,-5.3196,-5.3258,-5.3336,-5.3022,-5.1677,-5.1402,-5.1406,-5.1406,-5.1406,-5.1406,-5.1406,-5.1406,-5.1406,-5.1406,-5.1406,-5.1406,-5.1406,-5.1406,-5.1719,-5.2617,-5.2695,-5.3047,-5.3945,-5.3203,-5.2695,-5.2695,-5.1875,-5.1406,-5.1406,-5.1406,-5.1406,-5.1406,-5.1406,-5.1406,-5.1406,-5.1406,-5.1406,-5.1406,-5.1406,-5.1406,0.0,0.0,0.0,0.0,0.0,0.0,-3.8777,-4.0431,-4.2055,-4.4278,-4.547,-4.6471,-4.7855,-4.8625,-4.9202,-4.9779,-4.9856,-4.9856,-4.9856,-4.9586,-4.9009,-4.7932,-4.7509,-4.7124,-4.6547,-4.624,-4.6086,-4.6086,-4.5787,-4.5594,-4.5594,-4.5594,-4.5594,-4.5594,-4.5594,-4.5594,-4.5594,-4.5594,-4.6047,-4.6885,-4.6885,-4.7778,-4.9394,-4.9394,-4.9894,-5.0712,-5.0712,-5.0712,-5.0712,-5.0712,-5.0712,-5.0712,-5.0712,-5.0712,-5.0712,-5.0712,-5.0712,-5.0712,-5.0712,-5.0712,-5.0712,-5.0712,-5.0712,-5.0712,-5.0712,-5.0712,-5.0712,-5.0712,-5.1279,-5.1885,-5.1885,-5.2559,-5.3253,-5.332,-5.3404,-5.3318,-5.2863,-5.2893,-5.3033,-5.3077,-5.308,-5.3083,-5.3085,-5.3086,-5.3086,-5.3086,-5.3086,-5.3086,-5.3086,-5.3086,-5.3398,-5.4297,-5.4375,-5.4726,-5.5586,-5.4883,-5.4375,-5.4375,-5.3555,-5.3086,-5.3086,-5.2539,-5.2226,-5.2226,-5.168,-5.1406,-5.1406,-5.1406,-5.1406,-5.1406,-5.1406,-5.1406,-2.2893,0.0,0.0,0.0,0.0,-3.2743,-3.5315,0.0,-3.9546,-4.2085,-4.3508,-4.4855,-4.6509,-4.6817,-4.7394,-4.9125,-4.9163,-4.9086,-4.9356,-4.8933,-4.8163,-4.7038,-4.6624,-4.624,-4.5671,-4.5594,-4.5594,-4.5594,-4.5594,-4.5594,-4.5594,-4.5594,-4.5594,-4.5594,-4.5594,-4.5594,-4.5594,-4.5594,-4.5893,-4.6471,-4.6471,-4.7201,-4.8548,-4.8548,-4.9163,-5.025,-5.025,-5.0442,-5.0712,-5.0712,-5.0712,-5.0712,-5.0712,-5.0712,-5.0712,-5.0712,-5.0712,-5.0712,-5.0712,-5.0712,-5.0712,-5.0712,-5.0712,-5.0712,-5.0712,-5.0712,-5.0712,-5.0712,-5.1471,-5.2346,-5.2346,-5.3203,-5.407,-5.4121,-5.4194,-5.4265,-5.4328,-5.4046,-5.3832,-5.3891,-5.3912,-5.3928,-5.3976,-5.3983,-5.3984,-5.3984,-5.3984,-5.3984,-5.3984,-5.3984,-5.4336,-5.5195,-5.5312,-5.5664,-5.6523,-5.5781,-5.5312,-5.5312,-5.4492,-5.3984,-5.3984,-5.3164,-5.2695,-5.2695,-5.1836,-5.1406,-5.1406,-5.1406,-5.1406,-5.1406,-5.1406,-5.1406,0.0,0.0,0.0,0.0,0.0,0.0,-3.0968,0.0,-3.6077,-3.8661,-4.0546,-4.2239,-4.3932,-4.4278,-4.5393,-4.8779,-4.8625,-4.8355,-4.9202,-4.7932,-4.6885,-4.6846,-4.6124,-4.5594,-4.5594,-4.5594,-4.5594,-4.5594,-4.5594,-4.5594,-4.5594,-4.5594,-4.5594,-4.5594,-4.5594,-4.5594,-4.5594,-4.5594,-4.5594,-4.5594,-4.5594,-4.6047,-4.6885,-4.6885,-4.7817,-4.9394,-4.9394,-4.9894,-5.0712,-5.0712,-5.0712,-5.0712,-5.0712,-5.0712,-5.0712,-5.0712,-5.0712,-5.0712,-5.0712,-5.0712,-5.0712,-5.0712,-5.0712,-5.0712,-5.0712,-5.0712,-5.0712,-5.0712,-5.1895,-5.3203,-5.328,-5.4472,-5.5724,-5.5776,-5.5866,-5.5902,-5.5986,-5.4742,-5.3691,-5.3749,-5.3813,-5.3894,-5.3959,-5.4019,-5.4062,-5.4062,-5.4062,-5.4062,-5.4062,-5.4062,-5.4414,-5.5234,-5.5351,-5.5664,-5.6523,-5.582,-5.5351,-5.5351,-5.4531,-5.4062,-5.4062,-5.3203,-5.2734,-5.2734,-5.1875,-5.1406,-5.1406,-5.1406,-5.1406,-5.1406,-5.1406,-5.1406,-2.135,0.0,0.0,0.0,0.0,0.0,0.0,0.0,-3.2692,-3.5885,-3.8392,-4.07,-4.3008,-4.3893,-4.5009,-4.724,-4.7394,-4.7317,-4.7548,-4.7201,-4.6663,-4.6009,-4.5748,-4.5594,-4.5594,-4.5594,-4.5594,0.0,-4.5594,-4.5594,-4.5594,-4.5594,-4.5594,-4.5594,-4.5594,-4.5594,-4.5594,-4.5594,-4.5594,-4.5594,-4.5594,-4.6047,-4.6885,-4.6885,-4.7817,-4.9394,-4.9394,-4.9894,-5.0712,-5.0712,-5.0712,-5.0712,-5.0712,-5.0712,-5.0712,-5.0712,-5.0712,-5.0712,-5.0712,-5.0712,-5.0712,-5.0712,-5.0712,-5.0712,-5.0712,-5.0712,-5.0712,-5.0712,-5.1895,-5.3472,-5.4703,-5.5357,-5.5714,-5.5724,-5.5756,-5.5776,-5.5797,-5.5432,-5.5191,-5.5443,-5.5556,-5.5627,-5.5714,-5.5799,-5.5894,-5.5897,-5.5898,-5.5898,-5.5898,-5.5898,-5.5976,-5.6211,-5.625,-5.6328,-5.6562,-5.6367,-5.625,-5.625,-5.6015,-5.5898,-5.5898,-5.4453,-5.3633,-5.3633,-5.2187,-5.1406,-5.1406,-5.1406,-5.1406,-5.1406,-5.1406,-5.1406,-2.1927,0.0,0.0,0.0,0.0,0.0,-2.4697,-2.7005,-2.9692,0.0,-3.5122,-3.7507,-4.0431,-4.1354,-4.2239,-4.3932,-4.4239,-4.4855,-4.6654,-4.6586,-4.6163,-4.5671,-4.5594,-4.5594,-4.5594,-4.5594,-4.5594,-4.5594,-4.5594,-4.5594,-4.5594,-4.5594,-4.5594,-4.5594,-4.5594,-4.5594,-4.5594,-4.5594,-4.5594,-4.5594,-4.5594,-4.5864,-4.6355,-4.6355,-4.7086,-4.8355,-4.8355,-4.9048,-5.0164,-5.0164,-5.0366,-5.0712,-5.0712,-5.0712,-5.0712,-5.0712,-5.0712,-5.0712,-5.0712,-5.0712,-5.0712,-5.0712,-5.0712,-5.0712,-5.0712,-5.0712,-5.0712,-5.0712,-5.1895,-5.3587,-5.5241,-5.5703,-5.5703,-5.5703,-5.5703,-5.5703,-5.5703,-5.5703,-5.5758,-5.6032,-5.6089,-5.6158,-5.629,-5.6419,-5.6543,-5.6554,-5.6561,-5.6601,-5.6601,-5.6601,-5.6601,-5.6601,-5.6601,-5.6601,-5.6601,-5.6601,-5.6601,-5.6601,-5.6601,-5.6601,-5.6601,-5.4922,-5.3984,-5.3984,-5.2305,-5.1406,-5.1406,-5.1406,-5.1406,-5.1406,-5.1406,-5.1406,-2.2932,-2.2855,0.0,0.0,-2.2235,0.0,-2.2778,-2.4543,-2.689,0.0,-3.1314,-3.3506,-3.6815,-3.7507,-3.8084,-3.9708,-4.0015,-4.1546,-4.574,-4.5663,-4.521,-4.5325,-4.5325,-4.5364,-4.5441,-4.5479,-4.5518,-4.5594,-4.5594,-4.5594,-4.5594,-4.5594,-4.5594,-4.5594,-4.5594,-4.5594,-4.5594,-4.5594,-4.5594,-4.5594,-4.5594,-4.5594,-4.5594,-4.5594,-4.6086,-4.6885,-4.6885,-4.7855,-4.9394,-4.9394,-4.9894,-5.0712,-5.0712,-5.0712,-5.0712,-5.0712,-5.0712,-5.0712,-5.0712,-5.0712,-5.0712,-5.0712,-5.0712,-5.0712,-5.0712,-5.0712,-5.075,-5.0943,-5.2049,-5.3587,-5.5241,-5.5703,-5.5703,-5.5703,-5.5703,-5.5703,-5.5703,-5.5703,-5.5735,-5.5837,-5.5891,-5.5955,-5.6149,-5.6303,-5.6391,-5.6495,-5.6556,-5.6601,-5.6601,-5.6601,-5.6601,-5.6601,-5.6601,-5.6601,-5.6601,-5.6601,-5.6601,-5.6601,-5.6601,-5.6601,-5.6601,-5.4921,-5.3984,-5.3984,-5.2305,-5.1406,-5.1406,-5.1406,-5.1406,-5.1406,-5.1406,-5.1406,-2.3663,-2.3317,-2.2932,-2.3471,0.0,0.0,-2.2624,-2.3163,-2.4274,0.0,-2.8659,-3.0666,-3.3391,-3.4468,-3.5276,-3.6315,-3.7007,-3.87,-4.2269,-4.2662,-4.2816,-4.3508,-4.3585,-4.3855,-4.447,-4.4547,-4.4855,-4.5556,-4.5594,-4.5594,-4.5594,-4.5594,-4.5594,-4.5594,-4.5594,-4.5594,-4.5594,-4.5594,-4.5594,-4.5594,-4.5594,-4.5594,-4.5594,-4.5594,-4.6086,-4.6885,-4.6885,-4.7855,-4.9394,-4.9394,-4.9894,-5.0712,-5.0712,-5.0712,-5.0712,-5.0712,-5.0712,-5.0712,-5.0712,-5.0712,-5.0712,-5.0712,-5.0712,-5.0712,-5.0712,-5.0712,-5.0981,-5.2318,-5.2933,-5.3587,-5.5241,-5.5703,-5.5703,-5.5703,-5.5703,-5.5703,-5.5703,-5.5703,-5.5714,-5.5735,-5.5827,-5.5935,-5.6078,-5.6247,-5.6355,-5.6397,-5.648,-5.6501,-5.6501,-5.6501,-5.6501,-5.6501,-5.6501,-5.6501,-5.6501,-5.6501,-5.6501,-5.6501,-5.6501,-5.6501,-5.6501,-5.49,-5.4005,-5.4012,-5.2301,-5.1406,-5.1406,-5.1406,-5.1406,-5.1406,-5.1406,-5.1406,-2.5895,-2.5356,-2.4697,-2.4697,0.0,0.0,0.0,-2.2158,-2.2774,-2.4894,-2.6351,-2.7967,-3.0544,-3.134,-3.1943,-3.2775,-3.3262,-3.44,-3.6919,-3.9162,-4.0854,-4.17,-4.22,-4.2777,-4.3624,-4.4047,-4.4662,-4.5518,-4.5594,-4.5594,-4.5594,-4.5594,-4.5594,-4.5594,-4.5594,-4.5594,-4.5594,-4.5594,-4.5594,-4.5594,-4.5594,-4.5594,-4.5594,-4.5594,-4.5825,-4.624,-4.624,-4.7201,-4.874,-4.874,-4.951,-5.0712,-5.0712,-5.0712,-5.0712,-5.0712,-5.0712,-5.0712,-5.0712,-5.0712,-5.0712,-5.0712,-5.0712,-5.0712,-5.0712,-5.0712,-5.1058,-5.2741,-5.3203,-5.3587,-5.5241,-5.5703,-5.5703,-5.5703,-5.5703,-5.5703,-5.5703,-5.5703,-5.5703,-5.5703,-5.5738,-5.5827,-5.5995,-5.6078,-5.6122,-5.6225,-5.6299,-5.634,-5.634,-5.634,-5.634,-5.634,-5.634,-5.634,-5.634,-5.634,-5.634,-5.634,-5.634,-5.634,-5.634,-5.4702,-5.3403,-5.2624,-5.1822,-5.1403,-5.1406,-5.1406,-5.1406,-5.1406,-5.1406,-5.1406,0.0,-2.7736,-2.689,0.0,0.0,-2.3043,0.0,0.0,0.0,-2.3783,-2.462,0.0,0.0,0.0,0.0,0.0,0.0,0.0,0.0,-3.4864,0.0,-3.9285,-4.0246,-4.1207,-4.2261,-4.3231,-4.4047,-4.4594,-4.4786,-4.4863,-4.4863,-4.5171,-4.5364,-4.5364,-4.5518,-4.5594,-4.5594,-4.5594,-4.5594,-4.5594,-4.5594,-4.5594,-4.5594,-4.5594,-4.5594,-4.5594,-4.5594,-4.6547,-4.8086,-4.8086,-4.9125,-5.0712,-5.0712,-5.0712,-5.0712,-5.0712,-5.0712,-5.0712,-5.0712,-5.0712,-5.0712,-5.0712,-5.0712,-5.0712,-5.0712,-5.0712,-5.1058,-5.2741,-5.3203,-5.3587,-5.5241,-5.5703,-5.5703,-5.5703,-5.5703,-5.5703,-5.5703,-5.5703,-5.5703,-5.5703,-5.5703,-5.5745,-5.5847,-5.5891,-5.5924,-5.6078,-5.6136,-5.6197,-5.6197,-5.6197,-5.6197,-5.6197,-5.6197,-5.6197,-5.6197,-5.6197,-5.6197,-5.6197,-5.6197,-5.6197,-5.6197,-5.4686,-5.3078,-5.1495,-5.1562,-5.1548,-5.1405,-5.1405,-5.1406,-5.1406,-5.1406,-5.1406,0.0,0.0,0.0,0.0,-2.6313,0.0,0.0,0.0,-2.2932,-2.3898,0.0,0.0,0.0,0.0,0.0,0.0,0.0,0.0,-2.7805,-2.9011,-3.1316,-3.5315,-3.6626,-3.7846,-3.949,-4.1122,-4.1816,-4.1131,-4.1816,-4.2239,-4.2239,-4.3624,-4.4432,-4.4432,-4.521,-4.5594,-4.5594,-4.5594,-4.5594,-4.5594,-4.5594,-4.5594,-4.5594,-4.5594,-4.5594,-4.5594,-4.5594,-4.6547,-4.8086,-4.8086,-4.9125,-5.0712,-5.0712,-5.0712,-5.0712,-5.0712,-5.0712,-5.0712,-5.0712,-5.0712,-5.0712,-5.0712,-5.0712,-5.0712,-5.0712,-5.0712,-5.1058,-5.2741,-5.3203,-5.3587,-5.5241,-5.5703,-5.5703,-5.5703,-5.5703,-5.5703,-5.5703,-5.5703,-5.5703,-5.5703,-5.5703,-5.5724,-5.5787,-5.5847,-5.5929,-5.5982,-5.6071,-5.6124,-5.6124,-5.6124,-5.6124,-5.6124,-5.6124,-5.6124,-5.6124,-5.6124,-5.6124,-5.6124,-5.6124,-5.6124,-5.6124,-5.5249,-5.4008,-5.2381,-5.2426,-5.2125,-5.1382,-5.1382,-5.1395,-5.1406,-5.1406,-5.1406,0.0,0.0,0.0,0.0,0.0,0.0,-2.4185,0.0,-2.2949,0.0,0.0,0.0,0.0,0.0,0.0,0.0,-2.517,0.0,0.0,0.0,-2.7711,0.0,0.0,0.0,-3.7471,-3.8854,-3.9431,-3.9084,-3.9392,-4.0008,-4.0969,-4.2662,-4.3816,-4.4278,-4.5171,-4.5594,-4.5594,-4.5594,-4.5594,-4.5594,-4.5594,-4.5594,-4.5594,-4.5594,-4.5594,-4.5594,-4.5594,-4.6547,-4.8086,-4.8086,-4.9125,-5.0712,-5.0712,-5.0712,-5.0712,-5.0712,-5.0712,-5.0712,-5.0712,-5.0712,-5.0712,-5.0712,-5.0712,-5.0789,-5.1241,-5.1395,-5.1741,-5.3472,-5.3933,-5.4203,-5.5395,-5.5703,-5.5703,-5.5703,-5.5703,-5.5703,-5.5703,-5.5703,-5.5703,-5.5703,-5.5703,-5.5714,-5.5735,-5.5776,-5.5778,-5.5837,-5.5837,-5.5865,-5.5865,-5.5865,-5.5865,-5.5865,-5.5865,-5.5865,-5.5865,-5.5865,-5.5865,-5.5865,-5.5865,-5.5672,-5.5171,-5.4873,-5.3964,-5.2292,-5.2319,-5.2003,-5.1218,-5.1218,-5.1232,-5.1224,-5.1349,-5.1402,-3.366,0.0,0.0,0.0,0.0,0.0,0.0,0.0,0.0,0.0,0.0,0.0,0.0,0.0,0.0,0.0,0.0,-2.4775,0.0,-2.4683,0.0,0.0,0.0,0.0,0.0,-3.6012,-3.6563,-3.6608,-3.6808,-3.77,-3.9354,-4.1546,-4.3124,-4.3932,-4.5017,-4.5594,-4.5594,-4.5594,-4.5594,-4.5594,-4.5594,-4.5594,-4.5594,-4.5594,-4.5594,-4.5594,-4.5594,-4.6547,-4.8086,-4.8086,-4.9125,-5.0712,-5.0712,-5.0712,-5.0712,-5.0712,-5.0712,-5.0712,-5.0712,-5.0712,-5.0712,-5.0712,-5.0712,-5.0856,-5.1654,-5.1885,-5.2269,-5.401,-5.4511,-5.4703,-5.5472,-5.5703,-5.5703,-5.5703,-5.5703,-5.5703,-5.5703,-5.5703,-5.5703,-5.5703,-5.5703,-5.5703,-5.5703,-5.5703,-5.5703,-5.5703,-5.5703,-5.5703,-5.5703,-5.5703,-5.5703,-5.5703,-5.5703,-5.5703,-5.5703,-5.5703,-5.5703,-5.5703,-5.5703,-5.5434,-5.4857,-5.4911,-5.4244,-5.2817,-5.2848,-5.2389,-5.1431,-5.1431,-5.1314,-5.1092,-5.1245,-5.134,0.0,0.0,0.0,-3.0519,0.0,0.0,0.0,0.0,-2.5899,0.0,0.0,0.0,0.0,0.0,0.0,0.0,0.0,0.0,0.0,0.0,0.0,0.0,0.0,0.0,0.0,-3.2383,-3.3004,-3.307,-3.384,-3.5045,-3.6731,-4.0,-4.2239,-4.3124,-4.4748,-4.5594,-4.5594,-4.5594,-4.5594,-4.5594,-4.5594,-4.5594,-4.5594,-4.5594,-4.5594,-4.5594,-4.5594,-4.6547,-4.8086,-4.8086,-4.9125,-5.0712,-5.0712,-5.0712,-5.0712,-5.0712,-5.0712,-5.0712,-5.0712,-5.0712,-5.0712,-5.0712,-5.0712,-5.0856,-5.1654,-5.1885,-5.2269,-5.401,-5.4511,-5.4703,-5.5472,-5.5703,-5.5703,-5.5703,-5.5703,-5.5703,-5.5703,-5.5703,-5.5703,-5.5703,-5.5703,-5.5703,-5.5703,-5.5703,-5.5703,-5.5703,-5.5703,-5.5703,-5.5703,-5.5703,-5.5703,-5.5703,-5.5703,-5.5703,-5.5703,-5.5703,-5.5703,-5.5703,-5.5703,-5.5703,-5.5665,-5.5728,-5.5374,-5.4532,-5.4585,-5.384,-5.2264,-5.2264,-5.1837,-5.0991,-5.1142,-5.12,-3.7023,-3.5649,-3.3824,-3.1998,-3.0196,-2.842,-2.6655,0.0,0.0,0.0,0.0,0.0,0.0,0.0,0.0,0.0,0.0,0.0,0.0,0.0,0.0,0.0,0.0,0.0,0.0,0.0,-2.9621,-3.0286,-3.0624,-3.2051,-3.4891,-3.8277,-4.0777,-4.22,-4.4432,-4.5594,-4.5594,-4.5594,-4.5594,-4.5594,-4.5594,-4.5594,-4.5594,-4.5594,-4.5594,-4.5594,-4.5594,-4.6547,-4.8086,-4.8086,-4.9125,-5.0712,-5.0712,-5.0712,-5.0712,-5.0712,-5.0712,-5.0712,-5.0712,-5.0712,-5.0789,-5.1318,-5.151,-5.1779,-5.3203,-5.3626,-5.3857,-5.4972,-5.528,-5.5357,-5.5626,-5.5703,-5.5703,-5.5703,-5.5703,-5.5703,-5.5703,-5.5703,-5.5703,-5.5703,-5.5703,-5.5703,-5.5703,-5.5703,-5.5703,-5.5703,-5.5703,-5.5703,-5.5703,-5.5703,-5.5703,-5.5703,-5.5703,-5.5703,-5.5703,-5.5703,-5.5703,-5.5703,-5.5703,-5.5703,-5.5703,-5.5724,-5.536,-5.4544,-5.4564,-5.3745,-5.2037,-5.2037,-5.1622,-5.0782,-5.089,-5.1047,-3.7566,-3.6406,-3.4876,-3.3343,-3.1652,-2.9871,-2.8103,-2.7924,-2.8295,0.0,0.0,0.0,0.0,0.0,0.0,0.0,0.0,0.0,0.0,-2.1465,0.0,0.0,0.0,0.0,0.0,0.0,-2.751,-2.8473,-2.8608,-3.0165,0.0,-3.6969,-3.9738,-4.1731,-4.4278,-4.5594,-4.5594,-4.5594,-4.5594,-4.5594,-4.5594,-4.5594,-4.5594,-4.5594,-4.5787,-4.6047,-4.6047,-4.7009,-4.8548,-4.8548,-4.9394,-5.0712,-5.0712,-5.0712,-5.0712,-5.0712,-5.0712,-5.0712,-5.0712,-5.0712,-5.0827,-5.1654,-5.1885,-5.2231,-5.3972,-5.4511,-5.4664,-5.5472,-5.5703,-5.5703,-5.5703,-5.5703,-5.5703,-5.5703,-5.5703,-5.5703,-5.5703,-5.5703,-5.5703,-5.5703,-5.5703,-5.5703,-5.5703,-5.5703,-5.5703,-5.5703,-5.5703,-5.5703,-5.5703,-5.5703,-5.5703,-5.5703,-5.5703,-5.5703,-5.5703,-5.5703,-5.5703,-5.5703,-5.5703,-5.5703,-5.5703,-5.5703,-5.5472,-5.4934,-5.4934,-5.4241,-5.2818,-5.2818,-5.2241,-5.1125,-5.1211,-5.1177]},{"header":{"parameterUnit":"m.s-1","parameterCategory":1,"la1":30.6,"la2":29.2853,"lo1":-89.7004,"lo2":-87.6739,"dy":0.0162,"dx":0.0183,"nx":112,"ny":82,"refTime":"2026-04-13T00:00:00:Z","depth":0,"parameterNumber":3,"parameterNumberName":"V-component_of_WINDS"},"data":[0.0,0.0,0.0,0.0,0.0,0.0,0.0,0.0,0.0,0.0,0.0,0.0,0.0,0.0,0.0,0.0,0.0,0.0,0.0,0.0,0.0,0.0,0.0,0.0,0.0,0.0,0.0,0.0,0.0,0.0,0.0,0.0,0.0,0.0,0.0,0.0,0.0,0.0,0.0,0.0,0.0,0.0,0.0,0.0,0.0,0.0,0.0,0.0,0.0,0.0,0.0,0.0,0.0,0.0,0.0,0.0,0.0,0.0,0.0,0.0,0.0,0.0,0.0,0.0,0.0,0.0,0.0,0.0,0.0,0.0,0.0,0.0,0.0,0.0,0.0,0.0,0.0,0.0,0.0,0.0,0.0,0.0,0.0,0.0,0.0,0.0,0.0,0.0,0.0,0.0,-0.3918,-0.4559,-0.5153,-0.5474,-0.5399,-0.49,-0.4477,-0.4207,0.0,0.0,0.0,0.0,0.0,0.0,0.0,0.0,0.0,0.0,0.0,0.0,0.0,0.0,0.0,0.0,0.0,0.0,0.0,0.0,0.0,0.0,0.0,0.0,0.0,0.0,0.0,0.0,0.0,0.0,0.0,0.0,0.0,0.0,0.0,0.0,0.0,0.0,0.0,0.0,0.0,0.0,0.0,0.0,0.0,0.0,0.0,0.0,0.0,0.0,0.0,0.0,0.0,0.0,0.0,0.0,0.0,0.0,0.0,0.0,0.0,0.0,0.0,0.0,0.0,0.0,0.0,0.0,0.0,0.0,0.0,0.0,0.0,0.0,0.0,0.0,0.0,0.0,0.0,0.0,0.0,0.0,0.0,0.0,0.0,0.0,0.0,0.0,0.0,0.0,0.0,0.0,0.0,0.0,0.0,0.0,0.0,0.0,0.0,0.0,0.0,0.0,0.0,0.0,-0.428,-0.5167,-0.5644,-0.5772,-0.5426,-0.5155,-0.4773,-0.4227,0.0,0.0,0.0,0.0,0.0,0.0,0.0,0.0,0.0,0.0,0.0,0.0,0.0,0.0,0.0,0.0,0.0,0.0,0.0,0.0,0.0,0.0,0.0,0.0,0.0,0.0,0.0,0.0,0.0,0.0,0.0,0.0,0.0,0.0,0.0,0.0,0.0,0.0,0.0,0.0,0.0,0.0,0.0,0.0,0.0,0.0,0.0,0.0,0.0,0.0,0.0,0.0,0.0,0.0,0.0,0.0,0.0,0.0,0.0,0.0,0.0,0.0,0.0,0.0,0.0,0.0,0.0,0.0,0.0,0.0,0.0,0.0,0.0,0.0,0.0,0.0,0.0,0.0,0.0,0.0,0.0,0.0,0.0,0.0,0.0,0.0,0.0,0.0,0.0,0.0,0.0,0.0,0.0,0.0,0.0,0.0,0.0,0.0,0.0,0.0,0.0,0.0,0.0,-0.4146,-0.484,-0.5528,-0.5861,-0.5915,-0.5623,-0.5311,-0.4847,-0.4234,-0.3706,0.0,0.0,0.0,0.0,0.0,0.0,0.0,0.0,0.0,0.0,0.0,0.0,0.0,0.0,0.0,0.0,0.0,0.0,0.0,0.0,0.0,0.0,0.0,0.0,0.0,0.0,0.0,0.0,0.0,0.0,0.0,0.0,0.0,0.0,0.0,0.0,0.0,0.0,0.0,0.0,0.0,0.0,0.0,0.0,0.0,0.0,0.0,0.0,0.0,0.0,0.0,0.0,0.0,0.0,0.0,0.0,0.0,0.0,0.0,0.0,0.0,0.0,0.0,0.0,0.0,0.0,0.0,0.0,0.0,0.0,0.0,0.0,0.0,0.0,0.0,0.0,0.0,0.0,0.0,0.0,0.0,0.0,0.0,0.0,0.0,0.0,0.0,0.0,0.0,0.0,0.0,0.0,0.0,0.0,0.0,0.0,0.0,0.0,0.0,0.0,0.0,0.0,-0.4786,-0.5345,-0.5759,-0.6003,-0.6044,-0.582,-0.542,-0.4887,-0.4234,-0.3615,0.0,0.0,0.0,0.0,0.0,0.0,0.0,0.0,0.0,0.0,0.0,0.0,0.0,0.0,0.0,0.0,0.0,0.0,0.0,0.0,0.0,0.0,0.0,0.0,0.0,0.0,0.0,0.0,0.0,0.0,0.0,0.0,0.0,0.0,0.0,0.0,0.0,0.0,0.0,0.0,0.0,0.0,0.0,0.0,0.0,0.0,0.0,0.0,0.0,0.0,0.0,0.0,0.0,0.0,0.0,0.0,0.0,0.0,0.0,0.0,0.0,0.0,0.0,0.0,0.0,0.0,0.0,0.0,0.0,0.0,0.0,0.0,0.0,0.0,0.0,0.0,0.0,0.0,0.0,0.0,0.0,0.0,0.0,0.0,0.0,0.0,0.0,0.0,0.0,0.0,0.0,0.0,0.0,0.0,0.0,0.0,0.0,0.0,0.0,0.0,0.0,0.0,-0.5003,-0.5494,-0.5766,-0.6186,-0.6268,-0.584,-0.5556,-0.5033,-0.4241,-0.3404,0.0,0.0,0.0,0.0,0.0,0.0,0.0,0.0,0.0,0.0,0.0,0.0,0.0,0.0,0.0,0.0,0.0,0.0,0.0,0.0,0.0,0.0,0.0,0.0,0.0,0.0,0.0,0.0,0.0,0.0,0.0,0.0,0.0,0.0,0.0,0.0,0.0,0.0,0.0,0.0,0.0,0.0,0.0,0.0,0.0,0.0,0.0,0.0,0.0,0.0,0.0,0.0,0.0,0.0,0.0,0.0,0.0,0.0,0.0,0.0,0.0,0.0,0.0,0.0,0.0,0.0,0.0,0.0,0.0,0.0,0.0,0.0,0.0,0.0,0.0,0.0,0.0,0.0,0.0,0.0,0.0,0.0,0.0,0.0,0.0,0.0,0.0,0.0,0.0,0.0,0.0,0.0,0.0,0.0,0.0,0.0,0.0,0.0,0.0,0.0,0.0,0.0,-0.5023,-0.5508,0.0,-0.6163,-0.6231,-0.5833,-0.5562,-0.5047,-0.4241,0.0,0.0,0.0,0.0,0.0,0.0,0.0,0.0,0.0,0.0,0.0,0.0,0.0,0.0,0.0,0.0,0.0,0.0,0.0,0.0,0.0,0.0,0.0,0.0,0.0,0.0,0.0,0.0,0.0,0.0,0.0,0.0,0.0,0.0,0.0,0.0,0.0,0.0,0.0,0.0,0.0,0.0,0.0,0.0,0.0,0.0,0.0,0.0,0.0,0.0,0.0,0.0,0.0,0.0,0.0,0.0,0.0,0.0,0.0,0.0,0.0,0.0,0.0,0.0,0.0,0.0,0.0,0.0,0.0,0.0,0.0,0.0,0.0,0.0,0.0,0.0,0.0,0.0,0.0,0.0,0.0,0.0,0.0,0.0,0.0,0.0,0.0,0.0,0.0,0.0,0.0,0.0,0.0,0.0,0.0,0.0,0.0,0.0,0.0,0.0,0.0,0.0,-0.4375,-0.5023,-0.5508,0.0,-0.6156,-0.6224,-0.5833,-0.5562,-0.5047,-0.4241,0.0,0.0,0.0,0.0,0.0,0.0,0.0,0.0,0.0,0.0,0.0,0.0,0.0,0.0,0.0,0.0,0.0,0.0,0.0,0.0,0.0,0.0,0.0,0.0,0.0,0.0,0.0,0.0,0.0,0.0,0.0,0.0,0.0,0.0,0.0,0.0,0.0,0.0,0.0,0.0,0.0,0.0,0.0,0.0,0.0,0.0,0.0,0.0,0.0,0.0,0.0,0.0,0.0,0.0,0.0,0.0,0.0,0.0,0.0,0.0,0.0,0.0,0.0,0.0,0.0,0.0,0.0,0.0,0.0,0.0,0.0,0.0,0.0,0.0,0.0,0.0,0.0,0.0,0.0,0.0,0.0,0.0,0.0,0.0,0.0,0.0,0.0,0.0,0.0,0.0,0.0,0.0,0.0,0.0,0.0,0.0,0.0,0.0,0.0,0.0,0.0,0.0,-0.4375,-0.5023,-0.5508,-0.5772,-0.62,-0.6327,-0.584,-0.5562,-0.5047,0.0,0.0,0.0,0.0,0.0,0.0,0.0,0.0,0.0,0.0,0.0,0.0,0.0,0.0,0.0,0.0,0.0,0.0,0.0,0.0,0.0,0.0,0.0,0.0,0.0,0.0,0.0,0.0,0.0,0.0,0.0,0.0,0.0,0.0,0.0,0.0,0.0,0.0,0.0,0.0,0.0,0.0,0.0,0.0,0.0,0.0,0.0,0.0,0.0,0.0,0.0,0.0,0.0,0.0,0.0,0.0,0.0,0.0,0.0,0.0,0.0,0.0,0.0,0.0,0.0,0.0,0.0,0.0,0.0,0.0,0.0,0.0,0.0,0.0,0.0,0.0,0.0,0.0,0.0,0.0,0.0,0.0,0.0,0.0,0.0,0.0,0.0,0.0,0.0,0.0,0.0,0.0,0.0,0.0,0.0,0.0,0.0,0.0,0.0,0.0,0.0,0.0,0.0,-0.4375,-0.5023,-0.5508,-0.5772,-0.6149,-0.6218,-0.5833,-0.5562,-0.5119,-0.4443,0.0,0.0,0.0,0.0,0.0,0.0,0.0,0.0,0.0,0.0,0.0,0.0,0.0,0.0,0.0,0.0,0.0,0.0,0.0,0.0,0.0,0.0,0.0,0.0,0.0,0.0,0.0,0.0,0.0,0.0,0.0,0.0,0.0,0.0,0.0,0.0,0.0,0.0,0.0,0.0,0.0,0.0,0.0,0.0,0.0,0.0,0.0,0.0,0.0,0.0,0.0,0.0,0.0,0.0,0.0,0.0,0.0,0.0,0.0,0.0,0.0,0.0,0.0,0.0,0.0,0.0,0.0,0.0,0.0,0.0,0.0,0.0,0.0,0.0,0.0,0.0,0.0,0.0,0.0,0.0,0.0,0.0,0.0,0.0,0.0,0.0,0.0,0.0,0.0,0.0,0.0,0.0,0.0,0.0,0.0,0.0,0.0,0.0,0.0,0.0,0.0,0.0,-0.4382,-0.5071,-0.5556,-0.5698,-0.5989,-0.6044,-0.5745,-0.544,-0.5071,-0.4525,0.0,0.0,0.0,0.0,0.0,0.0,0.0,0.0,0.0,0.0,0.0,0.0,0.0,0.0,0.0,0.0,0.0,0.0,0.0,0.0,0.0,0.0,0.0,0.0,0.0,0.0,0.0,0.0,0.0,0.0,0.0,0.0,0.0,0.0,0.0,0.0,0.0,0.0,0.0,0.0,0.0,0.0,0.0,0.0,0.0,0.0,0.0,0.0,0.0,0.0,0.0,0.0,0.0,0.0,0.0,0.0,0.0,0.0,0.0,0.0,0.0,0.0,0.0,0.0,0.0,0.0,0.0,0.0,0.0,0.0,0.0,0.0,0.0,0.0,0.0,0.0,0.0,0.0,0.0,0.0,0.0,0.0,0.0,0.0,0.0,0.0,0.0,0.0,0.0,0.0,0.0,0.0,0.0,0.0,0.0,0.0,0.0,0.0,0.0,0.0,0.0,0.0,-0.4395,-0.5153,-0.5589,-0.5589,-0.5854,-0.5872,-0.5616,-0.5304,-0.4938,-0.4518,0.0,0.0,0.0,0.0,0.0,0.0,0.0,0.0,0.0,0.0,0.0,0.0,0.0,0.0,0.0,0.0,0.0,0.0,0.0,0.0,0.0,0.0,0.0,0.0,0.0,0.0,0.0,0.0,0.0,0.0,0.0,0.0,0.0,0.0,0.0,0.0,0.0,0.0,0.0,0.0,0.0,0.0,0.0,0.0,0.0,0.0,0.0,0.0,0.0,0.0,0.0,0.0,0.0,0.0,0.0,0.0,0.0,0.0,0.0,0.0,-0.2019,-0.1893,0.0,0.0,0.0,0.0,0.0,0.0,0.0,0.0,0.0,0.0,0.0,0.0,0.0,0.0,0.0,0.0,0.0,0.0,0.0,0.0,0.0,0.0,0.0,0.0,0.0,0.0,0.0,0.0,0.0,0.0,0.0,0.0,0.0,0.0,0.0,0.0,0.0,0.0,0.0,0.0,-0.4409,-0.5153,-0.5589,-0.5589,-0.5854,-0.5872,-0.5616,-0.5304,-0.4938,-0.4518,-0.3708,0.0,0.0,0.0,0.0,0.0,0.0,0.0,0.0,0.0,0.0,0.0,0.0,0.0,0.0,0.0,0.0,0.0,0.0,0.0,0.0,0.0,0.0,0.0,0.0,0.0,0.0,0.0,0.0,0.0,0.0,0.0,0.0,0.0,0.0,0.0,0.0,0.0,0.0,0.0,0.0,0.0,0.0,0.0,0.0,0.0,0.0,0.0,0.0,0.0,0.0,0.0,0.0,0.0,0.0,0.0,0.0,0.0,0.0,0.0,-0.2475,-0.248,0.0,0.0,0.0,0.0,0.0,0.0,0.0,0.0,0.0,0.0,0.0,0.0,0.0,0.0,0.0,0.0,0.0,0.0,0.0,0.0,0.0,0.0,0.0,0.0,0.0,0.0,0.0,0.0,0.0,0.0,0.0,0.0,0.0,0.0,0.0,0.0,0.0,0.0,0.0,0.0,-0.4423,-0.5153,-0.5562,-0.5521,-0.5684,-0.5725,-0.5535,-0.5203,-0.4897,-0.4621,-0.3873,0.0,0.0,0.0,0.0,0.0,0.0,0.0,0.0,0.0,0.0,0.0,0.0,0.0,0.0,0.0,0.0,0.0,0.0,0.0,0.0,0.0,0.0,0.0,0.0,0.0,0.0,0.0,0.0,0.0,0.0,0.0,0.0,0.0,0.0,0.0,0.0,0.0,0.0,0.0,0.0,0.0,0.0,0.0,0.0,0.0,0.0,0.0,0.0,0.0,0.0,0.0,0.0,0.0,-0.0981,-0.1377,-0.171,-0.2239,-0.2452,-0.249,-0.2832,-0.2822,-0.2619,-0.2599,0.0,0.0,0.0,0.0,0.0,0.0,0.0,0.0,0.0,0.0,0.0,0.0,0.0,0.0,0.0,0.0,0.0,0.0,0.0,0.0,0.0,0.0,-0.5087,-0.5142,-0.5191,-0.5096,-0.4538,0.0,0.0,0.0,0.0,0.0,0.0,0.0,0.0,0.0,0.0,0.0,-0.4477,-0.5194,-0.5569,-0.5453,-0.5562,-0.5596,-0.5446,-0.5155,-0.4911,-0.4701,-0.4063,-0.3602,0.0,0.0,0.0,0.0,0.0,0.0,0.0,0.0,0.0,0.0,0.0,0.0,0.0,0.0,0.0,0.0,0.0,0.0,0.0,0.0,0.0,0.0,0.0,0.0,0.0,0.0,0.0,0.0,0.0,0.0,0.0,0.0,-0.0413,-0.035,0.0,0.0,0.0,0.0,0.0,0.0,0.0,0.0,0.0,0.0,0.0,0.0,0.0,-0.1051,-0.0648,-0.0205,-0.0257,-0.074,-0.1388,-0.1967,-0.2465,-0.3181,-0.355,-0.3601,-0.3641,0.0,-0.224,-0.2146,0.0,0.0,0.0,0.0,0.0,0.0,0.0,0.0,0.0,0.0,0.0,0.0,0.0,0.0,0.0,0.0,0.0,0.0,0.0,0.0,0.0,0.0,-0.5752,-0.6061,-0.5996,-0.5922,-0.5992,-0.5433,-0.484,-0.4599,-0.4429,-0.4177,0.0,0.0,0.0,0.0,0.0,0.0,-0.4619,-0.5311,-0.5718,-0.5576,-0.5806,-0.5861,-0.5583,-0.5433,-0.516,-0.4714,-0.4328,-0.395,-0.3568,-0.3323,0.0,0.0,0.0,0.0,0.0,0.0,0.0,0.0,0.0,0.0,0.0,0.0,0.0,0.0,0.0,0.0,0.0,0.0,0.0,0.0,0.0,0.0,0.0,0.0,0.0,0.0,0.0,0.0,0.0,-0.0756,-0.1073,-0.0914,-0.1035,-0.0963,0.0,0.0,0.0,0.0,0.0,0.0,0.0,0.0,0.0,-0.1162,-0.1171,-0.1022,-0.0704,-0.0237,-0.0295,-0.0942,-0.1804,-0.2476,-0.308,-0.3966,-0.4378,-0.4409,-0.4409,-0.4086,-0.3558,-0.3102,-0.3121,-0.3515,0.0,0.0,0.0,0.0,-0.5692,-0.58,-0.603,-0.604,-0.5883,-0.5754,0.0,0.0,0.0,0.0,0.0,0.0,0.0,-0.5228,-0.5623,-0.5956,-0.6234,-0.6458,-0.6458,-0.6424,-0.6491,-0.6179,-0.5772,-0.5386,-0.516,-0.4853,-0.4375,-0.3957,0.0,0.0,0.0,-0.4504,-0.4891,-0.5372,-0.5691,-0.5705,-0.5827,-0.5847,-0.5718,-0.5528,-0.531,-0.5112,-0.4626,-0.428,-0.4109,-0.369,-0.3303,0.0,0.0,0.0,0.0,0.0,0.0,0.0,0.0,0.0,0.0,0.0,0.0,0.0,0.0,0.0,0.0,0.0,0.0,0.0,0.0,0.0,0.0,0.0,0.0,0.0,0.0,0.0,0.0,-0.1134,-0.1518,-0.1288,-0.1452,-0.1375,0.0,0.0,0.0,0.0,0.0,0.0,-0.0375,-0.079,-0.1073,-0.1154,-0.1233,-0.1148,-0.0933,-0.0471,-0.0542,-0.1087,-0.2038,-0.277,-0.3409,-0.4438,-0.4929,-0.4987,-0.5046,-0.5092,-0.4994,-0.4199,-0.4103,-0.4476,-0.4675,-0.5103,-0.5659,-0.6351,-0.6634,-0.6736,-0.6953,-0.6871,-0.6695,-0.6654,-0.6231,-0.5733,-0.5692,0.0,0.0,0.0,0.0,-0.5942,-0.6202,-0.6505,-0.6784,-0.6892,-0.6932,-0.6919,-0.6878,-0.6749,-0.6498,-0.601,-0.5713,-0.5378,-0.4962,-0.4518,0.0,0.0,0.0,-0.4782,-0.5164,-0.5515,-0.5745,-0.5847,-0.5895,-0.5888,-0.5806,-0.5603,-0.546,-0.5344,-0.488,-0.4573,-0.4491,-0.3993,-0.3548,-0.3222,0.0,0.0,0.0,0.0,0.0,0.0,0.0,0.0,0.0,0.0,0.0,0.0,0.0,0.0,0.0,0.0,0.0,0.0,0.0,0.0,0.0,0.0,0.0,0.0,0.0,0.0,0.0,0.0,0.0,-0.1163,-0.1399,0.0,0.0,0.0,0.0,0.0,0.0,-0.0081,-0.031,-0.0668,-0.0962,-0.1117,-0.154,-0.1583,-0.1271,-0.0989,-0.1015,-0.1375,-0.2098,-0.2704,-0.3352,-0.4353,-0.494,-0.5229,-0.5526,-0.5814,-0.6067,-0.5025,-0.4814,-0.5107,-0.5432,-0.6007,-0.67,-0.7177,-0.7495,-0.7753,-0.7867,-0.782,-0.7712,-0.7577,-0.7122,-0.6607,-0.6497,-0.6354,0.0,0.0,-0.6519,-0.6715,-0.6964,-0.7204,-0.7412,-0.7516,-0.7556,-0.7516,-0.7366,-0.7217,-0.6889,-0.6388,-0.5989,-0.5684,-0.5412,0.0,-0.4894,-0.5036,-0.5063,-0.5177,-0.5528,-0.5827,-0.5973,-0.5979,-0.6152,-0.6156,-0.5827,-0.5786,-0.5596,-0.5137,-0.4955,-0.4769,-0.4505,-0.4165,-0.386,-0.3583,-0.3113,0.0,0.0,0.0,0.0,0.0,0.0,0.0,0.0,0.0,0.0,0.0,0.0,0.0,0.0,0.0,0.0,0.0,0.0,0.0,0.0,0.0,0.0,0.0,0.0,0.0,0.0,0.0,0.0,-0.1259,-0.1445,0.0,-0.0777,-0.0287,0.0,0.0,0.0,-0.0047,-0.0099,-0.0253,-0.0519,-0.1017,-0.1815,-0.2188,-0.2046,-0.1974,-0.2002,-0.2135,-0.2346,-0.2786,-0.3391,-0.4419,-0.5143,-0.5686,-0.6464,-0.703,-0.7434,-0.7713,-0.7226,-0.6327,-0.652,-0.6886,-0.74,-0.7838,-0.8018,-0.8126,-0.8275,-0.8228,-0.8052,-0.7712,-0.7387,-0.7102,-0.6946,-0.6865,-0.6837,-0.6885,-0.7014,-0.7156,-0.7265,-0.74,-0.7529,-0.759,-0.7597,-0.7556,-0.7453,-0.7177,-0.6896,-0.6729,-0.6525,-0.6315,-0.6149,-0.5951,-0.58,-0.5854,-0.5772,-0.5786,-0.6033,-0.6149,-0.6179,-0.6179,-0.6265,-0.6211,-0.5969,-0.5772,-0.5555,-0.5298,-0.4958,-0.4721,-0.4641,-0.4233,-0.3927,-0.374,-0.3276,-0.2924,0.0,0.0,0.0,0.0,0.0,0.0,0.0,0.0,0.0,0.0,0.0,0.0,0.0,0.0,0.0,0.0,0.0,0.0,0.0,0.0,0.0,0.0,0.0,0.0,0.0,0.0,-0.1351,-0.1102,-0.1299,-0.1217,-0.0732,-0.0277,0.0,0.0,0.0,0.0,0.0,0.0,-0.0276,-0.0953,-0.1955,-0.2398,-0.2296,-0.2389,-0.2354,-0.2187,-0.2147,-0.2401,-0.2954,-0.3876,-0.4613,-0.5287,-0.6263,-0.7018,-0.7621,-0.8546,-0.8258,-0.7248,-0.7702,-0.8049,-0.8295,-0.8501,-0.862,-0.862,-0.856,-0.8499,-0.8364,-0.8011,-0.7828,-0.7726,-0.7624,-0.759,-0.7584,-0.7536,-0.7597,-0.7712,-0.7611,-0.7672,-0.7746,-0.7746,-0.7746,-0.7692,-0.7495,-0.7251,-0.7048,-0.6903,-0.6763,-0.6607,-0.6559,-0.647,-0.6388,-0.6443,-0.6274,-0.6234,-0.6429,-0.6402,-0.6368,-0.6368,-0.6327,-0.6218,-0.5969,-0.5732,-0.5501,-0.5298,-0.4911,-0.4694,-0.4694,-0.4281,-0.3998,-0.3873,-0.3404,-0.3007,-0.2696,0.0,0.0,0.0,0.0,0.0,0.0,0.0,0.0,0.0,0.0,0.0,0.0,0.0,0.0,0.0,0.0,0.0,0.0,0.0,0.0,0.0,0.0,0.0,-0.0269,-0.0757,-0.0961,-0.0625,-0.0888,-0.0876,-0.0454,-0.0149,0.0,0.0,0.0,0.0,0.0,0.0,-0.0276,-0.0896,-0.1881,-0.2261,-0.1947,-0.2218,-0.207,-0.1485,-0.1483,-0.1605,-0.1975,-0.259,-0.3209,-0.3887,-0.4865,-0.5663,-0.6399,-0.72,-0.7513,-0.7617,-0.8851,-0.9323,-0.9303,-0.9211,-0.9157,-0.911,-0.8763,-0.8662,-0.8629,-0.854,-0.8486,-0.8479,-0.8479,-0.8472,-0.8445,-0.8303,-0.8313,-0.8221,-0.8029,-0.7988,-0.7982,-0.7988,-0.7988,-0.7907,-0.7665,-0.7482,-0.7285,-0.6993,-0.6695,-0.6573,-0.6681,-0.6586,-0.6546,-0.6695,-0.6586,0.0,-0.6688,-0.658,-0.6525,-0.6511,-0.6388,-0.6177,-0.5827,-0.5671,-0.546,-0.511,-0.485,-0.4687,-0.468,-0.4375,-0.412,-0.3991,-0.353,-0.3114,-0.271,0.0,0.0,0.0,0.0,0.0,0.0,0.0,0.0,0.0,0.0,0.0,0.0,0.0,0.0,0.0,0.0,0.0,0.0,0.0,0.0,0.0,0.0,-0.0036,-0.0073,-0.0207,-0.0273,-0.0191,-0.0257,-0.0269,-0.0107,-0.0054,0.0,0.0,0.0,0.0,0.0,0.0,-0.0276,-0.0953,-0.1922,-0.2456,-0.2315,-0.2434,-0.2154,-0.1466,-0.0765,-0.0447,-0.0574,-0.0765,-0.121,-0.1846,-0.2829,-0.3628,-0.4309,-0.5223,-0.562,-0.5786,-0.7354,-0.7927,-0.7921,-0.7887,-0.787,-0.7822,-0.7887,-0.798,-0.8104,-0.8287,-0.8415,-0.8465,-0.8364,-0.8381,-0.8296,-0.8147,-0.8024,-0.7957,-0.7975,-0.7907,-0.7902,-0.7961,-0.7988,-0.7907,-0.7665,-0.7482,-0.7312,-0.7078,-0.6889,-0.6817,-0.6858,-0.6876,-0.693,-0.697,-0.6943,0.0,-0.6829,-0.6831,-0.6715,-0.6538,-0.6477,-0.6286,-0.5833,-0.5671,-0.5413,-0.4975,-0.4796,-0.4668,-0.4559,-0.4321,-0.4099,-0.386,-0.3499,-0.3196,0.0,0.0,0.0,0.0,0.0,0.0,0.0,0.0,0.0,0.0,0.0,0.0,0.0,0.0,0.0,0.0,0.0,0.0,0.0,0.0,0.0,0.0,0.0,0.0,0.0,0.0,0.0,0.0,0.0,0.0,0.0,0.0,0.0,0.0,0.0,0.0,0.0,0.0,-0.0223,-0.0736,-0.1592,-0.2002,-0.1851,-0.1968,-0.1739,-0.1097,-0.0323,0.0,0.0,0.0,-0.0257,-0.0831,-0.1708,-0.2384,-0.2866,-0.3766,-0.4122,-0.4236,0.0,0.0,0.0,0.0,-0.6219,-0.6173,-0.653,-0.6953,-0.7436,-0.7889,-0.831,-0.8648,-0.8499,-0.8411,-0.8316,-0.8049,-0.788,-0.7821,-0.7848,-0.7834,-0.7834,-0.7923,-0.7941,-0.7928,-0.774,-0.757,-0.7421,-0.7265,-0.717,0.0,-0.6984,-0.7045,-0.7098,-0.7098,-0.7098,-0.7065,-0.6984,-0.6923,-0.6858,-0.6681,-0.6552,-0.6381,-0.6023,-0.5745,0.0,0.0,0.0,-0.4714,-0.4593,-0.4416,0.0,0.0,0.0,0.0,0.0,0.0,0.0,0.0,-0.3242,-0.3303,0.0,0.0,0.0,0.0,0.0,0.0,0.0,0.0,0.0,0.0,0.0,0.0,0.0,0.0,0.0,0.0,0.0,0.0,0.0,0.0,0.0,0.0,0.0,0.0,0.0,0.0,0.0,0.0,0.0,0.0,0.0,0.0,0.0,0.0,0.0,-0.116,-0.0807,-0.115,-0.1037,-0.0454,-0.013,0.0,0.0,0.0,-0.0193,-0.0508,-0.1076,-0.1504,-0.1793,-0.2404,-0.2648,-0.2772,-0.418,-0.4671,-0.4664,-0.453,-0.4403,-0.4399,-0.5012,0.0,0.0,-0.7182,-0.7986,-0.8686,-0.8574,-0.8481,-0.8314,-0.8026,-0.788,-0.7787,-0.7678,-0.7733,-0.7814,-0.7834,-0.7894,-0.7948,-0.7841,-0.7712,-0.7577,-0.7473,-0.7446,-0.7346,-0.7146,-0.7105,-0.7098,-0.7098,-0.7085,-0.7078,-0.7092,-0.6991,-0.6903,-0.6889,0.0,0.0,-0.6313,-0.5931,-0.5624,-0.5433,-0.5108,-0.4877,-0.4721,-0.46,-0.4429,-0.4247,-0.4126,-0.4051,-0.4072,-0.422,-0.4382,-0.458,-0.4013,-0.388,0.0,0.0,0.0,0.0,0.0,0.0,0.0,0.0,0.0,0.0,0.0,0.0,0.0,0.0,0.0,0.0,0.0,0.0,0.0,0.0,0.0,0.0,0.0,0.0,0.0,0.0,0.0,0.0,0.0,0.0,0.0,0.0,0.0,-0.0059,-0.0245,-0.0252,-0.0192,-0.0263,-0.02,-0.0067,0.0,0.0,0.0,0.0,-0.0066,-0.0131,-0.0258,-0.0319,-0.0377,-0.0496,-0.0555,-0.074,-0.2648,-0.3384,-0.338,-0.321,-0.3125,-0.3224,-0.3766,-0.4529,-0.537,-0.5953,-0.676,-0.7503,-0.7487,-0.761,0.0,-0.7673,-0.7733,-0.7834,-0.788,-0.7882,-0.7841,-0.7914,-0.7968,-0.7948,-0.7841,-0.7787,-0.7726,-0.7584,-0.7556,-0.7509,-0.7353,-0.7224,-0.7098,-0.7098,-0.6997,-0.697,-0.7085,-0.7071,-0.7011,-0.6896,-0.6836,-0.6681,-0.6334,-0.6218,-0.5999,-0.5569,-0.5257,-0.4995,-0.4877,-0.4728,-0.4633,-0.4606,-0.4484,-0.4464,-0.4565,-0.4685,-0.4925,-0.5214,-0.4823,-0.4719,0.0,0.0,0.0,0.0,0.0,0.0,0.0,0.0,0.0,0.0,0.0,0.0,0.0,0.0,0.0,0.0,0.0,0.0,0.0,0.0,0.0,0.0,0.0,0.0,0.0,0.0,0.0,0.0,0.0,0.0,0.0,0.0,0.0,0.0,0.0,0.0,0.0,0.0,0.0,0.0,0.0,0.0,0.0,0.0,0.0,0.0,0.0,0.0,0.0,0.0,0.0,-0.0123,-0.111,-0.148,-0.1479,-0.1406,-0.1402,-0.1457,-0.2058,-0.2844,-0.364,-0.4227,-0.5083,-0.5895,-0.607,-0.652,-0.702,-0.719,-0.754,-0.7874,-0.7874,-0.7874,-0.7874,-0.7874,-0.7934,-0.7968,-0.7894,-0.7874,-0.7902,-0.7834,-0.7821,-0.7773,-0.7617,-0.7468,-0.7274,-0.7119,-0.6977,-0.691,-0.6984,-0.6991,-0.6964,-0.6896,-0.6883,-0.6837,-0.6614,-0.6429,-0.6108,-0.5616,-0.5447,-0.5257,-0.5002,-0.4952,-0.4877,-0.4809,-0.4728,-0.4802,-0.5057,-0.5101,-0.5332,-0.5691,-0.5542,-0.544,0.0,0.0,0.0,0.0,0.0,0.0,0.0,0.0,0.0,0.0,0.0,0.0,0.0,0.0,0.0,0.0,0.0,0.0,0.0,0.0,0.0,0.0,0.0,0.0,0.0,0.0,0.0,0.0,0.0,0.0,0.0,0.0,0.0,0.0,0.0,0.0,0.0,0.0,0.0,0.0,0.0,0.0,0.0,0.0,0.0,0.0,0.0,0.0,0.0,0.0,0.0,0.0,0.0,0.0,0.0,0.0,0.0,-0.0061,-0.0595,-0.135,-0.2095,-0.2656,-0.341,-0.4237,-0.4658,-0.5339,-0.6052,-0.6469,-0.7139,-0.7742,-0.7592,-0.7644,-0.7696,-0.7645,-0.7753,-0.7839,-0.7889,-0.7939,-0.7988,-0.7988,-0.7988,-0.7941,-0.7834,-0.7719,-0.7536,-0.7186,-0.6997,-0.6883,-0.6883,-0.6862,-0.6856,-0.6883,-0.6883,-0.6883,-0.6883,-0.6546,-0.6177,-0.5745,-0.5664,-0.5508,-0.5197,-0.5157,-0.5121,-0.5006,-0.5006,-0.5148,-0.5481,-0.5481,-0.5664,-0.6071,-0.6071,-0.601,0.0,0.0,0.0,0.0,0.0,0.0,0.0,0.0,0.0,0.0,0.0,0.0,0.0,0.0,0.0,0.0,0.0,0.0,0.0,0.0,0.0,0.0,0.0,0.0,0.0,0.0,0.0,0.0,0.0,0.0,0.0,0.0,0.0,0.0,0.0,0.0,0.0,0.0,0.0,0.0,0.0,0.0,0.0,0.0,0.0,0.0,0.0,0.0,0.0,0.0,0.0,0.0,0.0,0.0,0.0,0.0,0.0,-0.006,-0.0356,-0.0875,-0.1437,-0.1805,-0.2353,-0.3015,-0.3458,-0.4195,-0.4978,-0.5426,-0.6185,-0.6835,-0.6765,-0.6742,-0.6771,-0.6904,-0.7129,-0.7341,-0.7596,-0.7839,-0.7988,-0.7988,-0.7988,-0.7941,-0.7834,-0.7801,-0.7685,-0.7394,-0.7109,-0.6883,-0.6883,-0.681,-0.6776,-0.6869,-0.6883,-0.6883,-0.6883,-0.6634,-0.6416,-0.6238,-0.5928,-0.5705,-0.5549,-0.544,-0.5358,-0.5344,-0.5344,-0.5494,-0.5752,-0.5752,-0.5915,-0.6272,-0.6272,-0.6265,0.0,0.0,0.0,0.0,0.0,0.0,0.0,0.0,0.0,0.0,0.0,0.0,0.0,0.0,0.0,0.0,0.0,0.0,0.0,0.0,0.0,0.0,0.0,0.0,0.0,0.0,0.0,0.0,0.0,0.0,0.0,0.0,0.0,0.0,0.0,0.0,0.0,0.0,0.0,0.0,0.0,0.0,0.0,0.0,0.0,0.0,0.0,0.0,0.0,0.0,0.0,0.0,0.0,0.0,0.0,0.0,0.0,0.0,-0.0118,-0.035,-0.0574,-0.0733,-0.0897,-0.1231,-0.1779,-0.2547,-0.3369,-0.3893,-0.4706,-0.5381,-0.5233,-0.5195,-0.5261,-0.5569,-0.6082,-0.6631,-0.7036,-0.759,-0.7988,-0.7988,-0.7988,-0.7968,-0.7907,-0.7894,-0.7841,-0.755,-0.7177,-0.6856,-0.681,-0.6661,-0.6661,-0.6862,-0.6883,-0.6883,-0.6883,-0.6729,-0.6505,-0.6313,-0.6057,-0.5867,-0.5718,-0.565,-0.5616,-0.5616,-0.5616,-0.5725,-0.5899,-0.5899,-0.6044,-0.63,-0.63,-0.63,0.0,0.0,0.0,0.0,0.0,0.0,0.0,0.0,0.0,0.0,0.0,0.0,0.0,0.0,0.0,0.0,0.0,0.0,0.0,0.0,0.0,0.0,0.0,0.0,0.0,0.0,0.0,0.0,0.0,0.0,0.0,0.0,0.0,0.0,0.0,0.0,0.0,0.0,0.0,0.0,0.0,0.0,0.0,0.0,0.0,0.0,0.0,0.0,0.0,0.0,0.0,0.0,0.0,0.0,0.0,0.0,0.0,0.0,0.0,0.0,0.0,0.0,0.0,-0.0112,-0.0617,-0.1344,-0.2069,-0.2574,-0.3357,-0.3944,-0.3826,-0.3781,-0.3896,-0.434,-0.5144,-0.5932,-0.6581,-0.7385,-0.7988,-0.7988,-0.7988,-0.7988,-0.7988,-0.7988,-0.7887,-0.7645,-0.7285,-0.6966,-0.6729,-0.6566,-0.6573,-0.6837,-0.6862,-0.6903,-0.6943,-0.6851,-0.6675,-0.6497,-0.6261,-0.6105,-0.5989,-0.5949,-0.5928,-0.5928,-0.5928,-0.6003,-0.6152,-0.6152,-0.6234,-0.6422,-0.6422,-0.6422,0.0,0.0,0.0,0.0,0.0,0.0,0.0,0.0,0.0,0.0,0.0,0.0,0.0,0.0,0.0,0.0,0.0,0.0,0.0,0.0,0.0,0.0,0.0,0.0,0.0,0.0,0.0,0.0,0.0,0.0,0.0,0.0,0.0,0.0,0.0,0.0,0.0,0.0,0.0,0.0,0.0,0.0,0.0,0.0,0.0,0.0,0.0,0.0,0.0,0.0,0.0,0.0,0.0,0.0,0.0,0.0,0.0,0.0,0.0,0.0,0.0,0.0,0.0,-0.0056,-0.0336,-0.0841,-0.1402,-0.1738,-0.2298,-0.2734,-0.2686,-0.264,-0.2806,-0.3483,-0.4438,-0.5432,-0.6237,-0.7235,-0.7988,-0.7988,-0.7988,-0.7988,-0.7988,-0.7988,-0.7887,-0.7645,-0.7461,-0.7197,-0.6756,-0.6566,-0.6573,-0.6688,-0.6844,-0.6943,-0.7078,-0.6957,-0.6876,-0.6869,-0.6627,-0.6497,-0.6491,-0.6361,-0.6286,-0.6286,-0.6286,-0.6354,-0.6497,-0.6497,-0.6539,-0.6688,-0.6688,-0.6688,0.0,0.0,0.0,0.0,0.0,0.0,0.0,0.0,0.0,0.0,0.0,0.0,0.0,0.0,0.0,0.0,0.0,0.0,0.0,0.0,0.0,0.0,0.0,0.0,0.0,0.0,0.0,0.0,0.0,0.0,0.0,0.0,0.0,0.0,0.0,0.0,0.0,0.0,0.0,0.0,0.0,0.0,0.0,0.0,0.0,0.0,0.0,0.0,0.0,0.0,0.0,0.0,0.0,0.0,0.0,0.0,0.0,0.0,0.0,0.0,0.0,0.0,0.0,0.0,-0.0112,-0.028,-0.0449,-0.0561,-0.0728,-0.0893,-0.0879,-0.0864,-0.1113,-0.203,-0.3366,-0.4672,-0.5632,-0.6986,-0.7988,-0.7988,-0.7988,-0.7988,-0.7988,-0.7988,-0.7853,-0.7509,-0.7149,-0.6837,-0.658,-0.6545,-0.6573,-0.6681,-0.6837,-0.6943,-0.7085,-0.6964,-0.6883,-0.6883,-0.6736,-0.662,-0.662,-0.658,-0.6552,-0.6552,-0.6552,-0.6573,-0.662,-0.662,-0.6647,-0.6702,-0.6702,-0.6702,0.0,0.0,0.0,0.0,0.0,0.0,0.0,0.0,0.0,0.0,0.0,0.0,0.0,0.0,0.0,0.0,0.0,0.0,0.0,0.0,0.0,0.0,0.0,0.0,0.0,0.0,0.0,0.0,0.0,0.0,0.0,0.0,0.0,0.0,0.0,0.0,0.0,0.0,0.0,0.0,0.0,0.0,0.0,0.0,0.0,0.0,0.0,0.0,0.0,0.0,0.0,0.0,0.0,0.0,0.0,0.0,0.0,0.0,0.0,0.0,0.0,0.0,0.0,0.0,0.0,0.0,0.0,0.0,0.0,0.0,0.0,0.0,-0.0268,-0.1272,-0.2639,-0.4008,-0.4981,-0.6364,-0.7441,-0.7441,-0.7441,-0.7441,-0.7441,-0.7397,-0.7259,-0.6991,-0.658,-0.6344,-0.6465,-0.6559,-0.6593,-0.6688,-0.6837,-0.6943,-0.7085,-0.7011,-0.6964,-0.6964,-0.6912,-0.6858,-0.6858,-0.6858,-0.6858,-0.6858,-0.6858,-0.6858,-0.6858,-0.6858,-0.6858,-0.6858,-0.6858,-0.6858,0.0,0.0,0.0,0.0,0.0,0.0,0.0,0.0,0.0,0.0,0.0,0.0,0.0,0.0,0.0,0.0,0.0,0.0,0.0,0.0,0.0,0.0,0.0,0.0,0.0,0.0,0.0,0.0,0.0,0.0,0.0,0.0,0.0,0.0,0.0,0.0,0.0,0.0,0.0,0.0,0.0,0.0,0.0,0.0,0.0,0.0,0.0,0.0,0.0,0.0,0.0,0.0,0.0,0.0,0.0,0.0,0.0,0.0,0.0,0.0,0.0,0.0,0.0,0.0,0.0,0.0,0.0,0.0,0.0,0.0,0.0,0.0,-0.0219,-0.1093,-0.2231,-0.336,-0.4243,-0.5403,-0.6287,-0.6287,-0.6287,-0.6287,-0.6287,-0.6147,-0.6037,-0.6016,-0.571,-0.5741,-0.635,-0.6538,-0.6632,-0.6632,-0.6759,-0.6907,-0.6997,-0.701,-0.701,-0.701,-0.7054,-0.7054,-0.7054,-0.7098,-0.7098,-0.7098,-0.7098,-0.7098,-0.7098,-0.7098,-0.7098,-0.7098,-0.7098,-0.7098,0.0,0.0,0.0,0.0,0.0,0.0,0.0,0.0,0.0,0.0,0.0,0.0,0.0,0.0,0.0,0.0,0.0,0.0,0.0,0.0,0.0,0.0,0.0,0.0,0.0,0.0,0.0,0.0,0.0,0.0,0.0,0.0,0.0,0.0,0.0,0.0,0.0,0.0,0.0,0.0,0.0,0.0,0.0,0.0,0.0,0.0,0.0,0.0,0.0,0.0,0.0,0.0,0.0,0.0,0.0,0.0,0.0,0.0,0.0,0.0,0.0,0.0,0.0,0.0,0.0,0.0,0.0,0.0,0.0,0.0,0.0,0.0,-0.0164,-0.0765,-0.1647,-0.2482,-0.3104,-0.3974,-0.4618,-0.4618,-0.4618,-0.4618,-0.4618,-0.4602,-0.451,-0.438,-0.433,-0.4606,-0.5641,-0.5783,-0.58,-0.58,-0.5909,-0.6039,-0.6074,-0.6074,-0.6074,-0.6074,-0.6257,-0.6435,-0.6561,-0.6789,-0.6966,-0.7098,-0.7098,-0.7098,-0.7098,-0.7098,-0.7098,-0.7098,-0.7098,-0.7098,0.0,0.0,0.0,0.0,0.0,0.0,0.0,0.0,0.0,0.0,0.0,0.0,0.0,0.0,0.0,0.0,0.0,0.0,0.0,0.0,0.0,0.0,0.0,0.0,0.0,0.0,0.0,0.0,0.0,0.0,0.0,0.0,0.0,0.0,0.0,0.0,0.0,0.0,0.0,0.0,0.0,0.0,0.0,0.0,0.0,0.0,0.0,0.0,0.0,0.0,0.0,0.0,0.0,0.0,0.0,0.0,0.0,0.0,0.0,0.0,0.0,0.0,0.0,0.0,0.0,0.0,0.0,0.0,0.0,0.0,0.0,0.0,-0.0111,-0.0497,-0.113,-0.1782,-0.22,-0.2822,-0.3318,-0.3318,-0.3318,-0.3318,-0.3318,-0.3318,-0.3241,-0.3155,-0.3141,-0.3355,-0.399,-0.4427,-0.4661,-0.4577,-0.47,-0.4776,-0.4776,-0.4776,-0.4776,-0.4776,-0.5092,-0.5497,-0.5941,-0.6302,-0.67,-0.7098,-0.7098,-0.7098,-0.7098,-0.7098,-0.7098,-0.7098,-0.7098,-0.7098,0.0,0.0,0.0,0.0,0.0,0.0,0.0,0.0,0.0,0.0,0.0,0.0,0.0,0.0,0.0,0.0,0.0,0.0,0.0,0.0,0.0,0.0,0.0,0.0,0.0,0.0,0.0,0.0,0.0,0.0,0.0,0.0,0.0,0.0,0.0,0.0,0.0,0.0,0.0,0.0,0.0,0.0,0.0,0.0,0.0,0.0,0.0,0.0,0.0,0.0,0.0,0.0,0.0,0.0,0.0,0.0,0.0,0.0,0.0,0.0,0.0,0.0,0.0,0.0,0.0,0.0,0.0,0.0,0.0,0.0,0.0,0.0,-0.0056,-0.028,-0.071,-0.1118,-0.1438,-0.1812,-0.2068,-0.2068,-0.2068,-0.2068,-0.2068,-0.2068,-0.2043,-0.2018,-0.2007,-0.198,-0.1905,-0.2779,-0.3373,-0.3272,-0.3352,-0.3393,-0.3393,-0.3393,-0.3393,-0.3393,-0.3842,-0.4425,-0.5181,-0.5675,-0.6213,-0.6922,-0.6922,-0.6922,-0.6922,-0.6922,-0.6922,-0.6922,-0.6966,-0.6966,0.0,0.0,0.0,0.0,0.0,0.0,0.0,0.0,0.0,0.0,0.0,0.0,0.0,0.0,0.0,0.0,0.0,0.0,0.0,0.0,0.0,0.0,0.0,0.0,0.0,0.0,0.0,0.0,0.0,0.0,0.0,0.0,0.0,0.0,0.0,0.0,0.0,0.0,0.0,0.0,0.0,0.0,0.0,0.0,0.0,0.0,0.0,0.0,0.0,0.0,0.0,0.0,0.0,0.0,0.0,0.0,0.0,0.0,0.0,0.0,0.0,0.0,0.0,0.0,0.0,0.0,0.0,0.0,0.0,0.0,0.0,0.0,0.0,-0.0056,-0.0164,-0.0213,-0.0267,-0.0363,-0.0404,-0.0404,-0.0404,-0.0404,-0.0404,-0.0404,-0.0401,-0.0392,-0.0391,-0.0387,-0.0378,-0.1606,-0.2426,-0.2417,-0.2417,-0.2462,-0.2462,-0.2462,-0.2462,-0.2462,-0.2864,-0.3448,-0.4117,-0.4652,-0.5275,-0.5941,-0.5941,-0.5941,-0.5941,-0.5941,-0.5941,-0.5941,-0.6169,-0.6346,0.0,0.0,0.0,0.0,0.0,0.0,0.0,0.0,0.0,0.0,0.0,0.0,0.0,0.0,0.0,0.0,0.0,0.0,0.0,0.0,0.0,0.0,0.0,0.0,0.0,0.0,0.0,0.0,0.0,0.0,0.0,0.0,0.0,0.0,0.0,0.0,0.0,0.0,0.0,0.0,0.0,0.0,0.0,0.0,0.0,0.0,0.0,0.0,0.0,0.0,0.0,0.0,0.0,0.0,0.0,0.0,0.0,0.0,0.0,0.0,0.0,0.0,0.0,0.0,0.0,0.0,0.0,0.0,0.0,0.0,0.0,0.0,0.0,0.0,0.0,0.0,0.0,0.0,0.0,0.0,0.0,0.0,0.0,0.0,0.0,0.0,0.0,0.0,0.0,-0.0599,-0.1051,-0.1063,-0.1045,-0.1036,-0.1047,-0.1038,-0.1077,-0.1077,-0.1479,-0.2059,-0.2774,-0.331,-0.389,-0.4599,-0.4599,-0.4599,-0.4599,-0.4599,-0.4599,-0.4599,-0.5003,-0.5408,0.0,0.0,0.0,0.0,0.0,0.0,0.0,0.0,0.0,0.0,0.0,0.0,0.0,0.0,0.0,0.0,0.0,0.0,0.0,0.0,0.0,0.0,0.0,0.0,0.0,0.0,0.0,0.0,0.0,0.0,0.0,0.0,0.0,0.0,0.0,0.0,0.0,0.0,0.0,0.0,0.0,0.0,0.0,0.0,0.0,0.0,0.0,0.0,0.0,0.0,0.0,0.0,0.0,0.0,0.0,0.0,0.0,0.0,0.0,0.0,0.0,0.0,0.0,0.0,0.0,0.0,0.0,0.0,0.0,0.0,0.0,0.0,0.0,0.0,0.0,0.0,0.0,0.0,0.0,0.0,0.0,0.0,0.0,0.0,0.0,0.0,0.0,0.0,0.0,0.0,0.0,0.0,0.0,0.0,0.0,0.0,0.0,0.0,-0.0404,-0.0941,-0.1612,-0.2059,-0.2596,-0.3304,-0.3304,-0.3304,-0.3304,-0.3304,-0.3304,-0.3304,-0.3798,-0.438,0.0,0.0,0.0,0.0,0.0,0.0,0.0,0.0,0.0,0.0,0.0,0.0,0.0,0.0,0.0,0.0,0.0,0.0,0.0,0.0,0.0,0.0,0.0,0.0,0.0,0.0,0.0,0.0,0.0,0.0,0.0,0.0,0.0,0.0,0.0,0.0,0.0,0.0,0.0,0.0,0.0,0.0,0.0,0.0,0.0,0.0,0.0,0.0,0.0,0.0,0.0,0.0,0.0,0.0,0.0,0.0,0.0,0.0,0.0,0.0,0.0,0.0,0.0,0.0,0.0,0.0,0.0,0.0,0.0,0.0,0.0,0.0,0.0,0.0,0.0,0.0,0.0,0.0,0.0,0.0,0.0,0.0,0.0,0.0,0.0,0.0,0.0,0.0,0.0,0.0,0.0,0.0,0.0,0.0,0.0,0.0,0.0,0.0,-0.0269,-0.0628,-0.1165,-0.1389,-0.1748,-0.2327,-0.2327,-0.2327,-0.2327,-0.2327,-0.2327,-0.2327,-0.2822,-0.3403,0.0257,0.0106,0.0054,0.0204,0.0287,0.0353,0.0434,0.0,0.0602,0.0537,0.0546,0.0507,0.0428,0.0323,0.0215,0.0132,0.0037,0.0,0.0,0.0,0.0,0.0,0.0,0.0,0.0,0.0,0.0,0.0,0.0,0.0,0.0,0.0,0.0,0.0,0.0,0.0,0.0,0.0,0.0,0.0,0.0,0.0,0.0,0.0,0.0,0.0,0.0,0.0,0.0,0.0,0.0,0.0,0.0,0.0,0.0,0.0,0.0,0.0,0.0,0.0,0.0,0.0,0.0,0.0,0.0,0.0,0.0,0.0,0.0,0.0,0.0,0.0,0.0,0.0,0.0,0.0,0.0,0.0,0.0,0.0,0.0,0.0,0.0,0.0,0.0,0.0,0.0,0.0,0.0,0.0,0.0,0.0,0.0,0.0,0.0,0.0,0.0,0.0,-0.0093,-0.0233,-0.0419,-0.0512,-0.0651,-0.0884,-0.0884,-0.0884,-0.0884,-0.0884,-0.0884,-0.0884,-0.1349,-0.1952,0.0497,0.0258,0.0053,0.0395,0.0556,0.0727,0.0,0.1225,0.1328,0.1289,0.128,0.1231,0.1065,0.0799,0.0561,0.0374,0.0137,0.0,0.0,0.0,0.0,0.0,0.0,0.0,0.0,0.0,0.0,0.0,0.0,0.0,0.0,0.0,0.0,0.0,0.0,0.0,0.0,0.0,0.0,0.0,0.0,0.0,0.0,0.0,0.0,0.0,0.0,0.0,0.0,0.0,0.0,0.0,0.0,0.0,0.0,0.0,0.0,0.0,0.0,0.0,0.0,0.0,0.0,0.0,0.0,0.0,0.0,0.0,0.0,0.0,0.0,0.0,0.0,0.0,0.0,0.0,0.0,0.0,0.0,0.0,0.0,0.0,0.0,0.0,0.0,0.0,0.0,0.0,0.0,0.0,0.0,0.0,0.0,0.0,0.0,0.0,0.0,0.0,0.0,0.0,0.0,0.0,0.0,0.0,0.0,0.0,0.0,0.0,0.0,0.0,-0.0429,-0.1096,0.068,0.0307,0.0105,0.0486,0.0852,0.1184,0.0,0.1956,0.218,0.2191,0.2174,0.2094,0.1846,0.1399,0.1018,0.0733,0.0311,0.0,0.0,0.0,0.0,0.0,0.0,0.0,0.0,0.0,0.0,0.0,0.0,0.0,0.0,0.0,0.0,0.0,0.0,0.0,0.0,0.0,0.0,0.0,0.0,0.0,0.0,0.0,0.0,0.0,0.0,0.0,0.0,0.0,0.0,0.0,0.0,0.0,0.0,0.0,0.0,0.0,0.0,0.0,0.0,0.0,0.0,0.0,0.0,0.0,0.0,0.0,0.0,0.0,0.0,0.0,0.0,0.0,0.0,0.0,0.0,0.0,0.0,0.0,0.0,0.0,0.0,0.0,0.0,0.0,0.0,0.0,0.0,0.0,0.0,0.0,0.0,0.0,0.0,0.0,0.0,0.0,0.0,0.0,0.0,0.0,0.0,0.0,0.0,0.0,0.0,0.0,0.0,0.0,-0.0286,-0.1048,0.1706,0.1284,0.0986,0.1511,0.1782,0.2027,0.2469,0.275,0.288,0.2811,0.2822,0.2738,0.246,0.2041,0.1583,0.1169,0.0651,0.0,0.0,0.0,0.0,0.0,0.0,0.0,0.0,0.0,0.0,0.0,0.0,0.0,0.0,0.0,0.0,0.0,0.0,0.0,0.0,0.0,0.0,0.0,0.0,0.0,0.0,0.0,0.0,0.0,0.0,0.0,0.0,0.0,0.0,0.0,0.0,0.0,0.0,0.0,0.0,0.0,0.0,0.0,0.0,0.0,0.0,0.0,0.0,0.0,0.0,0.0,0.0,0.0,0.0,0.0,0.0,0.0,0.0,0.0,0.0,0.0,0.0,0.0,0.0,0.0,0.0,0.0,0.0,0.0,0.0,0.0,0.0,0.0,0.0,0.0,0.0,0.0,0.0,0.0,0.0,0.0,0.0,0.0,0.0,0.0,0.0,0.0,0.0,0.0,0.0,0.0,0.0,0.0,-0.0099,-0.0546,0.0,0.202,0.1773,0.2258,0.2547,0.2807,0.3276,0.3549,0.3664,0.3644,0.3627,0.3544,0.3239,0.2822,0.2363,0.1839,0.1146,0.0585,0.0,0.0,0.0,0.0,0.0,0.0,0.0,0.0,0.0,0.0,0.0,0.0,0.0,0.0,0.0,0.0,0.0,0.0,0.0,0.0,0.0,0.0,0.0,0.0,0.0,0.0,0.0,0.0,0.0,0.0,0.0,0.0,0.0,0.0,0.0,0.0,0.0,0.0,0.0,0.0,0.0,0.0,0.0,0.0,0.0,0.0,0.0,0.0,0.0,0.0,0.0,0.0,0.0,0.0,0.0,0.0,0.0,0.0,0.0,0.0,0.0,0.0,0.0,0.0,0.0,0.0,0.0,0.0,0.0,0.0,0.0,0.0,0.0,0.0,0.0,0.0,0.0,0.0,0.0,0.0,0.0,0.0,0.0,0.0,0.0,0.0,0.0,0.0,0.0,0.0,0.0,0.0,0.0,-0.0252,0.0,0.2632,0.2406,0.2842,0.3155,0.3479,0.3912,0.4262,0.0,0.4491,0.4491,0.4408,0.4076,0.3683,0.3239,0.2639,0.1735,0.105,0.0,0.0,0.0,0.0,0.0055,0.0,0.0,0.0,0.0,0.0,0.0,0.0,0.0,0.0,0.0,0.0,0.0,0.0,0.0,0.0,0.0,0.0,0.0,0.0,0.0,0.0,0.0,0.0,0.0,0.0,0.0,0.0,0.0,0.0,0.0,0.0,0.0,0.0,0.0,0.0,0.0,0.0,0.0,0.0,0.0,0.0,0.0,0.0,0.0,0.0,0.0,0.0,0.0,0.0,0.0,0.0,0.0,0.0,0.0,0.0,0.0,0.0,0.0,0.0,0.0,0.0,0.0,0.0,0.0,0.0,0.0,0.0,0.0,0.0,0.0,0.0,0.0,0.0,0.0,0.0,0.0,0.0,0.0,0.0,0.0,0.0,0.0,0.0,0.0,0.0,0.0,0.0,0.0,-0.0151,0.3901,0.0,0.3133,0.3557,0.3742,0.3918,0.0,0.4393,0.4491,0.4491,0.0,0.4436,0.4193,0.391,0.352,0.2978,0.21,0.1425,0.0,0.0,0.0,0.071,0.0507,0.0289,0.0,0.0,0.0,0.0,0.0,0.0,0.0,0.0,0.0,0.0,0.0,0.0,0.0,0.0,0.0,0.0,0.0,0.0,0.0,0.0,0.0,0.0,0.0,0.0,0.0,0.0,0.0,0.0,0.0,0.0,0.0,0.0,0.0,0.0,0.0,0.0,0.0,0.0,0.0,0.0,0.0,0.0,0.0,0.0,0.0,0.0,0.0,0.0,0.0,0.0,0.0,0.0,0.0,0.0,0.0,0.0,0.0,0.0,0.0,0.0,0.0,0.0,0.0,0.0,0.0,0.0,0.0,0.0,0.0,0.0,0.0,0.0,0.0,0.0,0.0,0.0,0.0,0.0,0.0,0.0,0.0,0.0,0.0,0.0,0.0,0.0,0.0,-0.005,0.4058,0.3908,0.38,0.4094,0.4201,0.4274,0.44,0.0,0.0,0.0,0.0,0.4463,0.4353,0.4266,0.4012,0.3461,0.2617,0.0,0.0,0.0,0.0,0.1521,0.1099,0.0651,0.0,0.0,0.0,0.0,0.0,0.0,0.0,0.0,0.0,0.0,0.0,0.0,0.0,0.0,0.0,0.0,0.0,0.0,0.0,0.0,0.0,0.0,0.0,0.0,0.0,0.0,0.0,0.0,0.0,0.0,0.0,0.0,0.0,0.0,0.0,0.0,0.0,0.0,0.0,0.0,0.0,0.0,0.0,0.0,0.0,0.0,0.0,0.0,0.0,0.0,0.0,0.0,0.0,0.0,0.0,0.0,0.0,0.0,0.0,0.0,0.0,0.0,0.0,0.0,0.0,0.0,0.0,0.0,0.0,0.0,0.0,0.0,0.0,0.0,0.0,0.0,0.0,0.0,0.0,0.0,0.0,0.0,0.0,0.0,0.0,0.0,0.0,0.0,0.3941,0.4105,0.426,0.4484,0.4545,0.4559,0.4559,0.0,0.0,0.0,0.0,0.0,0.0,0.4668,0.0,0.0,0.0,0.0,0.0,0.0,0.2512,0.2509,0.1948,0.0,0.0362,0.0306,0.0308,0.0308,0.0308,0.0308,0.0308,0.0308,0.0308,0.0308,0.0308,0.0308,0.0308,0.0123,0.0,0.0,0.0,0.0,0.0,0.0,0.0,0.0,0.0,0.0,0.0,0.0,0.0,0.0,0.0,0.0,0.0,0.0,0.0,0.0,0.0,0.0,0.0,0.0,0.0,0.0,0.0,0.0,0.0,0.0,0.0,0.0,0.0,0.0,0.0,0.0,0.0,0.0,0.0,0.0,0.0,0.0,0.0,0.0,0.0,0.0,0.0,0.0,0.0,0.0,0.0,0.0,0.0,0.0,0.0,0.0,0.0,0.0,0.0,0.0,0.0,0.0,0.0,0.0,0.0,0.0,0.0,0.0,0.0,0.0,0.0,0.0,0.0,0.0,0.3941,0.4105,0.4287,0.4585,0.4755,0.485,0.485,0.0,0.0,0.0,0.0,0.0,0.0,0.487,0.4796,0.0,0.0,0.3979,0.0,0.0,0.4033,0.3776,0.0,0.2648,0.1687,0.165,0.1666,0.1666,0.1666,0.1666,0.1666,0.1666,0.1666,0.1666,0.1666,0.1666,0.1666,0.0555,0.0,0.0,0.0,0.0,0.0,0.0,0.0,0.0,0.0,0.0,0.0,0.0,0.0,0.0,0.0,0.0,0.0,0.0,0.0,0.0,0.0,0.0,0.0,0.0,0.0,0.0,0.0,0.0,0.0,0.0,0.0,0.0,0.0,0.0,0.0,0.0,0.0,0.0,0.0,0.0,0.0,0.0,0.0,0.0,0.0,0.0,0.0,0.0,0.0,0.0,0.0,0.0,0.0,0.0,0.0,0.0,0.0,0.0,0.0,0.0,0.0,0.0,0.0,0.0,0.0,0.0,0.0,0.0,0.0,0.0,0.0,0.0,0.0,0.0,0.3941,0.4105,0.4287,0.4721,0.4894,0.5022,0.5142,0.5155,0.0,0.0,0.0,0.0,0.0,0.0,0.522,0.5084,0.0,0.5301,0.5393,0.5536,0.5609,0.0,0.0,0.4279,0.3398,0.3329,0.336,0.336,0.336,0.336,0.336,0.336,0.336,0.336,0.336,0.336,0.336,0.2784,0.2077,0.1111,0.1111,0.1111,0.1111,0.1111,0.1111,0.1049,0.0,0.0679,0.0556,0.037,0.0185,0.0,0.0,0.0,0.0,0.0,0.0,0.0,0.0,0.0,0.0,0.0,0.0,0.0,0.0,0.0,0.0,0.0,0.0,0.0,0.0,0.0,0.0,0.0,0.0,0.0,0.0,0.0,0.0,0.0,0.0,0.0,0.0,0.0,0.0,0.0,0.0,0.0,0.0,0.0,0.0,0.0,0.0,0.0,0.0,0.0,0.0,0.0,0.0,0.0,0.0,0.0,0.0,0.0,0.0,0.0,0.0,0.0,0.0,0.0,0.0,0.0,0.3907,0.4078,0.4294,0.4732,0.5026,0.5237,0.5453,0.5528,0.0,0.0,0.0,0.0,0.0,0.5716,0.0,0.5637,0.6063,0.6458,0.6837,0.6883,0.6942,0.6911,0.6463,0.5842,0.5036,0.4937,0.4925,0.4925,0.4925,0.4925,0.4925,0.4925,0.4925,0.4925,0.4925,0.4925,0.4925,0.5123,0.4292,0.2636,0.2645,0.2648,0.2648,0.2648,0.2648,0.2648,0.2218,0.1788,0.1296,0.0925,0.0432,0.0,0.0,0.0,0.0,0.0,0.0,0.0,0.0,0.0,0.0,0.0,0.0,0.0,0.0,0.0,0.0,0.0,0.0,0.0,0.0,0.0,0.0,0.0,0.0,0.0,0.0,0.0,0.0,0.0,0.0,0.0,0.0,0.0,0.0,0.0,0.0,0.0,0.0,0.0,0.0,0.0,0.0,0.0,0.0,0.0,0.0,0.0,0.0,0.0,0.0,0.0,0.0,0.0,0.0,0.0,0.0,0.0,0.0,0.0,0.0,0.0,0.3799,0.3998,0.4294,0.4633,0.5057,0.5453,0.5705,0.5881,0.0,0.6204,0.0,0.0,0.0,0.6377,0.6467,0.6363,0.6952,0.7407,0.7457,0.0,0.7808,0.7593,0.7258,0.6878,0.6303,0.6285,0.6282,0.6282,0.6282,0.6282,0.6282,0.6282,0.6282,0.6282,0.6282,0.6282,0.6282,0.6437,0.5889,0.4511,0.4639,0.4671,0.4671,0.4671,0.4671,0.4671,0.3999,0.32,0.2341,0.1726,0.0864,0.0,0.0,0.0,0.0,0.0,0.0,0.0,0.0,0.0,0.0,0.0,0.0,0.0,0.0,0.0,0.0,0.0,0.0,0.0,0.0,0.0,0.0,0.0,0.0,0.0,0.0,0.0,0.0,0.0,0.0,0.0,0.0,0.0,0.0,0.0,0.0,0.0,0.0,0.0,0.0,0.0,0.0,0.0,0.0,0.0,0.0,0.0,0.0,0.0,0.0,0.0,0.0,0.0,0.0,0.0,0.0,0.0,0.0,0.0,0.0,0.0,0.4024,0.4132,0.4287,0.4735,0.5101,0.0,0.0,0.6207,0.6491,0.6641,0.666,0.0,0.0,0.0,0.7131,0.7238,0.7755,0.819,0.8368,0.8459,0.8546,0.8436,0.8313,0.8177,0.7953,0.7945,0.7975,0.7975,0.7975,0.7975,0.7975,0.7975,0.7975,0.7975,0.7975,0.7975,0.7975,0.8151,0.7979,0.7517,0.6589,0.6149,0.6149,0.6149,0.6149,0.6088,0.5414,0.4616,0.363,0.2956,0.2096,0.1234,0.1234,0.1111,0.0925,0.0679,0.0494,0.0309,0.0062,0.0123,0.037,0.0556,0.0617,0.0617,0.0613,0.049,0.0243,0.0059,0.0,0.0,0.0,0.0,0.0,0.0,0.0,0.0,0.0,0.0,0.0,0.0,0.0,0.0,0.0,0.0,0.0,0.0,0.0,0.0,0.0,0.0,0.0,0.0,0.0,0.0,0.0,0.0,0.0,0.0,0.0,0.0,0.0,0.0,0.0,0.0,0.0,0.0,0.0,0.0,0.0,0.0,0.0,0.0,0.4132,0.416,0.4294,0.4719,0.0,0.0,0.6044,0.6519,0.6898,0.7095,0.7206,0.722,0.6966,0.0,0.0,0.0,0.8221,0.8587,0.8838,0.8885,0.8885,0.8885,0.8885,0.8885,0.8885,0.8885,0.8885,0.8885,0.8885,0.8885,0.8885,0.8885,0.8885,0.8885,0.8885,0.8885,0.8885,0.9083,0.9207,0.9214,0.8148,0.7692,0.7692,0.7692,0.7692,0.7632,0.6969,0.612,0.515,0.4485,0.3651,0.2873,0.2873,0.2637,0.2218,0.1665,0.1172,0.074,0.0185,0.0309,0.0741,0.1296,0.1481,0.148,0.1472,0.1163,0.0731,0.0177,0.0,0.0,0.0,0.0,0.0,0.0,0.0,0.0,0.0,0.0,0.0,0.0,0.0,0.0,0.0,0.0,0.0,0.0,0.0,0.0,0.0,0.0,0.0,0.0,0.0,0.0,0.0,0.0,0.0,0.0,0.0,0.0,0.0,0.0,0.0,0.0,0.0,0.0,0.0,0.0,0.0,0.0,0.0,0.0,0.4038,0.4112,0.4294,0.0,0.0,0.0,0.6347,0.6824,0.7186,0.755,0.7719,0.7726,0.748,0.7617,0.0,0.7968,0.8289,0.8587,0.8844,0.8885,0.8885,0.8885,0.8885,0.8885,0.8885,0.8885,0.8885,0.8885,0.8885,0.8885,0.8885,0.8885,0.8885,0.8885,0.8885,0.8885,0.8885,0.9083,0.9207,0.9207,0.9306,0.9374,0.9381,0.9381,0.9381,0.9381,0.8678,0.7852,0.6856,0.621,0.5444,0.4741,0.4744,0.4364,0.3815,0.2893,0.2094,0.1356,0.037,0.0432,0.1173,0.2218,0.2525,0.252,0.2539,0.2047,0.1317,0.029,0.0,0.0,0.0,0.0,0.0,0.0,0.0,0.0,0.0,0.0,0.0,0.0,0.0,0.0,0.0,0.0,0.0,0.0,0.0,0.0,0.0,0.0,0.0,0.0,0.0,0.0,0.0,0.0,0.0,0.0,0.0,0.0,0.0,0.0,0.0,0.0,0.0,0.0,0.0,0.0,0.0,0.0,0.0,0.0,0.4314,0.4443,0.0,0.5092,0.0,0.0,0.0,0.7143,0.0,0.0,0.8248,0.8072,0.7875,0.8004,0.0,0.8194,0.8452,0.871,0.8858,0.8885,0.8885,0.8885,0.8885,0.8885,0.8885,0.8885,0.8885,0.8885,0.8885,0.8885,0.8885,0.8885,0.8885,0.8885,0.8885,0.8885,0.8885,0.8981,0.9001,0.9001,0.9049,0.9178,0.9381,0.9381,0.9381,0.9381,0.8916,0.8329,0.7508,0.6633,0.612,0.592,0.6043,0.5722,0.5029,0.4169,0.3387,0.2712,0.1726,0.1973,0.2835,0.3571,0.4002,0.4113,0.3867,0.3309,0.2631,0.1566,0.1092,0.0859,0.0676,0.0449,0.0224,0.0056,0.0,0.0,0.0,0.0,0.0,0.0,0.0,0.0,0.0,0.0,0.0,0.0,0.0,0.0,0.0,0.0,0.0,0.0,0.0,0.0,0.0,0.0,0.0,0.0,0.0,0.0,0.0,0.0,0.0,0.0,0.0,0.0,0.0,0.0,0.0,0.0,0.0,0.0,0.445,0.4648,0.0,0.5446,0.5922,0.6512,0.7353,0.0,0.0,0.0,0.8567,0.8384,0.8174,0.8255,0.0,0.8357,0.8554,0.8764,0.8865,0.8885,0.8885,0.8885,0.8885,0.8885,0.8885,0.8885,0.8885,0.8885,0.8885,0.8885,0.8885,0.8885,0.8885,0.8885,0.8885,0.8885,0.8885,0.8885,0.8885,0.8885,0.8885,0.9035,0.9205,0.9205,0.9205,0.9205,0.8977,0.8692,0.8229,0.7658,0.7456,0.7506,0.7635,0.7333,0.6674,0.5714,0.4951,0.4289,0.3324,0.3565,0.4349,0.5132,0.5553,0.5662,0.5389,0.4895,0.4168,0.315,0.2559,0.2099,0.1572,0.1065,0.0617,0.0112,0.0,0.0,0.0,0.0,0.0,0.0,0.0,0.0,0.0,0.0,0.0,0.0,0.0,0.0,0.0,0.0,0.0,0.0,0.0,0.0,0.0,0.0,0.0,0.0,0.0,0.0,0.0,0.0,0.0,0.0,0.0,0.0,0.0,0.0,0.0,0.0,0.0,0.0,0.445,0.0,0.0,0.5677,0.6308,0.0,0.8221,0.8384,0.8377,0.8669,0.0,0.8648,0.8384,0.8438,0.8526,0.8526,0.8642,0.8777,0.8865,0.8885,0.8885,0.8885,0.8885,0.8885,0.8885,0.8885,0.8885,0.8885,0.8885,0.8885,0.8885,0.8885,0.8885,0.8885,0.8885,0.8885,0.8885,0.8885,0.8885,0.8885,0.8885,0.8885,0.8885,0.8885,0.8885,0.8885,0.8885,0.8885,0.8885,0.8885,0.9015,0.9193,0.9207,0.8889,0.8305,0.7322,0.656,0.5918,0.4984,0.5101,0.5806,0.6681,0.7036,0.7021,0.7013,0.6521,0.5825,0.4942,0.425,0.3525,0.2626,0.1903,0.1177,0.028,0.0056,0.0,0.0,0.0,0.0,0.0,0.0,0.0,0.0,0.0,0.0,0.0,0.0,0.0,0.0,0.0,0.0,0.0,0.0,0.0,0.0,0.0,0.0,0.0,0.0,0.0,0.0,0.0,0.0,0.0,0.0,0.0,0.0,0.0,0.0,0.0,0.0,0.0,0.4416,0.4887,0.0,0.0,0.6695,0.7597,0.8316,0.8459,0.852,0.8825,0.8838,0.8817,0.8804,0.8818,0.8838,0.8838,0.8811,0.8844,0.8878,0.8885,0.8885,0.8885,0.8885,0.8885,0.8885,0.8885,0.8885,0.8885,0.8885,0.8885,0.8885,0.8885,0.8885,0.8885,0.8885,0.8885,0.8885,0.8885,0.8885,0.8885,0.8885,0.8885,0.8885,0.8885,0.8885,0.8885,0.8885,0.8885,0.8885,0.8885,0.8898,0.8994,0.9166,0.8944,0.8527,0.7939,0.7449,0.6983,0.6224,0.6457,0.7046,0.7508,0.7863,0.802,0.7709,0.7328,0.6853,0.6121,0.5481,0.4812,0.386,0.3024,0.2129,0.0953,0.0336,0.0,0.0,0.0,0.0,0.0,0.0,0.0,0.0,0.0,0.0,0.0,0.0,0.0,0.0,0.0,0.0,0.0,0.0,0.0,0.0,0.0,0.0,0.0,0.0,0.0,0.0,0.0,0.0,0.0,0.0,0.0,0.0,0.0,0.0,0.0,0.0,0.0,0.0,0.0,0.0,0.0,0.0,0.0,0.8452,0.8587,0.8655,0.8838,0.8885,0.8885,0.8885,0.8885,0.8885,0.8885,0.8885,0.8885,0.8885,0.8885,0.8885,0.8885,0.8885,0.8885,0.8885,0.8885,0.8851,0.8832,0.8844,0.8851,0.8832,0.8844,0.8885,0.8885,0.8885,0.8885,0.8885,0.8885,0.8885,0.8885,0.8885,0.8885,0.8885,0.8885,0.8885,0.8885,0.8885,0.8885,0.8885,0.8885,0.8885,0.8892,0.9022,0.8937,0.8782,0.8458,0.8256,0.8085,0.7743,0.78,0.8142,0.8312,0.8489,0.859,0.8401,0.8208,0.7965,0.7616,0.7099,0.6427,0.5532,0.4529,0.3357,0.1903,0.084,0.0168,0.0,0.0,0.0,0.0,0.0,0.0,0.0,0.0,0.0,0.0,0.0,0.0,0.0,0.0,0.0,0.0,0.0,0.0,0.0,0.0,0.0,0.0,0.0,0.0,0.0,0.0,0.0,0.0,0.0,0.0,0.0,0.0,0.0,0.0,0.0,0.0,0.0,0.0,0.0,0.0,0.0,0.0,0.8499,0.8635,0.8682,0.8811,0.8865,0.8885,0.8885,0.8885,0.8885,0.8885,0.8885,0.8885,0.8885,0.8885,0.8885,0.8885,0.8885,0.8885,0.8885,0.8858,0.879,0.8716,0.8804,0.8804,0.8676,0.8791,0.8804,0.8804,0.8804,0.8804,0.8804,0.8804,0.8804,0.8804,0.8831,0.8858,0.8885,0.8885,0.8885,0.8885,0.8885,0.8885,0.8885,0.8885,0.8885,0.8885,0.8885,0.8885,0.8885,0.8885,0.8885,0.8885,0.8885,0.8885,0.8885,0.8885,0.8885,0.8885,0.8885,0.8885,0.8885,0.8885,0.8491,0.7875,0.7093,0.5977,0.4697,0.2905,0.1623,0.0673,0.0112,0.0,0.0,0.0,0.0,0.0,0.0,0.0,0.0,0.0,0.0,0.0,0.0,0.0,0.0,0.0,0.0,0.0,0.0,0.0,0.0,0.0,0.0,0.0,0.0,0.0,0.0,0.0,0.0,0.0,0.0,0.0,0.0,0.0,0.0,0.0,0.0,0.0,0.0,0.0,0.0,0.0,0.0,0.0,0.8411,0.0,0.8845,0.8885,0.8885,0.8885,0.8885,0.8885,0.8885,0.8885,0.8885,0.8885,0.8885,0.8885,0.8885,0.8885,0.8885,0.8818,0.873,0.871,0.8608,0.8533,0.8513,0.8533,0.854,0.854,0.854,0.854,0.854,0.854,0.854,0.8547,0.8676,0.8811,0.8885,0.8885,0.8885,0.8885,0.8885,0.8885,0.8885,0.8885,0.8885,0.8885,0.8885,0.8885,0.8885,0.8885,0.8885,0.8885,0.8885,0.8885,0.8885,0.8885,0.8885,0.8885,0.8885,0.8885,0.8885,0.8885,0.8657,0.8263,0.7648,0.6816,0.5704,0.4139,0.308,0.1961,0.0336,0.0,0.0,0.0,0.0,0.0,0.0,0.0,0.0,0.0,0.0,0.0,0.0,0.0,0.0,0.0,0.0,0.0,0.0,0.0,0.0,0.0,0.0,0.0,0.0,0.0,0.0,0.0,0.0,0.0,0.0,0.0,0.0,0.0,0.0,0.0,0.4784,0.0,0.0,0.0,0.0,0.0,0.0,0.0,0.8357,0.8648,0.8764,0.8838,0.8865,0.8885,0.8885,0.8885,0.8885,0.8885,0.8885,0.8885,0.8851,0.8818,0.8811,0.8777,0.8689,0.8621,0.8547,0.8472,0.8472,0.8445,0.837,0.8438,0.8479,0.8479,0.8479,0.8479,0.8479,0.8479,0.8526,0.8608,0.8676,0.8791,0.8885,0.8885,0.8885,0.8885,0.8885,0.8885,0.8885,0.8885,0.8885,0.8885,0.8885,0.8885,0.8885,0.8885,0.8885,0.8885,0.8885,0.8885,0.8885,0.8885,0.8885,0.8885,0.8885,0.8885,0.8885,0.8885,0.8823,0.8657,0.838,0.7765,0.6982,0.581,0.4697,0.3413,0.1622,0.0728,0.0168,0.0056,0.0,0.0,0.0,0.0,0.0,0.0,0.0,0.0,0.0,0.0,0.0,0.0,0.0,0.0,0.0,0.0,0.0,0.0,0.0,0.0,0.0,0.0,0.0,0.0,0.0,0.0,0.0,0.0,0.0,0.0,0.0,0.0,0.0,0.0,0.0,0.0,0.0,0.0,0.0,0.0,0.818,0.0,0.8574,0.8648,0.8798,0.8831,0.8885,0.8885,0.8885,0.8885,0.8885,0.8851,0.8838,0.8723,0.8676,0.8608,0.8492,0.8452,0.8384,0.8333,0.833,0.8323,0.8214,0.8309,0.837,0.837,0.837,0.837,0.837,0.837,0.8445,0.8601,0.8601,0.8696,0.8824,0.8824,0.8844,0.8885,0.8885,0.8885,0.8885,0.8885,0.8885,0.8885,0.8885,0.8885,0.8885,0.8885,0.8885,0.8885,0.8885,0.8885,0.8885,0.8885,0.8885,0.8885,0.8885,0.8885,0.8885,0.8885,0.8912,0.8994,0.8994,0.8631,0.8033,0.7241,0.6167,0.4743,0.2464,0.1064,0.0224,0.0056,0.0,0.0,0.0,0.0,0.0,0.0,0.0,0.0,0.0,0.0,0.0,0.0,0.0,0.0,0.0,0.0,0.0,0.0,0.0,0.0,0.0,0.0,0.0,0.0,0.0,0.0,0.0,0.0,0.0,0.0,0.0,0.0,0.0,0.0,0.0,0.0,0.0,0.0,0.0,0.0,0.0,0.7961,0.8187,0.8336,0.8479,0.8743,0.8885,0.8885,0.8885,0.8885,0.8885,0.8811,0.8716,0.871,0.8581,0.8492,0.8479,0.8364,0.8333,0.832,0.814,0.8008,0.8002,0.8008,0.8015,0.8015,0.8015,0.8015,0.8015,0.8015,0.814,0.8347,0.8347,0.8445,0.8723,0.8723,0.8804,0.8885,0.8885,0.8885,0.8885,0.8885,0.8885,0.8885,0.8885,0.8885,0.8885,0.8885,0.8885,0.8885,0.8885,0.8885,0.8885,0.8885,0.8885,0.8885,0.8885,0.8885,0.8885,0.8885,0.9035,0.92,0.92,0.9023,0.8723,0.8078,0.7259,0.5631,0.2087,0.0673,0.0,0.0,0.0,0.0,0.0,0.0,0.0,0.0,0.0,0.0,0.0,0.0,0.0,0.0,0.0,0.0,0.0,0.0,0.0,0.0,0.0,0.0,0.0,0.0,0.0,0.0,0.0,0.0,0.0,0.0,0.0,0.0,0.0,0.0,0.0,0.0,0.0,0.0,0.0,0.0,0.6837,0.7129,0.7368,0.7807,0.8018,0.8194,0.8438,0.8574,0.8676,0.8777,0.8791,0.8791,0.8791,0.8743,0.8642,0.8452,0.8377,0.8309,0.8208,0.8153,0.8126,0.8126,0.8022,0.7988,0.7988,0.7988,0.7988,0.7988,0.7988,0.7988,0.7988,0.7988,0.8119,0.832,0.832,0.8425,0.871,0.871,0.8798,0.8885,0.8885,0.8885,0.8885,0.8885,0.8885,0.8885,0.8885,0.8885,0.8885,0.8885,0.8885,0.8885,0.8885,0.8885,0.8885,0.8885,0.8885,0.8885,0.8885,0.8885,0.8885,0.8885,0.9042,0.9207,0.9207,0.9208,0.9091,0.8445,0.7624,0.6488,0.4857,0.283,0.1215,0.0984,0.0811,0.0579,0.0347,0.0116,0.0,0.0,0.0,0.0,0.0,0.0,0.0,0.0,0.0,0.0,0.0,0.0,0.0,0.0,0.0,0.0,0.0,0.0,0.0,0.0,0.0,0.0,0.0,0.0,0.0,0.0,0.0,0.0,0.4011,0.0,0.0,0.0,0.0,0.5737,0.6227,0.0,0.6973,0.7421,0.7672,0.7909,0.8201,0.8255,0.8357,0.8662,0.8669,0.8655,0.8703,0.8628,0.8492,0.8347,0.8221,0.8153,0.8002,0.7988,0.7988,0.7988,0.7988,0.7988,0.7988,0.7988,0.7988,0.7988,0.7988,0.7988,0.7988,0.7988,0.8092,0.8194,0.8194,0.8323,0.856,0.856,0.8669,0.8804,0.8804,0.8838,0.8885,0.8885,0.8885,0.8885,0.8885,0.8885,0.8885,0.8885,0.8885,0.8885,0.8885,0.8885,0.8885,0.8885,0.8885,0.8885,0.8885,0.8885,0.8885,0.8885,0.9076,0.9289,0.9289,0.9381,0.9412,0.8875,0.816,0.7385,0.6911,0.4788,0.2821,0.2412,0.1883,0.1353,0.0942,0.0353,0.0,0.0,0.0,0.0,0.0,0.0,0.0,0.0,0.0,0.0,0.0,0.0,0.0,0.0,0.0,0.0,0.0,0.0,0.0,0.0,0.0,0.0,0.0,0.0,0.0,0.0,0.0,0.0,0.0,0.0,0.0,0.0,0.0,0.0,0.546,0.0,0.6402,0.6817,0.7149,0.7448,0.7746,0.7807,0.8004,0.8601,0.8574,0.8526,0.8676,0.8452,0.832,0.8313,0.8133,0.7988,0.7988,0.7988,0.7988,0.7988,0.7988,0.7988,0.7988,0.7988,0.7988,0.7988,0.7988,0.7988,0.7988,0.7988,0.7988,0.7988,0.7988,0.8119,0.832,0.832,0.8431,0.871,0.871,0.8798,0.8885,0.8885,0.8885,0.8885,0.8885,0.8885,0.8885,0.8885,0.8885,0.8885,0.8885,0.8885,0.8885,0.8885,0.8885,0.8885,0.8885,0.8885,0.8885,0.8885,0.915,0.9381,0.9395,0.9605,0.97,0.9396,0.8848,0.8355,0.8055,0.6419,0.4815,0.4112,0.3173,0.2353,0.1649,0.0707,0.0,0.0,0.0,0.0,0.0,0.0,0.0,0.0,0.0,0.0,0.0,0.0,0.0,0.0,0.0,0.0,0.0,0.0,0.0,0.0,0.0,0.0,0.0,0.0,0.0,0.0,0.0,0.0,0.3765,0.0,0.0,0.0,0.0,0.0,0.0,0.0,0.5801,0.6368,0.677,0.7177,0.7584,0.774,0.7936,0.833,0.8357,0.8343,0.8384,0.8323,0.8228,0.8113,0.8015,0.7988,0.7988,0.7988,0.7988,0.0,0.7988,0.7988,0.7988,0.7988,0.7988,0.7988,0.7988,0.7988,0.7988,0.7988,0.7988,0.7988,0.7988,0.8119,0.832,0.832,0.8431,0.871,0.871,0.8798,0.8885,0.8885,0.8885,0.8885,0.8885,0.8885,0.8885,0.8885,0.8885,0.8885,0.8885,0.8885,0.8885,0.8885,0.8885,0.8885,0.8885,0.8885,0.8885,0.8885,0.915,0.9429,0.9646,0.9761,0.9761,0.97,0.9518,0.9396,0.9275,0.8842,0.7818,0.5766,0.4555,0.3585,0.2737,0.1522,0.0671,0.0427,0.0183,0.0,0.0,0.0,0.0,0.0,0.0,0.0,0.0,0.0,0.0,0.0,0.0,0.0,0.0,0.0,0.0,0.0,0.0,0.0,0.0,0.0,0.0,0.0,0.0,0.0,0.3866,0.0,0.0,0.0,0.0,0.0,0.4355,0.4762,0.5269,0.0,0.6193,0.6614,0.7129,0.7292,0.7448,0.7746,0.7801,0.7909,0.8279,0.8214,0.814,0.8002,0.7988,0.7988,0.7988,0.7988,0.7988,0.7988,0.7988,0.7988,0.7988,0.7988,0.7988,0.7988,0.7988,0.7988,0.7988,0.7988,0.7988,0.7988,0.7988,0.8035,0.8174,0.8174,0.8303,0.8526,0.8526,0.8648,0.8845,0.8845,0.8824,0.8885,0.8885,0.8885,0.8885,0.8885,0.8885,0.8885,0.8885,0.8885,0.8885,0.8885,0.8885,0.8885,0.8885,0.8885,0.8885,0.8885,0.915,0.9449,0.9741,0.9822,0.9822,0.9822,0.9822,0.9822,0.9822,0.9822,0.9268,0.7439,0.6329,0.5284,0.4183,0.271,0.1481,0.0987,0.037,0.0,0.0,0.0,0.0,0.0,0.0,0.0,0.0,0.0,0.0,0.0,0.0,0.0,0.0,0.0,0.0,0.0,0.0,0.0,0.0,0.0,0.0,0.0,0.0,0.0,0.4018,0.4004,0.0,0.0,0.3921,0.0,0.3991,0.4328,0.4741,0.0,0.5521,0.5908,0.6491,0.6614,0.6715,0.6957,0.7011,0.7326,0.8065,0.8052,0.7921,0.7941,0.7941,0.7948,0.7961,0.7968,0.7975,0.7988,0.7988,0.7988,0.7988,0.7988,0.7988,0.7988,0.7988,0.7988,0.7988,0.7988,0.7988,0.7988,0.7988,0.7988,0.7988,0.7988,0.8126,0.832,0.832,0.8438,0.871,0.871,0.8798,0.8885,0.8885,0.8885,0.8885,0.8885,0.8885,0.8885,0.8885,0.8885,0.8885,0.8885,0.8885,0.8885,0.8885,0.8885,0.8892,0.8925,0.9178,0.9449,0.9741,0.9822,0.9822,0.9822,0.9822,0.9822,0.9822,0.9822,0.964,0.9031,0.8166,0.7118,0.5778,0.3999,0.2462,0.1788,0.0864,0.0247,0.0247,0.0247,0.0247,0.0247,0.0247,0.0247,0.0247,0.0247,0.0247,0.0247,0.0247,0.0247,0.0247,0.024,0.0177,0.0177,0.0057,0.0056,0.0,0.0,0.0,0.0,0.0,0.0,0.4146,0.4085,0.4018,0.4112,0.0,0.0,0.3964,0.4058,0.428,0.0,0.5053,0.5373,0.5888,0.6078,0.622,0.6403,0.6525,0.6824,0.7501,0.7522,0.755,0.7672,0.7685,0.7733,0.7841,0.7855,0.7909,0.7982,0.7988,0.7988,0.7988,0.7988,0.7988,0.7988,0.7988,0.7988,0.7988,0.7988,0.7988,0.7988,0.7988,0.7988,0.7988,0.7988,0.8126,0.832,0.832,0.8438,0.871,0.871,0.8798,0.8885,0.8885,0.8885,0.8885,0.8885,0.8885,0.8885,0.8885,0.8885,0.8885,0.8885,0.8885,0.8885,0.8885,0.8885,0.8932,0.9225,0.9334,0.9449,0.9741,0.9822,0.9822,0.9822,0.9822,0.9822,0.9822,0.9822,0.9761,0.964,0.8842,0.7861,0.6761,0.5168,0.3817,0.3141,0.2219,0.1603,0.1603,0.1603,0.1603,0.1603,0.1603,0.1603,0.1603,0.1603,0.1603,0.1603,0.1603,0.1603,0.1603,0.1557,0.1414,0.112,0.0571,0.0224,0.0,0.0,0.0,0.0,0.0,0.0,0.4537,0.4442,0.4355,0.4355,0.0,0.0,0.0,0.3907,0.4016,0.4362,0.4646,0.4931,0.5386,0.5597,0.5776,0.6001,0.6165,0.6453,0.7009,0.7126,0.7204,0.7353,0.7441,0.7543,0.7692,0.7767,0.7875,0.7975,0.7988,0.7988,0.7988,0.7988,0.7988,0.7988,0.7988,0.7988,0.7988,0.7988,0.7988,0.7988,0.7988,0.7988,0.7988,0.7988,0.8029,0.8153,0.8153,0.8323,0.8594,0.8594,0.873,0.8885,0.8885,0.8885,0.8885,0.8885,0.8885,0.8885,0.8885,0.8885,0.8885,0.8885,0.8885,0.8885,0.8885,0.8885,0.8946,0.93,0.9381,0.9449,0.9741,0.9822,0.9822,0.9822,0.9822,0.9822,0.9822,0.9822,0.9822,0.9822,0.939,0.8842,0.7994,0.6761,0.5651,0.4981,0.406,0.3446,0.3446,0.3446,0.3446,0.3446,0.3446,0.3446,0.3446,0.3446,0.3446,0.3446,0.3446,0.3446,0.3446,0.3346,0.2799,0.1838,0.1187,0.0561,0.0,0.0,0.0,0.0,0.0,0.0,0.0,0.4891,0.4741,0.0,0.0,0.4063,0.0,0.0,0.0,0.414,0.4341,0.0,0.0,0.0,0.0,0.0,0.0,0.0,0.0,0.6935,0.0,0.7104,0.7278,0.7451,0.7547,0.7671,0.7767,0.7813,0.7847,0.786,0.786,0.7914,0.7948,0.7948,0.7975,0.7988,0.7988,0.7988,0.7988,0.7988,0.7988,0.7988,0.7988,0.7988,0.7988,0.7988,0.7988,0.8208,0.8479,0.8479,0.8662,0.8885,0.8885,0.8885,0.8885,0.8885,0.8885,0.8885,0.8885,0.8885,0.8885,0.8885,0.8885,0.8885,0.8885,0.8885,0.8946,0.93,0.9381,0.9449,0.9741,0.9822,0.9822,0.9822,0.9822,0.9822,0.9822,0.9822,0.9822,0.9822,0.9822,0.9579,0.897,0.8166,0.7362,0.6761,0.59,0.5287,0.5287,0.5287,0.5287,0.5287,0.5287,0.5287,0.5287,0.5287,0.5287,0.5287,0.5287,0.5287,0.5287,0.5085,0.4177,0.2642,0.2026,0.1237,0.0336,0.0336,0.0224,0.0,0.0,0.0,0.0,0.0,0.0,0.0,0.464,0.0,0.0,0.0,0.4018,0.416,0.0,0.0,0.0,0.0,0.0,0.0,0.0,0.0,0.6997,0.7166,0.7266,0.7265,0.7285,0.7357,0.7497,0.7482,0.7373,0.7206,0.7373,0.7448,0.7448,0.7692,0.7834,0.7834,0.7921,0.7988,0.7988,0.7988,0.7988,0.7988,0.7988,0.7988,0.7988,0.7988,0.7988,0.7988,0.7988,0.8208,0.8479,0.8479,0.8662,0.8885,0.8885,0.8885,0.8885,0.8885,0.8885,0.8885,0.8885,0.8885,0.8885,0.8885,0.8885,0.8885,0.8885,0.8885,0.8946,0.93,0.9381,0.9449,0.9741,0.9822,0.9822,0.9822,0.9822,0.9822,0.9822,0.9822,0.9822,0.9822,0.9822,0.97,0.9335,0.872,0.8172,0.7805,0.7133,0.6705,0.6705,0.6705,0.6705,0.6705,0.6705,0.6705,0.6705,0.6705,0.6705,0.6705,0.6705,0.6705,0.6705,0.6112,0.52,0.4065,0.3436,0.2561,0.157,0.157,0.1065,0.0,0.0,0.0,0.0,0.0,0.0,0.0,0.0,0.0,0.4756,0.0,0.4565,0.0,0.0,0.0,0.0,0.0,0.0,0.0,0.6422,0.0,0.0,0.0,0.736,0.0,0.0,0.0,0.7241,0.707,0.6953,0.6892,0.6946,0.7054,0.7224,0.7522,0.7726,0.7807,0.7914,0.7988,0.7988,0.7988,0.7988,0.7988,0.7988,0.7988,0.7988,0.7988,0.7988,0.7988,0.7988,0.8208,0.8479,0.8479,0.8662,0.8885,0.8885,0.8885,0.8885,0.8885,0.8885,0.8885,0.8885,0.8885,0.8885,0.8885,0.8885,0.8898,0.9035,0.9062,0.9123,0.9429,0.951,0.9557,0.9768,0.9822,0.9822,0.9822,0.9822,0.9822,0.9822,0.9822,0.9822,0.9822,0.9822,0.9761,0.964,0.9396,0.9147,0.9031,0.8781,0.8599,0.8599,0.8599,0.8599,0.8599,0.8599,0.8599,0.8599,0.8599,0.8599,0.8599,0.8599,0.8569,0.8492,0.7834,0.6985,0.5842,0.5211,0.4378,0.3357,0.3357,0.3134,0.2573,0.1345,0.0673,0.5935,0.0,0.0,0.0,0.0,0.0,0.0,0.0,0.0,0.0,0.0,0.0,0.0,0.0,0.0,0.0,0.0,0.7545,0.0,0.7842,0.0,0.0,0.0,0.0,0.0,0.6756,0.657,0.6537,0.6532,0.6647,0.6939,0.7326,0.7604,0.7746,0.7887,0.7988,0.7988,0.7988,0.7988,0.7988,0.7988,0.7988,0.7988,0.7988,0.7988,0.7988,0.7988,0.8208,0.8479,0.8479,0.8662,0.8885,0.8885,0.8885,0.8885,0.8885,0.8885,0.8885,0.8885,0.8885,0.8885,0.8885,0.8885,0.8967,0.9166,0.9207,0.9275,0.9523,0.9612,0.9646,0.9781,0.9822,0.9822,0.9822,0.9822,0.9822,0.9822,0.9822,0.9822,0.9822,0.9822,0.9822,0.9822,0.9822,0.9822,0.9822,0.9822,0.9822,0.9822,0.9822,0.9822,0.9822,0.9822,0.9822,0.9822,0.9822,0.9822,0.9822,0.9822,0.9774,0.9673,0.9127,0.8349,0.7306,0.6782,0.6027,0.5065,0.5065,0.5054,0.492,0.291,0.1681,0.0,0.0,0.0,0.6348,0.0,0.0,0.0,0.0,0.703,0.0,0.0,0.0,0.0,0.0,0.0,0.0,0.0,0.0,0.0,0.0,0.0,0.0,0.0,0.0,0.0,0.6588,0.6266,0.6129,0.6043,0.6179,0.6518,0.7098,0.7448,0.7604,0.784,0.7988,0.7988,0.7988,0.7988,0.7988,0.7988,0.7988,0.7988,0.7988,0.7988,0.7988,0.7988,0.8208,0.8479,0.8479,0.8662,0.8885,0.8885,0.8885,0.8885,0.8885,0.8885,0.8885,0.8885,0.8885,0.8885,0.8885,0.8885,0.8967,0.9166,0.9207,0.9275,0.9523,0.9612,0.9646,0.9781,0.9822,0.9822,0.9822,0.9822,0.9822,0.9822,0.9822,0.9822,0.9822,0.9822,0.9822,0.9822,0.9822,0.9822,0.9822,0.9822,0.9822,0.9822,0.9822,0.9822,0.9822,0.9822,0.9822,0.9822,0.9822,0.9822,0.9822,0.9822,0.9822,0.9815,0.9451,0.8956,0.8272,0.7914,0.7327,0.6417,0.6417,0.6365,0.6204,0.4362,0.3019,0.749,0.7577,0.7692,0.7608,0.7739,0.7881,0.7801,0.0,0.0,0.0,0.0,0.0,0.0,0.0,0.0,0.0,0.0,0.0,0.0,0.0,0.0,0.0,0.0,0.0,0.0,0.0,0.606,0.5921,0.5607,0.5615,0.6152,0.6749,0.719,0.7441,0.7834,0.7988,0.7988,0.7988,0.7988,0.7988,0.7988,0.7988,0.7988,0.7988,0.7988,0.7988,0.7988,0.8208,0.8479,0.8479,0.8662,0.8885,0.8885,0.8885,0.8885,0.8885,0.8885,0.8885,0.8885,0.8885,0.8898,0.9049,0.9083,0.913,0.9381,0.9456,0.9496,0.9693,0.9747,0.9761,0.9808,0.9822,0.9822,0.9822,0.9822,0.9822,0.9822,0.9822,0.9822,0.9822,0.9822,0.9822,0.9822,0.9822,0.9822,0.9822,0.9822,0.9822,0.9822,0.9822,0.9822,0.9822,0.9822,0.9822,0.9822,0.9822,0.9822,0.9822,0.9822,0.9822,0.9822,0.97,0.9513,0.9189,0.907,0.8753,0.83,0.83,0.8176,0.7986,0.6982,0.5365,0.8846,0.8993,0.9142,0.9129,0.9226,0.9311,0.9199,0.9242,0.9365,0.0,0.0,0.0,0.0,0.0,0.0,0.0,0.0,0.0,0.0,0.7839,0.0,0.0,0.0,0.0,0.0,0.0,0.6036,0.5825,0.5335,0.5285,0.0,0.6519,0.7007,0.7405,0.7807,0.7988,0.7988,0.7988,0.7988,0.7988,0.7988,0.7988,0.7988,0.7988,0.8022,0.8119,0.8119,0.8289,0.856,0.856,0.871,0.8885,0.8885,0.8885,0.8885,0.8885,0.8885,0.8885,0.8885,0.8885,0.8905,0.9166,0.9207,0.9268,0.9517,0.9612,0.9639,0.9781,0.9822,0.9822,0.9822,0.9822,0.9822,0.9822,0.9822,0.9822,0.9822,0.9822,0.9822,0.9822,0.9822,0.9822,0.9822,0.9822,0.9822,0.9822,0.9822,0.9822,0.9822,0.9822,0.9822,0.9822,0.9822,0.9822,0.9822,0.9822,0.9822,0.9822,0.9822,0.9822,0.9822,0.9822,0.9781,0.9686,0.9686,0.9564,0.9313,0.9313,0.9211,0.9015,0.8512,0.7192]}]]